GFSMA_prec_cloud_003.txt.gz
Cloud_Cover
88 41 5 16 91 5 35 5 5 2 0 0 0 0 0 0 0 0 0 0 0 0 0 0 0 0 0 0 0 0 0 0 17 100 100 100 100 100 100 100 100 100 100
100 47 100 100 73 5 6 7 5 5 4 0 0 0 0 0 0 0 0 0 2 3 1 0 0 0 0 0 0 2 0 0 0 0 84 100 100 100 100 100 100 100 100
100 99 100 100 30 17 94 8 45 66 34 0 0 0 0 0 0 0 0 0 0 0 1 5 0 0 0 0 0 0 4 1 0 0 2 100 100 100 100 100 100 100 100
100 100 98 100 100 100 69 100 57 58 4 5 5 0 0 3 4 1 2 5 5 5 0 0 3 0 0 0 0 0 0 5 3 0 0 4 100 100 100 100 100 100 100
100 100 100 100 100 100 100 100 48 38 5 5 1 1 2 1 1 5 5 5 8 6 8 5 5 5 2 0 0 0 0 0 8 8 2 0 29 100 100 100 100 100 100
100 100 100 99 72 89 90 9 25 8 1 2 0 0 0 0 0 4 5 5 7 16 23 17 16 53 10 4 0 0 0 0 0 4 4 4 1 6 97 100 100 100 100
4 5 44 5 5 5 1 5 5 5 7 8 5 5 0 0 0 0 0 0 5 5 5 5 0 1 2 4 4 0 0 0 0 0 0 0 13 4 94 100 100 100 100
2 0 0 0 0 4 6 27 7 7 5 2 2 4 2 1 1 0 0 0 0 0 0 0 0 2 4 5 0 0 0 0 0 0 0 0 0 0 2 100 100 100 100
0 0 0 5 5 9 19 17 5 0 0 0 0 0 0 0 5 0 0 2 2 0 3 4 1 0 1 2 0 0 0 0 0 0 0 0 0 0 0 21 100 94 100
0 0 5 5 5 5 1 0 0 0 0 0 0 5 0 4 0 0 0 0 0 0 0 5 0 0 5 5 5 1 0 0 0 2 0 0 2 0 0 0 3 36 96
3 5 5 5 5 0 0 0 0 0 9 8 86 92 60 50 5 3 0 0 0 0 3 4 4 0 0 2 5 5 0 0 0 0 2 5 2 3 5 3 14 5 88
0 0 0 0 0 1 3 58 8 63 31 5 80 45 7 49 96 78 5 2 0 0 0 1 4 0 0 0 5 1 1 0 0 0 0 4 5 7 7 5 61 4 5
0 0 2 3 5 6 79 99 100 5 53 88 5 5 5 5 3 12 30 21 3 4 5 4 3 0 0 0 5 2 5 4 0 0 0 10 4 5 100 99 87 26 45
5 5 5 13 10 5 21 96 19 76 5 27 40 14 11 5 93 99 73 100 82 6 1 5 5 5 4 0 1 3 68 95 5 2 0 4 5 84 67 100 96 100 100
5 56 75 7 11 99 51 97 17 0 0 1 5 33 5 4 4 2 3 5 79 10 3 0 0 5 5 4 1 4 50 100 74 60 14 4 5 17 5 89 100 99 100
67 6 5 52 100 28 5 0 0 4 0 3 1 0 0 0 0 1 5 5 5 5 21 5 6 6 5 5 2 2 74 100 100 92 100 5 10 96 19 90 100 100 100
6 5 47 97 5 9 50 5 5 4 5 0 0 0 0 1 5 5 5 5 6 81 100 5 68 97 98 80 5 5 56 97 100 100 68 68 5 71 95 45 100 100 100
5 5 70 39 40 78 6 94 6 5 0 0 0 0 5 5 5 5 5 70 100 100 100 99 100 100 100 100 66 15 95 100 98 86 6 74 13 5 22 36 63 100 100
5 5 7 50 82 75 96 56 5 5 2 0 0 0 5 5 5 68 100 100 100 100 100 100 100 100 100 100 88 28 92 100 94 100 99 59 100 100 100 72 72 74 100
18 5 48 80 42 59 17 9 11 5 3 0 1 5 5 35 76 100 100 100 100 100 100 100 100 100 100 100 100 90 100 54 91 94 100 90 88 100 100 100 100 98 100
25 5 53 5 14 70 91 29 5 5 5 5 5 5 5 88 82 100 100 100 100 100 100 100 100 100 100 100 100 100 100 100 90 77 100 98 77 82 100 100 100 100 100
5 5 7 7 99 100 99 7 63 5 0 0 1 5 5 5 57 96 98 98 100 100 100 100 100 100 100 100 100 100 100 100 94 36 5 99 78 100 100 100 100 100 100
5 5 5 5 27 17 72 100 10 1 1 5 2 3 5 23 65 100 100 94 99 100 98 100 100 100 100 100 100 100 100 100 100 100 34 88 31 100 100 100 100 100 100
3 5 84 18 65 7 23 2 4 0 0 5 5 20 78 100 100 100 100 100 100 100 100 100 100 100 100 100 100 100 100 100 98 99 89 7 83 19 100 100 100 100 100
5 5 5 49 6 5 5 5 0 4 5 5 25 89 100 100 100 100 100 100 100 100 100 97 51 76 97 62 93 100 100 100 100 99 96 100 9 49 28 88 100 100 96
3 5 5 5 5 5 5 5 3 5 5 5 5 18 100 100 100 99 100 100 100 100 100 100 100 100 100 100 74 84 100 100 100 100 100 96 100 87 58 8 33 99 75

GFSMA_prec_cloud_006.txt.gz
Cloud_Cover
100 100 100 83 90 100 12 6 66 28 1 25 90 0 0 0 0 0 0 0 0 0 1 5 0 0 0 1 0 0 3 0 0 0 41 100 100 100 100 100 100 100 100
100 100 100 91 63 100 65 84 89 82 98 98 72 5 3 3 4 5 0 0 0 0 0 2 5 0 0 0 0 0 0 4 0 0 1 100 100 100 100 100 100 100 100
99 100 100 100 95 98 98 100 100 100 100 100 44 7 5 4 4 0 0 0 0 0 0 0 0 0 0 0 0 0 0 0 0 0 0 29 100 100 100 100 100 100 100
100 100 100 100 100 100 100 100 100 100 79 37 5 5 5 5 5 3 2 1 0 0 0 1 0 0 3 0 0 0 0 0 0 0 0 2 100 100 100 100 100 100 100
99 100 100 100 100 100 98 20 4 4 5 2 5 5 46 37 5 5 5 5 4 3 4 2 4 0 0 0 0 0 0 0 0 0 2 1 100 100 100 100 100 100 100
100 99 10 5 16 6 0 0 2 4 5 5 1 2 5 5 5 5 5 5 5 6 5 5 5 5 5 5 5 0 0 0 0 0 0 2 29 100 100 100 100 100 100
0 0 0 0 0 0 0 4 5 5 5 4 5 4 1 5 78 100 100 65 54 62 94 44 20 5 5 5 5 5 4 0 0 0 0 0 0 72 100 100 100 100 100
0 0 0 0 0 0 5 5 5 5 5 5 12 71 90 69 8 6 17 5 5 17 5 5 5 5 5 5 5 5 4 5 0 0 0 0 0 0 88 100 100 100 100
0 0 0 0 0 5 5 0 3 5 5 5 34 5 2 0 0 0 2 3 5 4 4 0 5 4 0 0 0 2 5 0 1 0 0 0 0 0 1 19 91 100 100
0 0 0 0 0 0 0 1 5 5 2 0 2 4 5 4 5 5 5 75 5 2 3 2 5 0 0 0 0 0 4 0 0 0 0 3 0 1 0 1 4 17 100
5 0 0 0 0 0 1 0 0 2 5 5 5 4 5 5 6 62 32 90 90 43 5 5 5 5 3 0 0 0 0 0 0 0 0 0 0 3 2 0 0 0 8
1 0 0 0 0 0 1 16 5 18 20 100 75 5 24 84 97 100 94 46 5 1 5 5 5 5 5 4 0 0 1 0 0 0 0 0 0 0 1 0 0 0 0
0 0 0 3 13 38 69 58 75 45 61 86 92 79 95 100 100 100 100 41 5 2 5 5 5 7 5 5 5 3 3 0 5 0 0 0 0 0 0 0 22 53 8
5 5 42 48 8 84 76 87 100 99 97 94 79 97 100 100 100 100 100 100 44 5 5 5 5 5 5 5 5 0 4 48 19 5 5 0 0 0 5 4 50 99 100
27 8 10 28 100 100 94 100 89 97 98 41 100 100 100 100 100 90 100 100 100 30 5 5 5 9 85 100 91 75 50 29 10 38 5 5 5 5 4 5 20 100 100
5 12 34 74 48 66 99 98 98 100 92 98 100 100 96 17 69 100 100 100 100 100 44 5 18 82 100 100 100 99 68 5 57 6 5 19 91 12 88 5 5 47 100
5 5 5 5 41 93 100 60 96 100 100 100 100 100 100 100 100 100 100 100 100 100 100 5 100 100 100 100 100 100 100 88 100 67 5 100 100 100 100 35 5 5 91
32 5 5 5 83 94 85 53 100 100 100 100 100 100 100 92 100 100 100 100 100 100 100 94 100 100 100 100 100 100 100 100 59 98 79 100 95 100 100 100 5 100 43
46 5 5 45 23 91 44 99 100 66 99 60 35 79 75 62 64 80 99 100 100 100 100 100 100 100 100 100 100 100 98 100 100 100 17 100 100 100 100 100 82 22 100
16 12 85 76 40 5 15 88 69 79 38 62 65 44 16 31 49 54 45 99 100 100 100 100 100 100 100 100 100 100 97 80 100 100 98 22 100 100 100 100 100 100 23
5 89 24 5 8 24 95 100 100 99 97 37 5 4 2 4 2 46 46 100 100 100 100 100 100 100 100 100 100 100 100 100 100 100 100 97 100 100 100 100 80 100 100
13 92 96 52 94 53 8 6 74 90 42 5 0 0 0 5 42 6 82 89 43 100 100 100 100 100 100 100 100 100 100 100 100 100 100 100 100 100 100 100 100 90 100
27 87 95 64 52 69 5 5 1 0 4 0 0 0 5 11 94 100 100 99 100 100 96 99 100 100 100 100 100 100 100 100 100 100 100 100 100 100 100 100 100 100 100
16 78 98 28 20 5 4 3 5 5 0 0 1 5 5 64 100 75 100 100 100 100 100 100 100 100 100 100 100 100 100 100 100 100 100 100 100 100 98 92 100 100 100
40 100 27 5 5 5 5 5 5 5 5 5 5 5 5 25 50 59 100 100 100 100 100 100 99 98 50 34 26 95 100 100 100 100 100 100 100 100 99 100 100 100 100
29 3 0 4 5 5 5 5 5 5 21 5 5 2 3 17 45 84 95 100 100 100 100 100 100 100 100 100 72 90 100 100 100 100 100 100 100 100 100 92 100 100 100

GFSMA_prec_cloud_012.txt.gz
Cloud_Cover
100 100 100 96 76 51 67 100 100 46 5 5 4 44 19 87 38 38 46 19 41 94 95 50 0 0 0 0 0 0 0 0 0 0 19 31 30 0 0 0 100 100 100
100 100 71 93 100 100 100 98 100 86 86 50 33 70 100 97 96 100 100 100 78 79 5 5 4 1 0 0 0 0 0 0 0 0 0 16 27 34 8 0 72 100 100
90 71 88 15 30 37 39 92 22 2 0 1 0 0 3 0 0 0 0 0 5 5 99 100 5 5 5 0 0 0 0 0 0 0 0 0 13 0 7 79 43 100 100
58 28 14 5 5 5 2 0 0 0 0 0 0 0 0 0 0 0 4 5 5 10 39 37 100 74 9 5 0 0 0 0 3 0 0 0 0 0 0 0 68 100 100
43 10 5 4 0 0 0 0 0 0 0 0 0 0 0 0 0 0 0 0 1 30 80 100 92 89 94 4 4 4 0 5 4 5 4 0 0 0 0 0 0 94 100
6 2 0 0 0 0 0 0 0 0 0 4 0 0 0 0 0 0 0 2 6 10 61 90 95 95 8 12 30 55 5 1 5 32 100 18 0 0 0 0 0 25 100
0 0 0 0 0 0 0 0 0 0 0 0 0 0 0 0 0 0 0 0 0 6 86 100 73 33 58 84 32 3 2 54 77 21 5 5 5 0 0 0 0 0 86
0 0 0 0 0 0 0 0 0 0 0 5 0 0 0 0 0 0 0 0 0 3 6 34 10 34 30 6 4 2 14 5 5 2 5 5 5 5 0 0 0 0 5
4 2 0 0 0 0 0 0 0 0 5 5 2 3 2 4 5 0 0 0 1 2 0 0 8 99 79 5 0 2 5 1 0 0 4 5 5 5 5 5 0 0 0
5 5 4 0 0 0 0 0 0 0 2 5 5 4 5 9 5 2 1 0 0 4 27 5 5 32 20 0 0 5 5 5 1 0 0 5 5 5 5 5 5 0 1
41 34 5 0 0 0 0 0 2 5 5 5 5 5 6 56 8 12 2 0 0 0 0 100 80 4 1 0 0 5 41 5 1 0 0 5 3 5 5 5 5 2 4
5 5 5 5 5 5 5 3 5 5 5 22 8 89 92 74 87 37 5 1 0 0 0 14 46 20 2 5 5 4 2 0 0 0 0 0 14 6 5 8 13 5 5
42 5 5 5 5 5 5 5 5 5 5 5 5 5 17 5 5 2 5 5 5 0 0 0 5 5 5 4 1 3 4 3 0 0 0 5 32 52 1 2 40 9 8
73 5 5 5 5 5 8 50 5 5 42 10 15 76 53 4 48 5 5 5 2 4 0 5 0 5 5 6 45 5 5 5 0 5 0 7 5 1 0 2 3 0 0
6 5 5 5 6 5 5 5 24 12 9 66 98 73 94 2 5 29 34 6 5 5 5 5 0 0 45 33 4 2 0 0 0 0 0 5 34 2 0 0 5 1 0
5 5 5 15 5 5 56 57 9 99 89 11 68 100 79 5 77 84 6 5 51 65 24 3 5 74 81 5 0 0 0 0 0 0 1 30 69 24 5 4 0 5 5
5 5 5 5 14 82 87 6 14 36 69 24 99 95 28 34 100 5 3 5 5 5 5 5 2 4 2 0 0 0 0 0 1 5 79 100 82 87 70 5 5 4 5
5 8 6 5 81 69 92 5 3 5 18 44 5 61 49 6 68 5 5 4 0 0 0 4 0 0 0 4 5 5 0 4 5 5 2 6 99 94 5 98 5 4 5
86 50 5 5 92 16 5 5 8 92 64 99 57 30 4 51 5 3 0 0 0 0 3 5 5 5 5 5 5 5 5 5 5 33 99 100 63 78 8 33 5 4 18
81 60 35 25 57 75 6 20 59 90 49 28 23 5 5 5 3 0 0 0 0 3 5 5 5 5 5 5 5 28 5 3 3 4 7 73 91 97 95 66 5 5 1
94 65 91 94 98 97 100 98 100 100 92 3 4 5 5 2 0 0 0 3 5 5 5 5 5 5 5 5 5 11 49 23 5 6 51 60 21 100 100 95 79 8 5
100 98 100 100 100 100 100 100 100 100 100 5 4 2 0 0 5 5 5 5 5 5 5 50 6 7 5 69 98 90 14 11 66 5 5 17 49 100 100 100 100 23 5
100 100 100 100 100 100 100 100 100 100 3 5 5 4 2 5 5 5 0 0 0 3 31 99 100 96 99 99 36 6 5 5 5 5 5 3 100 100 100 100 77 5 5
99 100 100 100 100 100 100 100 100 20 2 4 5 2 5 5 5 0 0 0 2 3 5 97 81 5 5 5 5 5 5 5 5 5 22 1 100 100 100 100 81 5 91
100 100 100 100 100 100 100 100 13 100 3 5 5 5 5 5 0 0 0 4 5 0 5 5 5 5 5 49 88 94 20 92 52 5 5 68 41 100 90 65 10 58 100
100 100 100 100 100 100 100 100 99 5 5 5 5 5 5 5 5 4 5 5 5 5 2 3 5 13 5 56 100 100 100 100 97 69 99 36 97 100 13 5 7 100 68

GFSMA_prec_cloud_015.txt.gz
Cloud_Cover
100 100 100 100 100 100 100 100 100 100 100 100 26 2 0 4 3 5 5 0 0 0 8 4 2 27 59 49 79 2 4 0 0 1 3 6 1 58 92 7 1 15 4
100 100 100 100 100 100 100 95 100 100 32 2 0 2 5 5 0 0 0 0 0 0 0 4 4 46 12 5 3 0 0 0 0 0 5 5 13 0 3 46 49 0 16
100 100 100 100 100 100 100 58 11 6 3 2 0 0 0 0 0 0 0 0 0 4 5 5 5 5 5 5 5 5 0 0 0 0 0 8 100 64 0 0 70 68 4
100 100 100 91 53 40 29 4 0 0 0 0 0 0 0 0 0 0 0 0 2 5 4 4 5 15 5 5 5 5 0 0 0 0 1 0 5 94 91 0 0 4 72
100 100 100 91 14 5 5 5 5 2 0 0 0 0 0 0 0 0 0 0 0 0 4 19 40 40 75 75 52 75 14 2 0 1 4 95 100 11 1 0 0 0 0
100 89 70 29 5 5 4 0 0 0 0 0 0 0 0 0 0 0 0 0 0 3 5 58 60 91 99 97 99 73 36 5 5 0 1 3 30 16 5 5 3 0 0
5 3 5 5 1 0 0 0 0 0 0 0 0 0 0 0 0 0 0 0 0 0 0 4 85 87 100 100 100 93 2 0 5 4 52 5 5 5 5 5 5 4 0
4 0 0 1 0 0 0 0 0 0 0 0 0 0 0 0 0 1 3 5 5 5 5 1 78 94 65 37 5 5 5 5 0 0 2 15 5 5 5 5 5 5 5
2 1 4 0 0 0 0 0 0 0 0 0 1 3 0 1 2 3 5 57 82 73 4 0 0 2 4 5 5 5 1 0 0 0 0 0 4 4 5 5 5 5 5
5 5 5 5 2 0 0 0 0 0 0 0 4 5 5 5 5 5 4 5 4 0 0 0 9 82 14 15 5 3 1 0 0 0 0 0 0 5 5 3 4 5 14
5 5 5 89 63 2 0 0 0 0 1 4 5 37 46 5 5 5 5 0 0 0 0 0 0 5 5 5 5 5 5 0 0 0 0 0 4 5 5 70 43 6 74
5 5 7 61 2 2 1 0 0 1 5 9 59 8 4 5 5 5 2 0 0 0 0 0 0 0 0 4 5 1 0 0 0 0 0 0 5 5 15 100 93 90 93
5 5 5 29 5 5 4 1 0 0 1 0 3 0 5 5 5 16 5 0 0 0 0 0 0 0 0 0 0 0 0 0 0 0 0 0 5 5 9 100 100 93 100
20 51 46 58 1 0 0 2 0 3 0 3 5 0 7 37 100 5 5 2 0 0 0 0 0 0 2 5 5 5 1 0 0 0 0 0 0 1 5 100 100 40 75
94 55 5 5 5 5 3 5 5 5 4 5 6 93 66 58 16 24 72 6 58 4 0 0 0 2 5 5 2 0 0 0 0 0 0 0 0 5 9 5 5 5 4
84 23 100 100 5 12 62 50 5 6 93 83 99 100 100 98 100 62 65 5 24 5 3 0 0 0 0 0 0 0 0 0 0 0 0 0 3 20 79 5 5 5 3
77 100 83 13 35 94 97 99 86 88 94 32 75 92 100 100 100 88 37 37 87 60 5 0 0 0 0 0 0 0 0 0 0 0 0 0 2 16 54 55 46 6 13
100 100 60 100 92 99 100 100 82 59 42 99 100 100 100 100 100 100 57 0 0 0 0 0 0 0 0 0 0 0 0 0 0 5 5 6 85 78 74 93 100 16 5
99 100 100 97 91 86 100 91 69 100 100 100 100 100 100 100 100 87 3 0 0 0 0 2 0 0 0 0 0 0 0 0 4 4 4 0 68 88 72 18 98 54 95
99 100 100 100 100 100 100 100 100 86 100 98 95 58 98 100 40 4 0 0 0 0 0 0 0 0 0 0 3 5 33 5 5 4 5 11 73 5 5 100 99 88 5
94 100 82 100 100 100 100 100 100 100 100 100 100 7 83 84 22 0 0 0 0 2 5 4 5 5 5 5 70 77 65 5 0 1 4 2 5 5 44 100 83 74 88
100 100 100 100 100 100 100 100 100 100 100 100 100 19 100 59 0 0 0 0 5 1 5 5 5 89 98 34 64 5 5 5 5 2 5 0 4 5 89 98 100 100 100
100 100 100 98 97 100 100 100 100 100 100 100 33 100 48 5 0 1 0 0 0 0 1 3 16 51 8 66 59 5 4 5 33 5 5 5 4 5 100 100 100 100 100
100 100 100 100 100 100 100 100 100 100 100 52 25 5 1 4 5 5 0 0 0 0 0 3 22 3 3 48 84 62 25 12 19 5 5 59 1 5 99 100 100 100 43
100 100 100 100 100 100 100 100 100 100 56 86 100 4 0 5 5 5 4 4 4 0 0 1 0 4 5 5 46 100 87 100 69 5 66 99 5 6 52 100 100 96 4
100 100 100 100 100 100 100 100 98 60 100 65 2 0 0 0 5 5 5 5 5 2 4 2 1 3 5 5 24 86 85 100 98 79 100 58 5 67 10 92 38 5 86

GFSMA_prec_cloud_018.txt.gz
Cloud_Cover
100 100 100 100 100 100 100 97 100 99 100 100 100 100 100 100 55 4 3 0 0 0 0 0 0 0 0 0 0 0 0 0 0 0 0 1 0 20 100 99 54 100 100
100 100 98 100 100 100 100 100 100 100 100 100 84 98 55 8 4 1 0 0 0 0 0 0 0 0 0 0 0 0 0 0 0 0 0 0 0 1 20 62 94 46 80
100 100 100 100 100 100 100 100 100 100 100 60 8 14 4 5 0 0 0 0 0 0 0 0 0 0 0 1 5 5 5 5 0 0 0 0 0 0 0 0 1 11 0
100 100 100 100 100 100 100 100 100 100 63 5 5 4 4 0 0 0 0 0 0 0 0 0 0 0 5 5 5 5 5 5 5 0 0 0 0 0 0 0 0 0 0
100 100 100 100 100 100 100 99 93 16 4 4 4 0 0 0 0 0 0 0 0 0 0 2 0 3 5 12 61 81 66 85 5 5 3 0 0 1 0 3 4 2 0
100 100 94 86 68 75 54 13 5 5 3 0 0 0 0 0 0 0 0 0 0 0 0 0 5 5 87 100 100 96 100 90 98 91 5 0 1 5 5 6 4 5 5
85 97 62 5 5 5 18 4 0 0 0 0 0 0 0 0 0 0 0 0 0 0 5 0 0 0 4 5 5 39 5 5 17 5 4 1 5 5 5 5 5 5 5
6 5 5 5 5 4 1 30 13 4 0 0 0 0 0 0 0 0 0 0 0 0 0 0 0 0 0 0 0 2 2 2 0 0 0 0 5 2 0 1 5 5 49
3 2 0 3 0 1 5 41 0 0 0 0 0 0 5 3 4 5 3 0 2 1 0 0 0 0 0 0 5 5 68 65 5 0 0 0 4 23 4 1 5 5 66
4 4 5 5 5 3 5 5 2 0 0 0 2 5 5 14 7 5 4 5 0 0 0 0 0 0 0 0 0 5 46 100 12 2 0 1 5 5 5 5 5 3 15
5 5 5 5 5 5 0 0 0 0 0 4 3 5 5 5 3 61 66 18 5 5 7 9 5 1 0 0 0 0 1 4 4 0 0 0 0 5 5 5 5 2 94
67 83 68 78 27 62 55 3 2 1 0 0 3 5 4 5 4 4 5 4 0 12 74 96 90 100 6 0 0 0 0 0 0 0 0 0 3 5 5 5 5 37 91
76 100 97 75 97 90 32 71 29 5 1 5 5 5 5 48 5 5 5 5 5 4 42 100 50 4 0 0 0 0 1 4 3 0 0 0 4 1 1 5 5 16 100
95 12 100 93 49 68 6 98 10 70 9 5 31 68 74 66 24 8 89 48 5 9 76 9 0 0 0 0 0 2 0 4 0 0 0 0 1 5 7 48 80 92 100
99 100 84 82 99 90 6 5 15 5 5 5 30 16 100 100 100 100 100 85 93 50 41 34 3 0 1 3 0 0 0 0 0 0 0 4 5 5 22 76 100 98 100
96 54 70 87 100 100 97 44 6 5 5 9 44 73 81 24 59 100 100 100 100 99 23 5 2 0 0 0 0 0 0 0 0 0 2 0 5 5 12 33 7 5 55
32 93 68 99 93 100 100 75 95 67 90 93 100 100 100 100 100 100 100 100 100 99 4 0 0 0 0 0 0 0 0 0 0 0 5 5 4 5 5 5 5 5 5
70 97 99 100 95 100 100 97 54 59 36 66 63 70 100 100 100 100 100 100 96 14 0 0 0 0 0 0 0 0 0 0 4 0 5 0 5 5 5 5 5 5 5
77 76 99 96 99 100 100 99 80 48 77 100 100 100 100 100 99 100 96 99 81 0 0 5 0 0 0 0 0 0 4 5 2 2 0 0 4 5 5 5 5 56 32
17 70 98 100 100 100 100 100 100 59 58 87 54 96 99 95 46 10 1 0 0 0 0 5 3 4 3 1 5 5 29 5 2 0 0 0 1 1 5 5 5 100 80
80 94 100 100 88 80 100 100 100 100 100 100 100 100 100 5 5 4 0 0 0 4 5 5 5 5 5 5 20 5 29 5 0 0 0 5 0 1 4 1 71 100 100
99 100 100 85 100 100 100 100 100 100 100 100 100 100 87 12 5 6 0 0 0 2 5 5 5 5 6 59 5 5 6 52 91 5 6 5 5 5 4 0 100 100 100
100 100 100 100 97 100 100 100 100 100 100 100 100 5 5 5 0 0 0 0 0 0 0 5 5 26 36 3 86 77 93 86 77 6 100 68 5 5 0 1 100 100 100
100 100 100 100 100 100 100 100 100 100 100 65 5 5 5 1 0 0 4 1 0 0 0 0 4 3 4 5 89 99 98 98 75 5 6 89 5 5 3 2 100 100 86
100 100 100 100 100 100 100 100 100 100 100 43 8 47 0 0 0 0 5 5 2 0 0 0 2 5 5 5 62 100 63 91 85 47 100 94 66 57 5 59 90 100 100
100 100 100 100 100 100 100 100 100 100 19 5 5 0 0 0 0 2 5 5 6 3 2 3 1 4 5 3 5 33 6 100 100 55 90 98 77 100 5 66 100 70 100

GFSMA_prec_cloud_021.txt.gz
Cloud_Cover
100 100 100 100 100 100 100 100 100 100 100 100 100 100 100 100 100 100 79 30 5 5 3 0 9 31 20 0 0 0 0 0 0 0 0 0 1 2 0 0 0 0 18
100 100 100 100 100 100 100 100 100 100 100 100 100 97 98 100 30 5 5 5 4 0 0 8 33 26 39 50 6 0 2 0 0 0 0 0 0 5 5 1 0 0 0
100 100 100 100 100 100 100 100 100 100 100 100 100 53 82 74 66 20 9 1 0 0 0 0 0 0 3 7 2 5 5 2 1 0 0 9 0 0 0 4 5 0 0
100 100 100 100 100 100 100 100 100 100 100 100 34 46 78 57 4 0 0 0 0 0 0 0 0 0 0 4 5 5 5 5 5 5 6 1 0 0 0 0 0 4 5
100 100 100 100 100 100 100 100 97 100 96 52 30 13 2 0 0 0 0 0 0 0 0 0 0 0 0 3 4 4 5 5 33 95 77 5 0 0 0 1 0 1 2
100 100 100 100 100 95 36 15 49 54 24 3 0 0 0 0 0 0 0 0 0 0 0 0 0 0 0 0 1 4 5 5 5 5 5 5 4 5 5 2 1 4 2
39 97 98 22 5 6 36 25 2 0 0 0 0 0 0 0 0 0 0 0 0 0 0 0 0 0 0 0 0 0 0 5 5 18 91 33 0 1 2 5 5 44 69
29 6 5 5 5 2 0 0 0 0 0 0 0 0 0 0 0 0 0 0 0 0 0 0 0 0 0 0 0 0 0 1 4 14 5 3 2 5 9 54 90 46 73
5 4 1 0 0 0 4 1 2 3 12 5 0 0 0 2 1 2 0 3 5 13 5 3 2 0 0 0 0 0 0 0 0 3 4 5 5 73 81 14 6 64 21
5 5 5 5 5 5 12 68 92 69 17 5 34 5 5 6 9 8 2 4 5 6 5 34 1 2 5 1 0 0 2 0 0 0 0 4 5 5 7 5 5 44 94
5 5 5 5 5 5 52 66 71 90 27 5 9 5 5 5 5 5 5 4 5 42 50 37 100 100 100 84 34 5 0 0 0 0 0 5 5 5 5 5 5 5 5
83 14 5 5 5 97 99 91 33 17 60 88 94 18 76 14 87 53 5 5 19 98 100 100 100 100 100 81 38 5 0 0 0 5 5 5 5 5 5 5 4 5 5
88 29 5 78 72 100 98 91 13 83 99 91 100 39 13 22 5 5 5 5 92 100 98 87 100 100 100 100 88 4 0 0 0 2 5 5 3 0 0 4 5 5 26
51 92 94 100 100 100 97 100 82 91 91 97 100 49 66 10 5 7 75 44 55 12 96 98 100 96 96 8 5 1 0 0 0 0 5 0 4 5 5 5 63 96 100
90 100 100 100 80 100 100 100 100 100 80 73 64 78 100 100 100 99 59 33 48 98 5 32 5 0 1 0 0 0 0 0 0 3 1 5 83 85 100 96 97 99 100
100 100 100 100 100 97 93 96 100 92 50 46 24 13 97 100 92 91 100 95 64 5 6 5 0 0 0 0 0 0 0 0 0 1 5 5 62 100 84 83 77 63 88
100 100 100 100 100 100 100 99 63 33 89 95 69 100 100 100 98 98 100 95 100 43 4 0 0 0 0 0 0 0 0 0 0 1 5 11 5 5 5 46 5 5 5
100 100 100 100 100 100 100 100 100 99 18 33 45 63 86 100 100 99 100 100 76 5 0 0 0 0 0 0 0 0 0 0 0 0 5 4 0 1 17 53 5 5 5
100 100 100 100 94 98 100 95 75 23 5 8 58 100 100 97 51 88 99 98 32 0 0 5 3 0 0 0 0 0 0 0 5 2 0 0 0 5 5 5 5 5 5
100 100 100 100 100 78 89 90 78 87 84 61 72 90 88 98 100 100 89 2 0 0 0 5 3 1 4 1 5 5 3 5 4 0 0 2 4 4 5 5 2 5 43
100 100 100 100 100 100 99 68 99 100 100 100 99 100 100 100 100 7 5 0 0 4 5 5 5 5 5 5 5 2 5 5 5 3 5 5 5 5 5 4 0 1 5
100 100 100 100 100 100 92 100 90 93 100 98 100 100 100 85 5 5 5 0 2 5 5 5 5 5 5 5 5 5 47 99 96 5 30 22 5 5 5 5 5 5 24
100 100 100 100 100 100 100 100 100 100 100 100 100 99 65 16 5 5 0 0 3 5 5 5 5 5 5 5 13 72 91 100 100 25 48 56 15 5 3 0 8 5 100
100 100 100 100 100 100 100 100 100 100 100 97 52 26 5 5 5 0 0 0 3 5 5 5 2 5 5 5 11 49 97 84 7 5 7 92 5 5 5 3 100 55 100
100 100 100 100 100 100 99 96 83 62 17 10 8 57 5 4 0 0 0 1 0 4 5 5 1 5 5 5 5 5 5 91 94 52 48 94 6 7 5 5 86 100 100
100 100 100 100 100 100 100 78 2 5 5 16 48 5 4 0 0 0 5 5 5 5 5 5 5 1 4 5 5 5 5 100 100 76 31 45 11 97 80 6 66 100 100

GFSMA_prec_cloud_024.txt.gz
Cloud_Cover
100 100 100 100 100 100 100 100 90 10 28 93 13 100 98 100 100 48 38 92 24 27 27 1 9 26 24 14 0 0 0 2 0 0 0 0 0 0 0 0 0 0 0
100 100 100 100 100 100 100 100 100 100 98 100 100 57 87 87 91 22 15 21 54 2 0 0 0 19 22 24 15 0 11 3 5 2 9 26 5 1 0 0 0 1 0
100 100 100 100 100 100 71 100 100 100 100 100 100 100 95 98 21 5 4 0 0 0 0 0 0 1 6 2 0 0 3 3 4 5 5 13 63 5 3 1 0 0 5
100 100 100 100 100 100 100 100 100 100 99 92 100 72 19 21 2 0 0 0 0 0 0 0 0 0 0 0 0 0 4 5 5 5 94 94 8 15 5 5 5 3 3
100 100 100 100 100 100 100 100 100 59 62 28 8 3 0 0 0 0 0 0 0 0 0 0 0 0 0 0 0 0 0 5 5 5 39 5 8 75 21 5 5 2 5
100 100 100 100 76 100 86 96 72 32 7 2 0 0 0 0 0 0 0 0 0 0 0 0 0 0 0 0 0 0 0 5 5 20 83 100 100 97 5 5 5 5 0
89 100 100 90 35 48 5 17 11 0 0 1 0 0 5 5 2 0 0 0 0 0 0 0 0 0 0 0 0 0 0 5 5 5 5 5 5 5 40 58 98 90 18
30 54 15 26 22 5 6 0 5 5 5 5 72 48 1 0 0 0 0 5 5 5 4 5 5 5 5 5 3 1 4 4 9 5 5 5 5 5 10 63 80 97 100
5 16 72 14 3 0 2 5 60 80 94 25 27 5 19 5 5 5 6 1 4 5 73 56 23 5 5 56 69 50 85 95 81 46 35 5 5 34 93 100 97 100 100
40 10 5 5 5 14 5 90 97 100 95 5 22 5 48 28 5 5 5 5 5 5 5 5 5 5 24 69 20 43 67 16 8 1 5 5 20 100 100 100 100 100 100
60 5 7 5 59 52 41 100 100 100 93 20 69 5 82 71 5 5 5 5 5 5 20 66 72 5 10 63 60 75 73 4 5 0 0 1 5 81 100 100 100 100 100
94 49 5 8 91 100 100 56 95 53 74 15 5 5 16 22 5 5 5 5 5 5 6 76 74 85 31 5 1 2 4 5 5 4 5 5 5 7 5 13 5 5 5
97 100 91 76 100 100 95 90 100 96 23 5 44 77 5 5 5 5 5 5 5 5 5 5 12 5 5 7 29 82 12 3 0 0 2 5 5 5 5 5 5 5 22
100 66 99 74 99 98 17 100 100 79 51 33 14 5 5 5 5 5 5 5 5 5 5 5 68 82 90 98 56 5 1 0 0 0 4 5 5 5 5 44 38 88 99
92 100 77 97 100 56 100 37 72 95 79 5 5 9 5 5 5 5 5 25 5 5 6 5 83 100 95 42 2 0 0 0 0 3 5 5 5 12 72 99 100 100 100
96 100 100 100 100 100 100 100 100 89 20 6 31 69 8 4 5 5 5 38 85 26 7 52 22 2 0 0 0 0 0 0 0 0 5 5 7 72 55 39 14 76 100
100 100 100 100 100 100 100 100 98 76 40 15 5 5 24 50 13 5 52 9 2 4 2 0 0 0 0 0 0 0 0 0 0 0 5 5 5 13 5 5 5 86 98
100 100 100 81 100 100 100 100 98 86 12 14 46 100 61 5 79 34 5 4 0 0 0 0 0 0 0 0 0 0 0 0 0 0 5 5 5 5 5 5 5 20 50
100 100 62 85 100 99 100 100 90 74 79 70 53 8 16 22 23 7 19 6 5 5 5 5 0 0 0 0 0 1 1 0 0 4 2 5 0 5 5 12 10 5 5
92 87 100 92 100 95 100 100 100 100 98 97 94 78 61 68 20 98 38 5 5 5 3 4 5 3 0 0 1 5 2 5 5 2 1 0 5 5 5 5 5 5 5
91 100 80 70 99 100 100 99 100 100 100 100 85 89 75 42 82 88 83 5 5 4 4 5 0 0 3 2 5 4 5 11 6 5 5 4 5 5 5 5 5 5 5
100 100 100 97 100 100 100 100 100 100 100 79 100 66 72 26 73 26 5 5 2 5 4 5 1 3 2 5 5 5 59 90 95 8 5 5 5 5 5 5 5 5 5
100 100 100 100 100 100 100 100 100 100 100 100 32 33 63 74 16 5 5 2 2 0 0 5 5 2 5 5 10 46 62 92 83 13 15 50 4 5 5 5 5 64 100
94 100 100 100 100 100 100 100 100 100 100 38 5 23 95 87 83 5 11 5 2 0 0 5 1 0 2 5 67 78 9 5 22 5 5 95 5 5 5 5 5 37 100
100 100 100 100 100 100 100 100 100 100 21 5 2 6 40 96 89 50 7 5 5 0 0 2 2 4 5 12 5 5 5 47 87 37 5 97 39 5 5 5 5 5 65
100 100 100 100 100 100 100 100 100 30 13 5 5 24 94 99 100 100 9 24 5 1 2 1 0 5 5 5 5 5 5 53 93 43 5 10 64 94 79 5 5 93 32

GFSMA_prec_cloud_027.txt.gz
Cloud_Cover
92 100 100 100 99 100 100 100 100 72 84 50 85 55 5 6 7 5 23 15 20 5 5 4 17 19 16 20 0 0 0 0 3 3 5 2 2 0 0 0 0 0 0
100 100 100 100 100 100 99 99 90 97 98 6 46 14 88 95 92 63 20 5 5 2 0 0 0 26 25 51 0 5 16 26 6 1 5 5 15 10 5 5 4 1 0
100 100 100 100 100 100 100 100 100 100 6 8 76 100 78 63 6 29 6 2 0 0 0 0 0 0 0 0 0 0 0 2 5 5 5 44 20 5 5 5 5 0 5
100 100 100 100 100 100 100 100 5 30 94 100 100 80 47 27 7 4 0 0 0 0 0 0 0 0 0 0 0 0 0 5 5 5 5 14 5 5 5 5 5 5 5
100 100 100 100 100 100 74 5 48 100 86 100 90 53 12 0 0 0 0 0 0 0 0 0 0 0 0 0 0 0 0 5 5 5 5 15 26 53 30 5 5 5 2
100 100 100 100 100 30 3 58 86 79 26 18 19 4 0 0 0 0 0 0 0 0 0 0 0 0 0 0 0 0 0 5 5 5 5 5 25 98 51 5 5 5 12
78 40 10 4 4 20 25 17 50 5 5 3 5 5 5 0 0 0 0 0 0 0 0 0 0 0 0 0 0 0 0 0 3 5 5 5 5 5 5 22 24 77 18
100 90 66 54 5 5 5 5 5 4 5 5 75 60 5 2 4 0 2 2 0 0 0 0 0 0 0 2 0 0 3 4 4 4 5 5 5 5 5 28 54 98 100
56 80 27 5 5 5 5 5 51 83 86 52 42 15 6 4 0 0 4 2 0 0 0 0 0 0 0 0 0 0 3 0 0 0 4 5 5 5 39 87 99 89 59
17 5 5 38 5 5 5 27 46 100 97 86 80 5 5 1 1 1 0 5 5 1 0 0 0 0 0 0 0 3 0 0 0 3 4 5 5 5 52 45 100 96 100
79 99 63 50 6 74 81 94 100 100 100 98 5 3 0 5 5 5 5 5 0 0 1 0 0 0 0 0 5 0 0 0 1 5 25 5 6 33 69 100 100 100 100
85 51 80 81 82 62 70 71 33 72 94 61 3 5 5 4 5 5 3 1 1 0 3 0 0 0 0 5 4 5 28 77 88 59 4 3 5 5 5 6 55 55 74
85 100 100 100 80 98 100 93 70 60 75 5 5 5 5 5 5 0 1 3 5 5 4 1 3 4 5 2 0 0 0 0 0 0 0 0 5 5 5 5 5 28 100
100 100 100 99 98 100 100 100 88 95 33 5 5 5 5 5 4 5 5 5 5 31 69 16 15 0 0 0 0 0 0 0 0 0 3 5 5 5 5 49 48 94 100
100 100 88 99 100 100 100 99 100 62 6 8 6 5 5 5 5 5 3 0 5 5 5 27 5 4 0 0 0 0 0 0 0 0 2 5 5 5 5 76 100 100 100
100 100 97 100 100 100 78 39 79 69 87 99 95 92 38 5 5 5 0 0 4 5 5 5 5 2 0 0 0 0 0 0 0 0 2 5 5 5 21 73 61 61 83
100 100 99 100 99 60 94 65 70 100 100 94 100 98 3 5 32 4 5 14 52 5 5 5 4 2 0 0 0 0 0 0 0 0 4 5 5 22 30 5 5 5 5
100 100 100 34 44 96 87 100 89 100 100 100 52 71 42 5 5 59 100 96 5 5 5 5 5 5 2 4 0 0 0 0 0 0 0 5 6 5 5 15 35 58 80
100 100 100 100 100 89 97 100 100 100 76 59 100 98 63 19 100 100 98 15 5 5 5 5 5 5 5 5 0 0 0 0 0 0 0 5 5 5 5 5 5 5 5
99 100 100 100 100 100 100 100 100 100 97 98 99 96 97 100 100 99 21 5 52 5 5 5 5 5 4 2 0 0 0 0 3 5 16 22 5 5 5 5 5 5 5
100 100 100 100 98 100 100 100 99 100 100 100 100 100 100 100 100 47 69 81 5 5 5 5 5 5 1 0 0 3 5 5 5 8 94 100 7 5 5 5 5 5 5
100 100 100 93 98 98 100 100 100 74 100 100 100 100 100 100 67 97 30 99 5 5 5 5 5 5 0 0 3 5 79 88 18 5 97 46 30 5 5 5 3 5 5
100 100 100 100 100 100 100 99 100 95 100 100 100 100 99 59 8 100 90 53 5 5 5 5 5 5 5 0 5 62 98 99 64 6 97 66 5 5 5 5 0 5 5
100 100 100 100 100 100 100 100 100 100 97 100 100 100 49 9 5 93 92 88 11 56 5 11 5 5 4 0 6 96 100 100 80 43 97 64 38 57 5 5 4 2 5
100 100 100 100 100 100 100 96 86 96 100 100 100 79 11 4 5 100 99 99 29 97 14 89 5 5 1 3 6 89 100 100 84 22 14 93 94 69 58 18 94 54 5
100 100 100 100 100 96 13 93 100 100 100 100 67 60 5 22 100 100 98 100 96 99 100 70 5 3 3 5 5 59 99 100 100 98 40 94 99 100 65 72 100 99 100

GFSMA_prec_cloud_030.txt.gz
Cloud_Cover
100 100 100 87 100 96 100 100 100 100 96 100 100 84 90 81 5 5 5 5 5 26 5 39 5 2 18 17 0 11 2 2 2 3 5 4 5 5 7 5 3 1 0
100 100 100 100 100 98 61 73 100 100 98 68 8 88 70 33 5 3 4 5 5 5 5 0 12 26 30 5 0 7 6 1 0 3 5 5 91 51 23 6 2 1 5
100 100 100 100 97 100 100 100 100 100 100 100 100 38 71 26 0 3 3 5 3 0 0 0 0 0 0 0 0 0 0 0 5 5 5 5 10 5 5 5 4 4 5
100 100 100 98 100 100 100 100 100 100 100 84 61 15 6 5 2 5 2 0 0 0 1 0 0 0 0 0 0 0 0 0 5 5 5 5 22 13 11 5 5 5 5
100 100 94 100 100 100 100 100 100 100 92 6 7 3 3 5 1 0 0 0 0 0 0 0 0 0 0 0 0 0 0 1 5 5 5 30 59 81 100 100 78 5 2
100 100 100 100 100 99 99 30 17 8 2 3 4 5 4 1 0 0 0 0 0 0 0 0 0 0 0 0 0 0 0 1 5 5 5 5 5 8 15 22 5 5 7
100 100 100 100 100 99 5 5 5 4 0 5 5 2 0 0 2 0 0 0 0 0 0 0 0 0 0 0 0 0 0 0 0 0 5 5 5 5 5 5 5 11 82
100 100 98 82 5 2 5 5 7 5 5 5 5 6 47 18 2 0 0 0 2 0 0 0 0 0 0 0 0 0 0 0 0 0 5 5 5 5 5 5 74 100 100
100 52 6 5 5 5 5 8 15 5 34 30 96 93 64 11 1 4 3 2 4 3 1 2 5 4 2 2 3 5 4 0 0 0 5 5 5 5 5 5 20 84 91
19 6 6 12 54 51 95 100 77 68 97 55 5 5 5 5 5 5 0 0 3 5 5 5 3 5 5 5 5 5 4 0 0 1 5 5 5 19 39 6 30 81 100
89 76 48 100 100 100 92 99 67 100 44 70 54 31 5 5 0 0 5 4 1 3 3 5 5 1 5 5 5 5 1 0 0 0 0 0 2 9 63 100 50 75 100
96 100 100 100 82 96 91 94 100 100 100 75 95 5 5 0 3 3 0 3 5 5 5 5 5 5 5 5 5 1 0 0 0 0 0 0 0 5 5 5 19 68 83
100 100 100 99 100 100 100 100 100 100 100 99 99 5 5 5 5 5 10 34 5 5 5 5 8 47 23 5 5 1 0 0 0 0 0 0 4 5 5 5 5 45 99
100 100 100 100 100 100 100 100 100 100 99 46 28 8 30 5 9 75 100 94 25 5 8 54 98 96 73 6 5 0 0 0 0 0 0 0 5 5 5 5 31 96 100
100 100 100 100 100 100 100 100 100 100 90 79 86 90 72 100 98 100 67 89 55 5 5 19 18 90 79 63 5 1 0 0 0 0 0 3 5 5 5 5 84 100 100
100 94 100 100 100 100 100 100 100 75 100 65 100 100 98 95 90 13 42 10 6 20 22 64 82 80 58 5 5 0 2 0 0 0 0 1 5 5 5 5 28 55 54
100 100 100 100 100 100 100 100 100 100 100 100 100 100 100 100 100 67 34 32 68 93 93 39 72 77 91 79 5 5 1 0 0 0 0 0 5 5 5 5 5 11 29
100 100 100 100 100 100 100 100 100 94 100 100 100 100 100 94 100 99 95 100 100 100 100 67 77 34 81 54 5 5 0 0 0 0 0 0 5 5 5 5 5 5 5
100 100 100 100 100 100 100 99 100 100 100 98 97 98 99 100 100 100 100 100 100 100 100 100 57 75 52 5 5 5 0 0 0 0 0 0 5 5 5 5 5 5 5
100 100 100 100 100 100 97 86 89 100 100 87 100 100 97 90 82 100 100 100 100 100 100 100 79 70 12 5 5 5 0 0 0 0 4 28 5 7 6 2 2 4 5
100 100 100 100 100 100 100 100 100 100 100 100 100 100 98 98 100 100 100 100 100 100 100 91 95 61 5 5 5 4 0 0 2 5 5 63 64 90 100 100 96 88 11
100 100 100 100 100 100 100 100 100 100 100 100 100 100 100 100 100 100 100 56 89 100 100 100 100 100 9 5 10 4 2 5 3 2 5 5 54 98 100 100 96 1 2
100 100 100 100 100 98 91 100 100 100 100 100 100 100 100 100 100 100 49 5 53 100 42 100 100 100 11 66 49 5 5 5 5 5 5 5 84 100 100 100 91 3 5
98 84 78 98 100 100 97 100 100 100 100 98 100 100 100 98 81 14 32 43 11 84 100 100 100 100 95 100 6 4 5 29 37 47 12 5 57 100 100 100 94 8 5
82 94 100 100 92 100 98 100 100 74 96 100 99 100 87 10 5 9 14 40 100 100 100 92 100 100 100 20 5 5 5 78 93 30 23 84 54 100 100 100 100 88 6
100 100 100 100 100 96 66 100 100 97 72 54 62 7 5 5 6 6 5 8 86 88 81 8 70 98 42 8 5 5 26 94 100 74 37 69 70 94 100 99 100 100 93

GFSMA_prec_cloud_033.txt.gz
Cloud_Cover
100 100 100 100 96 100 100 100 100 100 82 79 100 5 60 100 5 59 34 2 0 0 1 10 18 14 30 5 3 0 0 1 1 3 5 5 22 100 19 4 5 0 0
100 100 100 100 100 100 100 100 100 100 98 7 5 45 98 100 7 5 5 5 4 0 0 26 11 19 30 9 0 0 0 0 5 4 5 5 35 6 5 11 5 1 2
100 100 100 100 100 100 100 100 100 98 100 99 97 100 36 7 8 2 1 0 0 0 0 0 0 0 0 0 0 0 0 0 0 5 5 5 5 5 10 5 5 5 5
100 100 100 100 100 100 100 99 95 100 88 67 73 26 82 8 2 0 2 0 0 0 0 0 0 0 0 0 0 0 0 0 0 5 5 8 16 78 100 100 99 100 12
100 100 100 100 100 100 100 52 77 100 98 100 40 23 37 3 4 1 0 0 0 0 0 0 0 0 0 0 0 0 0 0 0 5 5 5 5 5 5 21 24 49 5
100 100 100 100 100 100 100 83 73 98 100 93 42 90 6 5 1 5 5 0 0 0 0 0 0 0 0 0 0 0 0 0 0 1 5 5 5 5 5 5 5 5 5
100 100 100 100 100 100 100 100 36 42 100 55 5 5 4 5 5 0 0 0 0 0 0 0 0 0 0 0 0 0 0 0 0 0 5 5 5 5 5 5 5 5 5
100 100 100 100 82 100 100 100 88 6 6 22 36 33 8 11 6 3 4 0 0 0 2 1 2 0 0 0 0 0 0 0 0 4 5 5 5 5 5 5 5 5 5
100 100 97 100 100 100 74 86 56 100 100 62 41 5 5 37 29 5 2 0 0 1 5 5 5 5 5 5 2 5 5 3 0 0 4 5 5 5 5 5 5 5 60
96 100 100 98 7 38 100 100 100 100 69 33 41 75 96 98 100 66 4 2 0 0 4 4 5 5 5 5 5 10 5 5 0 0 0 0 0 1 5 5 5 5 5
100 100 78 58 86 100 100 100 100 100 100 98 99 100 89 90 100 71 9 5 5 4 5 5 67 6 5 5 66 53 5 3 0 0 0 0 0 0 5 5 5 5 5
100 100 100 100 99 100 98 97 100 99 99 100 100 100 100 68 48 49 20 5 5 50 10 5 5 5 5 27 28 42 3 0 0 0 0 0 0 0 3 5 5 5 40
97 100 100 100 100 100 100 100 100 100 100 100 100 100 81 74 98 65 75 60 58 97 52 9 5 5 5 56 62 5 5 5 0 0 0 0 0 0 5 5 5 13 84
100 100 100 100 100 100 100 100 100 100 100 100 100 61 100 98 84 70 74 42 38 82 100 100 94 70 63 49 17 5 5 1 0 0 0 0 0 0 5 5 5 5 59
100 100 100 76 100 100 100 100 100 100 100 100 100 100 100 100 94 60 36 18 100 100 100 100 83 63 32 71 39 5 5 5 0 0 0 0 0 4 5 5 5 5 63
100 100 90 100 100 100 100 100 100 100 100 100 86 100 100 99 94 70 94 100 89 60 50 85 100 100 100 35 14 5 1 5 2 0 0 0 0 0 2 5 5 5 83
100 100 100 100 100 100 100 100 100 100 100 100 83 100 100 100 72 100 100 100 95 100 61 88 100 98 92 70 21 93 60 5 4 0 0 0 0 0 0 4 5 5 8
100 100 100 100 100 100 100 100 100 100 100 100 100 100 99 80 99 99 97 100 100 99 83 76 98 84 49 25 6 6 5 5 0 0 0 0 0 0 0 0 2 5 5
100 100 100 100 100 100 100 100 100 100 100 100 100 100 83 100 97 99 100 95 98 99 98 98 44 84 79 24 40 48 17 5 1 0 0 0 0 1 0 0 0 0 1
100 100 100 100 100 100 100 100 100 80 100 100 100 100 100 100 100 100 100 100 100 100 98 94 80 82 100 59 81 31 5 5 4 5 0 2 5 5 5 5 5 3 4
99 79 100 100 100 100 100 100 100 100 100 100 100 100 100 100 100 100 100 100 100 99 78 85 12 42 80 100 100 69 20 5 80 5 5 5 5 5 5 5 64 100 15
81 100 93 100 89 100 100 100 100 97 93 100 100 100 100 100 100 100 100 100 99 66 58 70 5 13 57 8 91 91 66 87 76 6 5 5 5 5 5 7 96 81 5
50 100 100 100 98 100 100 88 99 100 100 100 100 100 99 100 100 100 100 11 39 93 19 14 5 9 66 55 83 65 86 86 6 5 5 5 5 5 60 41 60 89 5
98 98 100 100 98 95 98 74 100 100 100 100 81 91 51 5 14 57 34 54 56 7 66 15 5 5 90 100 6 5 5 25 28 16 31 16 32 6 32 5 5 30 5
92 100 100 80 46 71 91 99 100 100 77 42 6 5 5 5 36 55 21 7 6 12 5 5 5 6 84 100 99 6 4 5 15 11 36 72 46 10 7 5 5 43 100
86 98 80 93 97 37 13 35 38 28 6 6 13 5 5 7 5 8 46 37 5 5 5 49 7 58 5 4 3 5 5 5 5 5 30 76 69 48 5 10 6 24 5

GFSMA_prec_cloud_039.txt.gz
Cloud_Cover
100 100 100 100 100 100 100 100 100 100 100 100 100 100 97 100 66 88 71 88 100 100 53 35 52 91 28 13 4 0 0 0 0 0 0 0 0 4 7 34 7 6 11
100 100 100 100 100 100 100 100 100 100 100 100 100 100 100 100 100 100 100 63 58 6 18 64 40 46 25 5 2 2 0 0 0 0 0 0 1 8 11 13 1 5 5
100 100 100 100 100 100 100 100 100 100 100 100 100 100 100 100 100 99 23 98 10 95 5 5 5 58 4 0 0 0 0 0 0 0 0 0 0 0 0 0 1 5 5
100 100 100 100 100 100 100 100 100 100 100 100 100 100 100 86 92 100 98 50 96 6 15 36 5 0 0 0 0 0 0 0 0 0 0 0 1 3 5 4 3 5 5
100 99 91 100 100 100 100 100 100 100 100 100 100 100 100 100 27 26 98 95 88 45 6 5 5 4 0 0 0 0 0 0 0 0 0 2 5 5 5 5 5 5 5
100 100 100 100 100 100 100 100 100 100 100 100 100 100 100 100 100 100 63 24 30 6 45 5 5 5 4 3 0 0 0 0 0 0 0 1 5 5 5 5 5 5 5
100 100 97 35 97 100 100 100 100 100 100 100 100 100 100 100 33 5 6 68 40 100 77 99 96 25 5 5 5 0 0 0 0 0 0 0 2 5 5 5 5 5 5
100 100 100 100 100 100 100 100 100 100 100 100 100 96 21 41 73 63 5 30 100 100 100 100 74 83 36 43 14 0 0 0 0 0 0 0 0 1 5 5 5 5 5
100 100 100 100 100 100 100 100 76 96 90 98 55 62 44 74 59 95 90 100 100 100 88 8 99 11 28 72 0 0 0 0 0 0 0 0 0 0 5 5 5 5 5
94 94 76 100 100 90 100 100 100 100 100 95 100 100 99 100 100 99 100 100 46 42 97 99 65 93 82 3 0 0 4 3 0 0 0 0 0 0 5 5 5 5 5
95 100 100 100 74 74 42 61 99 100 100 100 100 100 100 100 100 100 82 100 60 34 76 24 26 5 5 5 3 5 5 0 0 0 0 0 0 0 3 5 5 5 5
57 97 100 100 100 12 24 60 96 100 100 99 100 100 100 100 100 100 93 73 100 96 16 14 6 5 5 5 5 5 5 0 0 0 0 0 0 0 0 3 5 5 5
100 100 98 100 100 100 92 87 80 100 100 100 100 100 100 100 100 100 100 100 100 57 27 47 61 32 14 46 5 5 1 0 4 1 0 0 0 0 4 4 5 5 5
100 100 98 99 100 100 100 100 100 100 100 100 100 100 100 100 100 100 100 94 100 66 82 100 93 14 7 6 5 5 0 1 4 5 1 0 1 5 5 5 5 2 5
100 100 100 100 100 100 68 100 100 100 100 100 100 100 100 100 100 100 100 97 52 21 5 95 100 100 67 11 5 5 5 5 5 4 5 5 5 5 5 5 3 0 0
79 100 100 100 100 100 100 100 100 100 100 100 100 100 100 100 100 100 100 100 84 28 6 5 46 54 58 28 5 5 5 5 5 5 5 5 5 3 0 0 2 3 0
100 100 100 100 100 100 100 100 100 100 100 100 100 100 100 100 100 100 87 100 100 98 67 5 5 5 5 5 40 5 5 5 5 5 5 5 0 0 0 1 1 5 5
100 100 100 100 100 100 100 100 100 100 100 100 100 100 100 100 100 100 96 100 100 100 96 5 5 5 5 5 10 100 99 43 5 5 5 0 0 0 0 0 1 0 0
100 100 100 100 100 100 100 100 100 100 100 99 100 100 100 100 100 89 100 100 93 100 100 73 5 5 5 94 100 100 92 95 99 96 19 58 2 0 0 5 3 0 0
100 100 100 100 100 100 100 100 100 100 100 100 100 100 100 97 96 100 100 56 56 47 73 76 92 44 70 90 98 100 93 50 68 95 93 82 5 5 5 5 3 0 0
100 100 100 100 100 100 100 100 100 100 100 100 100 100 100 100 73 100 100 83 91 100 100 95 95 100 65 12 50 79 74 11 14 100 91 71 43 9 44 14 5 4 0
100 100 100 100 100 100 100 100 100 100 100 100 100 76 84 99 100 28 5 20 17 57 91 92 88 98 43 99 96 99 96 96 90 44 100 100 100 100 100 33 5 5 0
100 64 27 19 46 76 70 100 100 96 66 66 36 10 91 100 48 99 91 32 5 6 49 56 74 73 98 88 100 100 38 12 58 80 100 100 100 100 100 5 5 8 5
4 5 5 6 24 46 17 13 6 17 20 64 100 100 100 79 66 67 16 22 34 76 88 58 33 50 73 92 100 99 6 52 59 94 100 100 100 98 100 5 58 5 2
60 59 42 24 18 17 19 32 61 30 65 99 100 100 73 17 49 5 5 5 18 31 5 5 4 5 67 100 100 82 99 100 100 100 100 100 100 100 68 0 5 5 5
45 7 22 95 100 100 100 81 100 84 83 96 98 49 13 6 5 5 5 5 5 5 5 5 5 28 100 100 11 5 5 100 100 99 100 100 100 100 6 5 5 17 18

GFSMA_prec_cloud_042.txt.gz
Cloud_Cover
89 91 100 99 94 88 100 100 100 100 100 100 100 100 100 85 100 100 100 100 100 100 100 100 96 100 60 17 1 5 5 0 0 0 0 0 5 6 0 5 7 4 5
75 74 99 100 96 92 91 89 100 100 100 87 100 100 100 100 100 100 100 100 100 100 100 62 100 97 71 16 33 6 5 0 0 0 0 0 0 0 0 5 7 5 4
92 100 57 100 100 87 100 100 100 100 100 100 100 100 100 100 100 100 100 100 100 100 28 100 100 30 76 45 5 5 3 5 5 0 0 0 0 0 0 0 1 3 4
86 91 100 58 69 88 95 99 100 100 100 100 100 100 100 100 100 100 91 88 100 100 100 83 100 44 31 6 5 4 2 4 1 0 0 0 0 0 1 3 0 4 5
79 97 80 93 100 100 95 99 98 99 100 100 100 100 100 97 70 100 100 100 97 100 96 98 17 8 40 81 55 5 5 4 2 0 0 0 0 2 2 4 5 5 5
100 100 98 100 100 100 100 100 100 100 100 100 100 100 100 100 100 100 66 82 97 90 100 100 99 100 100 62 19 5 7 7 0 0 0 0 0 0 0 0 5 5 5
80 49 100 81 100 100 100 100 100 100 100 100 100 100 100 100 100 100 100 100 100 100 69 51 95 100 100 6 5 5 5 0 0 0 0 0 0 0 0 4 5 5 5
100 98 91 100 100 100 100 100 100 100 100 100 100 100 100 100 95 77 57 68 97 100 100 100 58 74 98 19 5 5 2 0 0 0 0 0 0 0 0 2 5 5 5
97 84 100 98 100 100 100 100 100 100 100 100 100 100 100 100 86 91 70 78 100 100 90 100 29 100 88 73 11 3 0 0 0 0 2 3 0 0 0 0 5 5 5
100 80 83 58 89 51 28 86 100 77 87 100 98 100 100 100 100 96 28 90 100 100 95 30 16 60 8 89 2 1 0 0 0 3 4 0 0 0 0 0 5 5 5
100 100 100 100 100 100 100 90 100 96 60 11 83 96 100 100 93 100 100 100 100 100 100 91 29 20 13 5 5 5 5 4 1 0 0 0 0 0 0 0 0 4 5
78 81 100 100 98 100 99 90 81 52 34 51 88 89 100 100 100 80 100 100 100 100 100 95 80 58 73 80 5 5 5 5 5 5 1 0 0 0 0 0 0 4 5
100 100 100 100 100 100 100 97 100 68 99 100 63 96 100 100 100 100 100 100 100 100 100 100 87 100 94 88 52 41 86 53 5 5 5 0 0 0 0 0 0 0 0
100 100 100 100 100 100 100 100 100 96 100 100 100 100 100 100 100 100 100 100 100 100 99 96 73 53 67 7 55 19 13 50 94 5 5 5 5 5 0 0 0 0 0
100 90 100 100 100 100 100 100 100 100 100 100 100 100 100 100 100 100 100 100 100 100 100 97 51 37 5 5 5 5 6 13 8 14 10 5 5 5 5 5 5 1 0
95 100 100 100 100 100 100 100 100 100 100 100 100 100 100 100 100 100 100 100 100 100 100 33 82 33 5 5 5 5 5 8 32 33 5 5 5 65 34 13 6 2 2
100 100 100 100 100 100 100 100 100 100 100 100 100 100 100 100 100 100 100 100 100 100 100 95 17 5 5 5 5 5 4 5 5 5 5 9 23 13 54 95 100 76 5
100 100 100 100 100 100 100 100 100 100 100 100 100 100 100 100 100 100 100 100 100 100 100 100 53 52 5 5 5 18 17 70 89 6 84 88 29 5 30 100 100 100 96
100 100 100 100 100 100 100 100 100 100 100 100 100 100 100 100 100 100 100 98 100 100 50 78 41 48 59 10 22 89 59 100 99 100 96 100 100 100 98 99 100 100 100
100 100 100 100 100 100 100 100 100 100 100 100 100 100 100 100 100 100 100 100 100 100 98 96 83 84 39 5 80 73 7 6 26 83 86 100 100 96 100 100 100 100 100
100 100 100 100 100 100 100 100 100 100 100 100 100 100 100 100 100 100 74 56 83 100 99 99 99 54 24 28 22 6 35 59 5 8 100 100 95 39 10 100 100 100 100
100 100 100 100 100 100 100 100 100 100 100 100 100 100 100 99 100 100 100 87 60 10 5 6 94 5 5 6 47 98 99 98 94 44 100 100 5 5 42 98 93 100 100
100 100 100 100 100 100 100 100 100 100 100 100 100 100 100 100 100 87 62 16 5 5 29 61 57 50 10 34 56 49 91 100 100 99 100 31 12 27 5 100 100 100 100
48 100 99 99 100 100 100 97 78 100 98 73 91 100 100 100 100 94 87 84 100 100 100 100 100 100 100 94 31 98 44 9 98 100 34 82 8 60 82 100 100 100 100
65 10 0 0 0 34 11 10 8 10 30 36 85 100 100 100 42 48 46 75 77 99 100 100 100 62 88 100 100 72 99 100 100 41 5 52 67 87 100 100 100 100 81
0 0 0 1 6 64 11 25 97 100 100 96 99 98 67 50 40 60 82 82 35 93 100 100 100 83 100 100 100 100 100 100 100 92 19 54 66 100 100 100 100 100 14

GFSMA_prec_cloud_045.txt.gz
Cloud_Cover
96 31 46 100 76 93 100 96 98 100 100 100 100 100 100 100 100 100 100 100 99 100 100 100 100 100 100 76 97 29 38 75 5 4 1 8 5 0 0 1 1 0 1
97 44 94 97 98 64 49 81 98 100 100 99 100 100 100 100 100 100 100 100 97 100 100 100 100 100 100 92 100 95 82 4 6 5 5 5 2 0 0 0 0 2 0
88 100 97 100 70 100 98 100 90 100 100 100 100 100 96 100 100 100 100 100 100 100 100 100 100 100 100 100 77 77 5 3 5 5 0 5 5 5 3 0 0 0 0
100 98 100 94 97 100 100 100 100 100 100 100 100 100 93 81 100 100 100 100 100 100 100 100 100 100 100 99 99 83 7 5 3 5 6 5 5 4 0 2 3 2 1
73 100 96 100 100 89 100 100 100 100 100 100 100 100 100 100 100 100 100 100 100 100 100 100 100 100 72 33 4 5 5 5 5 16 4 4 3 0 0 0 0 1 5
100 87 90 100 100 100 100 100 100 100 100 100 100 100 100 100 100 100 100 100 100 100 100 100 100 34 27 5 5 5 5 6 84 48 5 0 0 0 0 0 0 0 5
74 100 100 100 96 97 100 100 96 51 100 100 100 100 100 100 100 100 100 100 100 96 79 93 100 24 13 30 53 33 71 7 5 5 1 0 0 0 0 0 0 0 5
93 100 100 81 81 74 100 100 100 100 100 100 100 100 100 100 100 100 100 100 98 82 72 92 37 70 100 100 100 6 7 32 5 5 2 0 0 0 0 0 0 1 5
100 100 100 98 100 100 100 100 100 98 100 98 100 74 100 42 27 68 24 52 97 100 100 100 100 100 100 97 56 64 98 49 5 3 5 1 0 0 0 0 0 1 5
100 100 100 100 100 40 46 99 92 66 99 100 100 99 52 100 8 94 96 84 92 99 100 100 100 100 100 82 100 100 100 12 5 5 5 0 3 0 0 0 0 0 5
91 100 100 100 92 11 67 77 62 96 99 91 87 63 100 82 79 100 100 86 95 92 100 100 100 100 100 100 100 100 75 7 5 5 5 5 4 0 0 0 0 0 4
98 33 84 52 7 33 100 95 97 100 100 100 77 100 73 39 100 92 83 58 100 100 100 100 100 100 100 100 100 92 93 60 86 5 12 5 5 5 1 0 0 0 3
59 58 60 94 100 85 71 94 100 100 100 93 43 60 100 99 94 100 100 100 82 100 100 100 100 100 100 88 88 100 100 100 85 90 99 48 12 5 5 5 4 1 0
100 90 100 95 100 100 100 100 100 100 100 100 94 96 97 100 100 100 100 100 100 100 100 100 100 48 48 100 97 100 99 99 66 62 93 100 100 100 100 69 5 5 2
100 100 100 46 100 100 100 100 100 100 100 100 100 100 100 100 100 100 100 100 100 100 100 100 100 75 100 100 88 66 22 5 5 5 11 100 100 100 88 5 5 52 100
100 90 100 100 100 100 100 100 100 100 100 100 100 100 100 100 100 100 100 100 100 100 100 100 100 100 88 53 6 5 5 5 5 5 11 5 65 99 91 5 75 72 52
100 100 100 100 100 100 100 100 100 100 100 100 100 100 100 100 100 100 100 100 100 100 100 100 100 100 100 70 5 5 5 5 18 100 22 77 100 100 100 100 100 100 100
100 100 100 100 100 100 100 100 100 100 100 100 100 100 100 100 100 100 100 100 100 100 100 100 100 100 100 93 5 22 29 100 5 52 87 100 100 97 99 100 100 100 100
100 100 100 100 100 100 100 100 100 100 100 100 100 100 100 100 100 100 100 100 100 100 100 99 98 97 33 5 5 5 5 6 38 91 100 100 67 98 94 100 100 100 100
100 100 100 100 100 100 100 100 100 100 100 100 100 100 100 100 100 100 100 100 100 89 54 89 80 99 98 23 5 7 7 36 98 100 100 100 60 89 100 100 100 28 69
100 100 100 100 100 100 100 100 100 100 100 100 100 100 100 100 100 100 100 100 100 98 90 26 60 50 17 5 22 5 15 34 100 96 100 100 45 93 100 100 18 63 21
100 100 100 100 100 100 100 100 100 100 100 100 100 100 100 100 100 100 100 100 96 10 7 22 82 20 58 62 5 5 14 5 26 100 100 22 58 17 100 9 5 4 5
100 100 100 100 100 100 100 100 100 97 100 100 100 100 100 100 100 100 100 100 26 10 5 6 57 62 72 18 5 5 77 100 100 100 38 22 100 94 5 5 4 0 7
100 100 100 100 100 100 100 100 100 100 100 100 100 100 100 99 100 100 98 78 97 70 17 23 63 92 18 11 58 87 100 100 100 97 100 98 100 6 5 5 5 50 100
100 100 100 100 100 100 100 100 100 100 100 100 100 100 100 100 100 98 75 88 100 100 100 100 100 100 100 100 84 84 100 100 80 54 100 100 22 30 8 25 5 23 100
65 99 100 100 100 100 100 100 100 100 98 86 99 100 100 100 100 97 75 96 100 100 100 100 100 100 89 100 100 100 100 100 99 97 100 37 6 79 100 41 8 88 100

GFSMA_prec_cloud_048.txt.gz
Cloud_Cover
100 100 91 98 57 99 99 100 67 64 100 100 88 92 96 88 95 98 98 100 100 100 100 100 100 100 100 100 100 100 96 81 80 100 100 22 8 9 0 0 0 0 0
93 96 100 93 99 96 98 100 100 100 100 100 100 100 100 98 100 94 100 100 100 100 100 100 100 100 100 100 100 60 100 100 100 100 10 2 1 4 1 0 0 2 0
100 87 100 92 100 97 66 96 100 100 100 100 100 100 100 99 100 85 98 100 98 100 100 100 100 100 100 100 100 89 7 9 5 5 5 5 0 4 4 4 0 0 0
95 100 100 100 100 97 96 97 100 100 100 100 100 100 100 96 100 100 99 100 100 100 100 100 100 100 100 100 100 100 83 9 5 5 1 5 4 0 1 0 0 0 0
100 100 100 100 100 100 100 100 100 100 100 98 100 100 100 100 100 85 100 100 100 100 100 100 100 100 100 100 95 5 36 6 5 5 5 2 5 5 5 5 0 0 0
100 100 98 100 100 99 100 96 86 100 99 100 100 100 100 100 100 100 100 100 100 100 100 100 100 100 100 100 98 28 21 5 80 5 8 80 71 100 21 5 0 0 0
100 100 100 100 68 56 88 72 99 100 100 97 100 100 100 100 100 100 100 100 100 100 100 35 74 78 99 57 69 13 5 54 5 96 100 100 97 5 4 0 5 0 0
100 100 96 100 100 100 92 64 100 88 100 100 100 100 100 99 98 98 50 57 6 5 66 57 100 100 100 100 100 81 100 100 100 100 100 97 5 1 4 5 0 0 0
100 100 100 100 100 100 93 100 79 100 90 100 100 77 55 88 54 100 100 35 65 27 5 94 98 82 100 100 100 100 100 100 100 100 12 5 5 5 4 0 0 0 0
100 100 100 100 100 90 100 71 98 96 100 70 39 46 90 50 66 18 5 5 33 100 61 100 93 95 100 100 100 100 100 100 42 5 21 6 5 5 5 3 0 0 2
100 100 100 100 84 98 100 98 99 100 90 85 17 68 100 100 100 100 96 100 96 13 54 100 100 100 100 100 100 100 100 50 84 100 100 100 72 5 5 5 0 5 5
100 100 100 100 100 86 100 79 100 71 94 24 65 100 100 100 100 100 100 100 88 100 94 87 95 59 100 100 100 100 100 100 100 100 100 100 99 88 24 26 47 5 5
100 100 100 100 100 100 100 100 100 96 98 82 100 100 100 100 100 100 86 74 100 88 100 100 100 100 100 100 100 100 100 94 100 100 100 100 100 100 100 96 10 11 5
100 100 100 100 100 54 93 91 88 100 100 100 100 100 100 100 100 100 99 93 99 100 100 100 100 100 100 100 100 100 100 100 100 100 98 100 100 86 8 90 100 100 10
97 88 100 100 100 99 49 40 67 100 100 100 100 100 100 99 100 100 100 100 100 100 100 100 100 100 100 100 100 100 100 78 96 99 100 100 30 5 5 5 70 98 97
100 100 100 100 95 93 88 99 99 100 100 100 100 100 100 100 100 100 100 100 100 100 100 100 100 100 100 96 95 91 100 100 100 93 95 48 32 5 5 7 88 98 100
100 100 95 100 100 100 100 100 100 100 100 100 100 100 100 100 100 100 100 100 100 100 100 100 100 100 100 100 100 100 99 60 43 96 95 98 98 70 5 53 100 100 100
87 86 100 100 100 100 100 100 100 100 100 100 100 100 100 100 100 100 100 100 100 100 100 100 100 100 100 100 31 66 28 30 57 66 78 100 100 30 95 100 100 99 100
50 100 100 100 100 100 100 100 98 100 100 100 100 100 100 100 100 100 100 100 100 100 100 100 100 100 31 22 8 8 31 77 72 41 100 100 100 94 100 100 98 100 100
100 98 100 100 100 100 100 100 100 100 100 100 100 100 100 100 100 100 100 100 100 100 100 100 100 100 81 48 5 8 89 80 100 100 100 100 100 100 100 100 100 100 100
98 99 100 100 100 100 100 98 100 100 100 100 100 100 100 100 100 100 100 100 100 100 100 100 100 100 72 10 6 35 96 100 100 81 100 100 86 60 100 96 100 100 100
100 100 100 100 100 100 100 100 100 100 100 100 100 100 100 100 100 98 100 100 100 100 99 100 100 6 61 70 69 43 27 100 69 80 38 100 29 7 71 100 100 100 28
100 100 100 100 100 100 100 100 100 100 100 100 100 93 100 100 100 100 100 100 100 99 88 100 57 51 51 91 98 67 82 82 96 56 42 8 5 5 100 100 100 92 5
100 100 100 100 100 100 100 100 100 100 100 100 100 100 100 100 100 100 100 100 100 100 86 96 85 86 78 86 47 22 33 36 75 76 30 47 5 84 100 100 97 5 5
100 100 100 100 100 100 100 100 100 100 100 100 100 100 100 100 100 100 100 99 86 40 70 100 95 92 63 52 53 6 23 88 22 5 91 19 97 100 97 100 15 4 5
100 100 100 100 100 100 100 100 100 100 100 100 100 100 100 100 100 100 100 84 70 93 100 100 100 100 99 96 79 65 76 26 13 6 100 100 100 100 79 54 5 5 5

GFSMA_prec_cloud_051.txt.gz
Cloud_Cover
100 100 75 70 92 95 95 97 92 34 100 91 86 78 94 98 64 94 100 100 100 100 100 100 100 100 97 100 100 100 90 60 60 89 100 27 76 100 92 3 1 0 0
100 100 100 100 100 83 86 61 69 100 100 98 91 100 93 91 100 100 100 100 100 100 100 100 100 100 100 100 92 45 91 100 77 64 96 59 42 5 0 0 0 0 0
100 100 100 100 84 97 96 89 67 85 88 72 68 100 84 100 98 86 99 100 100 97 100 100 100 100 100 100 100 100 100 100 83 8 5 4 4 5 0 5 4 41 60
100 100 100 100 100 93 63 86 87 67 38 12 55 86 100 100 78 94 100 100 100 100 100 100 100 100 100 100 97 14 16 5 5 5 6 5 5 5 4 92 100 100 7
100 100 98 69 98 86 93 80 100 92 86 88 96 100 100 83 98 100 100 100 94 100 100 100 100 100 100 47 5 5 5 5 5 5 5 5 6 81 100 100 78 4 0
100 88 66 90 99 83 96 94 100 81 93 98 100 100 100 100 74 100 100 100 100 100 100 100 100 97 5 10 33 18 30 31 69 5 51 45 100 100 100 38 1 0 0
100 100 100 100 95 100 94 94 94 99 90 100 100 99 95 88 72 100 100 100 100 100 24 96 7 23 99 94 100 100 100 100 22 5 5 100 100 100 34 0 0 0 5
100 100 90 100 87 96 80 100 99 64 74 77 63 71 99 100 100 100 100 100 90 100 43 28 14 5 94 98 100 100 100 100 98 100 100 100 99 7 5 5 5 5 5
100 100 100 100 92 100 94 98 98 71 74 98 87 91 79 84 30 53 50 61 100 73 5 16 11 6 58 72 99 70 100 100 100 100 100 100 10 5 5 5 5 7 11
100 100 100 100 100 100 100 100 100 100 87 49 100 95 100 76 90 81 99 64 40 5 92 35 23 76 23 70 11 47 100 100 100 100 100 84 13 86 96 72 59 89 95
100 100 100 100 100 100 100 100 100 100 100 98 99 50 78 36 99 59 98 90 98 100 5 83 9 89 29 64 26 100 100 100 100 100 61 100 11 100 100 100 100 100 100
100 100 100 100 100 100 100 100 100 100 76 64 27 90 5 30 99 91 100 100 100 100 73 96 100 75 100 56 100 100 100 65 100 100 100 48 87 100 100 100 98 100 100
100 100 100 100 100 100 100 100 100 100 57 88 47 36 30 21 98 100 100 100 100 95 100 100 100 100 100 100 100 100 100 100 100 100 91 98 100 98 99 100 100 99 100
100 100 100 100 100 100 100 100 100 58 49 38 47 44 76 61 100 100 100 100 100 94 100 100 100 100 100 100 100 100 100 100 100 93 100 100 89 77 94 56 89 66 96
100 100 100 100 100 100 100 96 55 46 39 67 98 100 100 99 100 100 100 100 100 100 100 100 100 100 100 100 100 100 100 100 100 100 100 100 82 100 97 100 94 25 98
99 96 97 100 100 98 100 100 98 100 68 99 100 100 100 100 100 100 100 100 100 100 100 100 100 100 100 100 100 100 100 100 100 100 100 100 71 36 40 86 100 100 100
99 100 94 97 88 100 100 99 100 95 94 100 100 100 100 100 100 100 100 100 100 100 100 100 100 100 100 100 100 98 98 65 65 88 17 11 98 100 100 100 100 100 99
92 100 100 100 100 100 100 100 100 100 100 100 100 100 100 100 100 100 100 100 100 100 100 100 100 100 94 100 100 93 65 23 24 36 5 97 98 100 100 100 100 86 45
8 99 75 69 99 99 100 100 100 100 100 100 99 100 100 100 100 100 100 100 100 100 100 100 84 100 100 100 99 72 22 76 30 22 82 100 100 100 100 98 82 99 100
100 100 86 84 63 86 84 100 100 100 94 100 100 100 100 100 100 100 100 100 100 100 100 100 100 100 100 100 72 63 58 25 88 99 100 100 100 100 100 98 96 80 64
100 100 100 100 98 84 90 97 100 100 100 99 100 100 100 100 100 100 100 100 100 100 100 100 100 100 100 94 80 91 82 100 100 100 97 100 85 79 99 97 100 100 100
6 93 100 100 100 100 100 100 100 100 100 100 100 100 100 100 100 100 100 100 100 100 100 100 100 100 99 70 87 99 97 85 58 100 100 100 25 70 67 100 100 100 59
29 64 89 98 100 100 100 100 100 100 100 100 100 100 100 100 100 100 100 100 100 100 100 100 100 100 90 97 94 84 80 78 84 88 37 31 58 80 100 100 100 95 5
100 98 100 100 100 100 100 100 100 100 100 100 100 100 100 100 100 100 100 100 100 100 100 100 92 78 86 71 30 89 42 100 64 83 80 5 43 99 100 100 100 10 4
100 100 100 100 100 100 100 100 100 100 100 100 100 100 100 100 100 100 100 100 100 100 100 100 100 97 65 71 96 99 100 68 38 51 96 86 93 29 100 100 43 15 5
100 100 100 100 100 100 100 100 100 100 100 100 100 100 100 100 100 100 100 100 100 100 100 100 100 98 94 88 88 77 76 48 32 85 100 10 20 56 54 47 15 19 5

GFSMA_prec_cloud_057.txt.gz
Cloud_Cover
100 100 100 100 100 100 100 100 100 100 100 66 12 62 82 91 95 100 100 100 99 87 67 100 100 100 100 100 100 100 100 90 100 40 100 100 100 100 100 28 58 5 2
100 100 100 100 100 100 100 100 100 100 60 79 16 48 48 92 100 99 100 100 91 96 83 100 100 100 100 100 100 100 99 66 14 92 100 100 100 100 100 24 12 14 0
100 100 100 100 100 100 100 100 100 56 94 20 76 100 100 100 100 100 92 34 95 100 100 100 100 100 100 100 100 100 100 86 98 100 100 100 100 98 58 24 5 5 5
100 100 100 100 100 100 100 100 98 11 9 92 100 100 96 86 96 84 92 76 95 95 100 100 100 100 100 100 100 100 100 100 100 100 100 100 100 100 100 88 5 5 11
100 100 100 100 100 100 100 100 76 13 38 92 49 100 100 36 49 82 42 12 62 100 100 100 100 100 100 100 100 100 100 100 100 100 100 99 98 96 31 15 5 6 100
100 100 100 100 100 100 98 93 77 70 92 100 86 38 43 47 66 23 62 71 100 98 100 95 100 100 100 100 100 100 100 100 100 100 100 69 24 36 5 5 5 70 100
100 100 100 100 100 100 100 99 100 98 59 100 95 80 96 62 95 66 93 100 81 100 67 100 100 100 100 100 100 100 100 100 100 100 100 98 61 64 5 5 100 100 100
100 100 100 100 100 100 100 89 76 100 100 86 98 100 51 63 78 83 100 79 97 100 100 100 100 100 100 96 22 6 8 99 29 61 76 22 5 10 82 100 100 100 35
100 100 100 100 100 100 100 99 100 100 100 100 100 33 64 62 97 100 100 100 100 100 100 100 85 94 45 99 91 16 56 48 95 13 58 71 77 94 100 100 100 26 5
100 100 100 100 100 100 100 100 100 99 100 72 88 100 100 100 100 100 100 100 100 100 100 100 96 81 95 23 62 92 40 96 38 5 63 90 95 100 100 100 95 100 100
100 100 100 100 100 100 100 100 100 97 100 100 100 100 100 100 100 100 100 100 100 100 100 100 100 100 100 82 82 95 100 94 85 73 99 96 80 100 100 100 79 93 93
100 100 99 100 100 100 100 100 100 100 100 100 100 100 100 100 100 100 100 100 100 100 100 100 26 100 100 100 100 100 100 100 100 99 100 100 100 100 100 100 5 46 69
100 100 100 100 100 100 100 100 100 100 100 100 100 100 100 100 100 100 100 100 100 72 90 89 100 100 100 100 100 100 100 100 100 100 100 100 100 100 100 94 8 45 88
100 100 100 100 100 100 100 100 100 100 100 100 100 100 100 100 100 100 100 100 53 34 92 82 100 96 100 100 100 100 100 100 100 100 100 100 100 100 100 14 9 61 42
100 100 100 100 100 100 100 100 100 100 100 100 100 100 100 100 100 100 86 41 19 73 34 94 100 100 100 100 100 100 100 100 100 100 100 100 100 99 8 81 5 100 22
100 100 100 100 100 100 100 100 100 100 100 100 100 100 100 100 100 88 51 56 97 100 100 100 100 100 100 100 100 100 100 100 100 100 100 100 100 45 53 41 6 16 5
100 100 100 100 100 100 100 100 100 100 100 100 100 100 100 100 100 100 100 100 100 100 100 100 98 83 92 100 100 100 100 100 100 100 100 99 24 98 83 34 54 9 7
26 0 1 4 10 16 18 20 27 100 71 100 100 100 100 100 100 100 100 100 100 100 100 100 100 100 100 100 100 100 100 100 100 100 92 38 97 100 99 98 99 85 8
0 0 8 5 4 0 2 2 5 5 8 12 75 93 100 100 100 100 100 100 100 100 100 100 100 100 100 100 100 100 100 100 100 100 100 98 100 100 42 26 72 51 100
2 0 3 2 2 0 0 5 3 4 10 17 5 100 58 100 100 99 100 100 100 100 100 100 100 100 100 100 100 100 100 100 100 100 100 100 100 100 99 100 100 100 100
4 0 0 0 0 2 17 26 75 18 72 61 92 100 19 54 60 96 100 100 100 100 100 100 100 100 100 100 100 100 100 100 100 100 100 100 99 100 100 100 100 100 100
5 5 5 5 6 3 0 0 5 4 7 5 37 100 100 100 100 100 100 100 100 100 100 100 100 100 100 100 100 100 100 100 100 100 100 94 100 100 100 100 100 100 100
85 64 17 5 23 60 12 92 47 10 49 50 46 70 88 96 100 100 100 100 100 100 100 100 100 100 100 100 100 100 100 100 100 100 100 100 100 100 100 100 100 100 100
100 100 56 23 6 15 49 55 95 89 72 49 60 74 100 100 100 100 100 100 100 100 100 100 100 100 100 100 100 100 100 100 100 100 100 100 100 100 100 100 100 100 100
100 100 100 100 100 100 100 100 100 100 100 100 100 100 100 100 100 100 100 100 100 100 100 100 100 100 100 100 100 100 100 100 100 100 100 100 100 100 100 100 100 100 100
100 100 88 100 100 100 100 100 100 100 100 100 100 100 100 100 100 100 100 100 100 100 100 100 100 100 100 100 100 100 100 100 100 100 100 100 100 100 100 100 100 100 100

GFSMA_prec_cloud_060.txt.gz
Cloud_Cover
100 100 100 100 100 100 100 100 100 100 100 100 100 92 96 76 70 37 98 100 100 100 100 80 24 95 50 96 49 91 91 94 100 100 100 100 47 33 94 100 100 100 100
100 100 100 100 100 100 100 100 100 100 100 100 100 100 100 100 100 100 100 100 98 78 47 100 100 100 95 98 100 89 99 96 100 100 100 100 100 100 100 100 100 100 100
100 100 100 100 100 100 100 100 100 100 100 100 82 74 6 16 100 100 100 100 99 40 99 100 100 81 87 100 100 100 39 98 99 100 100 100 100 100 100 100 96 100 100
100 100 100 100 100 100 100 100 100 100 100 100 100 66 94 82 100 100 98 97 100 99 72 78 72 65 100 100 98 86 98 26 99 100 100 100 100 100 100 100 100 100 83
100 100 100 100 100 100 100 100 100 100 100 100 100 100 100 100 100 100 100 60 44 64 85 98 97 100 100 100 100 100 100 100 100 100 100 100 100 100 100 100 49 5 3
100 100 100 100 100 100 100 100 100 100 100 100 100 100 100 100 16 75 85 51 66 87 75 97 100 100 100 100 100 100 100 100 100 100 100 100 100 100 95 22 1 0 75
100 100 100 100 100 100 100 100 100 100 100 100 100 100 100 65 94 68 96 47 87 9 92 100 100 100 100 100 100 100 100 100 100 77 16 5 5 5 2 5 2 11 100
100 100 100 100 100 100 100 100 100 100 100 100 100 100 86 71 97 86 28 20 6 91 100 100 100 100 100 100 100 80 5 5 8 79 8 4 4 3 5 93 71 38 25
100 94 100 100 100 100 100 100 100 100 100 100 100 94 75 100 37 16 53 43 100 100 100 100 100 100 100 100 100 15 22 41 5 5 5 5 7 24 86 74 25 5 42
100 99 100 100 100 100 100 100 100 98 100 100 100 100 99 39 65 100 96 100 100 100 100 100 100 100 100 100 100 52 26 44 96 20 86 97 93 100 100 97 99 99 100
100 100 100 100 100 100 100 100 94 100 100 100 100 99 61 67 26 100 100 100 100 100 100 100 100 100 100 100 67 87 100 19 38 100 100 100 100 100 99 100 93 100 100
100 100 100 100 100 100 100 100 100 100 100 100 100 97 100 100 100 100 100 100 100 100 100 100 100 100 100 87 27 22 43 94 100 100 100 70 76 98 100 100 100 100 100
100 100 100 100 100 100 100 100 100 100 100 100 100 100 100 100 100 100 100 100 100 100 100 100 100 100 17 11 6 66 88 61 90 88 99 100 100 100 100 100 100 100 100
100 99 100 100 99 100 100 100 100 100 100 100 100 100 100 100 100 100 100 100 100 100 100 100 100 97 14 37 5 5 20 94 92 100 100 100 100 100 100 100 100 100 99
100 100 100 100 100 100 100 100 100 100 100 100 100 100 100 100 100 100 100 100 100 100 100 100 73 70 96 93 74 100 100 100 100 100 100 100 100 100 100 100 100 100 38
100 100 100 100 100 100 100 100 100 100 100 100 100 100 100 100 100 100 100 100 100 85 28 100 100 100 100 100 100 100 100 100 100 100 100 100 100 100 100 100 100 100 77
100 100 100 100 100 100 100 100 100 100 100 100 100 100 100 100 100 100 97 100 100 100 71 100 100 100 100 100 100 100 100 100 100 100 100 100 100 100 100 100 99 86 33
54 100 98 100 100 100 100 100 100 100 100 100 100 100 100 96 89 100 100 99 100 100 94 100 100 100 100 96 100 100 100 100 100 100 100 100 100 86 95 100 100 77 100
0 0 0 0 0 0 3 22 32 34 3 12 49 41 88 66 25 51 97 89 100 100 100 100 100 100 100 99 100 100 100 100 98 57 100 100 100 100 100 100 100 100 100
0 0 0 0 0 0 0 0 0 0 0 0 2 3 5 30 69 45 83 66 98 100 100 100 100 100 100 98 100 100 96 94 100 100 100 100 100 100 100 100 100 100 100
25 15 17 2 0 3 0 0 0 0 0 2 16 5 3 9 14 30 100 100 98 100 100 100 100 100 100 100 100 100 99 100 100 100 100 100 99 100 100 100 100 100 100
98 33 28 22 18 19 5 5 3 4 24 30 32 65 29 90 66 31 55 100 100 100 100 100 100 100 100 100 100 100 100 100 100 100 100 100 100 100 100 100 100 100 100
35 28 20 87 46 52 96 28 25 44 37 43 41 49 39 32 95 100 100 100 100 100 100 100 100 100 100 100 100 100 100 100 100 100 100 100 100 100 100 100 100 100 100
5 32 39 38 95 95 100 99 98 100 89 80 92 80 82 81 92 100 100 100 100 100 100 100 100 100 100 100 100 100 100 100 100 100 100 100 100 97 100 100 100 100 100
42 82 41 100 59 81 99 88 100 100 100 100 100 100 100 100 100 100 100 100 100 100 100 100 100 100 100 100 100 100 100 100 100 100 100 100 98 91 100 98 99 89 100
64 100 100 100 100 100 100 100 100 100 100 100 100 100 100 100 100 100 100 100 100 100 100 100 100 100 100 100 100 100 100 100 100 100 100 100 100 100 100 99 100 73 80

GFSMA_prec_cloud_066.txt.gz
Cloud_Cover
100 100 100 100 98 100 78 85 96 82 100 100 100 100 100 100 100 100 100 100 100 100 97 100 100 100 99 90 36 76 83 42 32 93 79 100 96 57 65 100 100 100 100
100 100 81 100 100 100 97 100 99 92 100 100 100 100 99 100 100 100 100 100 100 100 100 100 100 100 100 100 65 80 72 5 65 82 99 100 100 100 99 100 100 100 100
100 100 96 100 100 100 100 100 100 74 100 100 100 99 90 100 100 100 100 100 100 100 100 100 100 100 100 100 94 9 85 99 99 100 100 100 100 100 100 100 100 100 100
100 100 100 100 100 100 100 100 100 98 98 100 100 100 100 100 100 100 100 100 100 100 100 100 100 100 100 100 86 5 47 100 100 100 100 100 100 100 100 100 83 75 80
100 100 100 100 100 100 100 100 100 96 87 98 100 100 89 100 100 100 100 100 100 100 100 100 100 100 100 100 97 99 95 100 100 100 100 100 100 100 100 100 95 100 97
100 100 100 100 100 100 98 100 100 100 88 100 100 100 100 100 100 100 100 100 100 100 100 100 100 100 100 100 100 100 100 100 100 100 100 100 100 100 100 96 81 24 5
100 100 100 100 100 100 100 100 100 100 100 100 100 100 100 100 100 100 100 100 100 100 100 76 100 86 100 100 100 100 100 100 100 100 100 100 100 100 100 14 8 13 41
100 100 100 100 100 100 100 100 100 95 100 100 100 100 100 100 100 100 100 100 88 92 82 76 91 100 100 100 100 100 100 100 80 98 100 100 100 100 94 8 86 98 61
100 100 100 100 100 100 100 100 98 100 100 100 100 100 100 100 100 100 100 93 100 100 92 87 100 100 100 100 100 100 100 97 43 100 100 100 100 100 100 75 46 66 16
100 100 100 100 100 100 100 100 100 100 100 100 100 100 100 100 100 100 100 100 94 84 100 99 96 100 100 37 95 86 20 53 100 100 100 100 100 100 100 100 100 90 98
100 100 100 100 100 100 100 100 100 100 100 100 100 100 100 100 91 98 100 100 100 100 100 100 100 86 41 91 88 91 43 100 100 100 100 100 100 100 100 89 84 100 100
100 100 100 100 100 100 100 100 100 100 100 100 100 100 100 100 100 100 100 100 100 93 100 100 100 100 100 100 92 97 100 100 100 100 100 100 100 100 100 100 100 100 100
100 100 100 100 100 100 100 100 100 100 100 100 100 100 100 100 100 100 100 100 100 100 100 100 100 100 100 100 100 100 100 100 100 100 100 98 100 100 100 100 100 100 100
100 100 100 100 100 100 100 100 100 100 100 100 100 100 100 100 100 95 100 99 100 100 100 100 100 100 100 95 100 100 100 100 100 100 100 100 100 100 100 100 100 100 100
99 100 100 100 100 100 100 100 100 100 100 100 100 100 100 100 100 100 100 100 100 100 100 100 100 100 100 100 100 100 100 100 100 100 100 100 100 100 100 100 100 100 100
68 100 100 100 100 99 100 100 99 100 100 85 77 100 100 100 100 100 100 100 100 100 100 100 100 100 100 100 100 100 100 77 100 95 90 100 100 100 82 98 94 100 93
4 74 100 100 100 100 100 100 91 83 93 72 88 88 100 100 100 100 100 100 97 100 100 100 100 100 100 77 36 83 100 100 100 100 100 100 100 74 60 100 100 100 100
0 5 4 30 94 100 100 100 100 99 86 100 100 100 100 100 100 100 100 100 100 100 100 100 33 7 12 77 47 91 82 84 100 100 100 100 100 83 97 100 100 100 100
78 20 1 4 5 5 5 53 96 95 68 79 85 92 90 91 70 78 79 5 5 5 6 21 5 58 18 20 44 78 80 90 100 97 87 99 100 100 100 100 100 100 100
100 100 82 12 0 0 3 5 3 4 5 4 0 0 0 3 0 3 5 5 5 50 19 37 39 47 81 76 66 59 78 99 90 100 100 100 100 100 100 100 100 100 100
19 96 100 100 92 22 44 2 0 0 0 0 0 3 3 3 0 5 3 37 99 99 96 84 100 100 100 100 100 86 97 100 96 100 100 100 100 100 100 100 100 100 100
23 22 26 100 100 100 24 2 5 2 5 25 35 11 35 9 5 5 5 5 5 7 40 96 100 100 100 100 97 100 100 100 100 100 100 100 100 100 100 100 100 100 100
67 61 47 89 100 100 100 31 5 2 3 6 5 5 5 37 75 30 62 71 93 100 100 100 100 100 100 100 100 100 100 100 100 100 100 100 100 100 100 100 100 100 100
84 76 47 52 74 93 100 78 88 100 100 74 17 35 95 17 36 100 80 98 100 100 100 100 100 100 100 100 100 100 100 100 100 100 100 100 100 100 100 100 100 100 100
100 100 67 96 98 100 100 99 100 100 100 100 100 100 100 100 100 100 100 100 100 100 100 100 100 100 100 100 100 100 100 100 100 100 100 100 100 100 100 100 100 100 100
100 100 100 100 100 98 100 100 100 100 100 100 100 100 100 100 100 100 100 100 100 100 100 100 100 100 100 100 100 100 100 100 100 100 100 100 100 100 100 100 100 100 100

GFSMA_prec_cloud_069.txt.gz
Cloud_Cover
100 100 100 91 100 100 91 35 89 100 93 73 99 100 100 100 100 100 100 100 100 100 100 100 100 100 100 100 100 100 100 100 5 52 54 6 99 100 88 59 92 100 100
100 100 100 89 100 100 92 77 98 100 98 70 99 100 100 100 100 100 92 100 100 100 100 100 100 100 100 100 100 100 94 80 78 34 14 69 100 100 100 100 100 100 100
99 100 100 100 100 94 60 80 100 100 98 15 90 100 100 100 100 100 100 100 100 100 100 100 100 100 100 100 100 99 85 100 100 46 100 100 100 100 100 100 100 100 100
100 100 100 100 77 51 100 100 100 99 100 67 95 100 100 100 100 100 100 100 100 100 100 100 100 100 100 100 100 28 94 100 100 76 97 100 99 97 81 84 100 66 100
100 100 100 100 100 100 100 100 100 93 100 100 100 100 100 100 100 100 100 100 100 100 100 100 100 100 100 100 100 100 100 100 100 80 77 100 82 84 99 100 100 100 22
100 100 100 100 100 100 100 100 100 95 100 100 94 93 87 100 100 100 100 100 100 100 100 100 100 100 100 100 100 100 100 100 100 76 89 100 100 99 100 93 100 97 26
100 100 100 100 100 94 98 100 100 98 99 100 95 100 94 100 100 100 100 100 100 100 100 100 100 100 100 100 100 100 100 100 72 54 100 100 89 100 100 93 5 5 10
100 100 100 100 100 100 100 100 82 99 100 100 100 100 100 100 100 100 100 100 100 100 100 100 100 100 100 100 100 100 100 100 84 100 100 100 90 100 100 100 17 98 68
100 100 100 100 100 100 100 100 100 99 91 99 100 100 100 100 100 100 100 100 100 100 100 100 100 100 100 100 100 90 100 100 100 100 100 97 100 100 100 100 100 100 100
100 100 100 100 100 100 100 100 98 94 100 100 100 100 100 100 100 100 100 100 100 100 100 100 84 98 100 100 100 100 100 96 100 100 96 100 100 100 100 100 100 100 100
100 100 100 100 100 100 100 100 100 100 95 100 100 100 100 100 100 100 100 100 100 100 100 100 90 100 100 100 97 100 99 36 100 100 100 100 100 100 100 100 100 100 100
100 100 100 100 100 100 100 100 100 100 100 100 100 100 100 100 100 100 100 100 100 100 85 100 100 98 96 99 98 98 100 100 100 100 100 100 100 100 100 100 100 100 100
100 100 100 100 100 100 100 100 100 100 100 100 100 100 100 100 100 100 100 100 100 100 100 100 100 90 72 50 92 100 61 100 100 100 100 100 100 100 100 100 100 100 100
98 100 100 100 100 100 100 100 100 100 100 100 100 100 100 100 100 100 100 100 100 100 100 100 100 100 100 99 100 100 100 100 100 100 100 100 100 100 100 98 100 99 100
100 100 100 100 100 100 100 100 100 100 100 100 100 100 100 100 100 100 100 99 97 100 100 100 100 100 100 100 100 100 100 100 100 100 100 100 100 100 100 100 100 100 100
94 37 97 77 100 100 100 100 100 100 100 100 100 100 100 100 100 100 100 100 100 100 100 100 91 100 100 100 100 100 100 100 100 100 99 65 93 95 100 100 100 83 44
37 48 100 40 95 100 100 100 100 100 99 100 100 99 100 100 100 100 100 100 100 100 100 100 100 100 100 100 100 85 76 55 9 5 98 98 96 100 100 100 99 81 100
2 37 79 100 100 100 100 100 99 98 98 88 54 83 100 100 100 100 100 100 100 100 100 100 100 36 8 5 5 5 5 5 5 5 99 100 73 100 100 100 100 100 100
75 46 18 0 2 50 96 100 100 100 100 100 92 80 99 100 100 79 100 100 100 100 100 100 100 87 9 6 6 13 5 20 72 96 99 77 84 92 100 100 100 100 100
82 100 92 23 5 2 0 0 23 69 80 60 77 13 9 8 5 5 6 6 38 100 100 100 100 99 44 42 73 18 42 34 33 81 87 76 95 100 100 100 100 100 100
80 53 54 100 100 64 6 3 0 0 0 0 0 0 1 0 2 0 0 0 1 3 32 39 72 96 69 98 88 51 100 100 100 98 77 90 98 100 100 100 100 100 100
100 100 100 100 78 100 100 98 63 17 3 69 98 40 5 6 5 52 55 100 98 5 54 50 20 97 100 100 100 100 100 100 100 98 98 100 100 100 100 100 100 100 100
100 100 100 100 99 99 100 100 96 100 100 94 77 14 55 97 97 88 98 82 76 56 58 96 100 98 97 100 100 100 100 100 100 100 100 100 100 100 100 100 100 100 100
100 100 100 100 100 100 100 100 100 100 100 100 100 84 51 24 28 95 100 99 100 99 100 100 100 100 100 100 100 100 100 100 100 100 100 100 100 100 100 100 100 100 100
100 100 100 100 100 100 100 100 100 100 100 100 100 100 100 100 100 100 100 92 100 100 100 100 100 100 100 100 100 100 100 100 100 100 100 100 100 100 100 100 100 100 100
100 100 100 100 100 100 100 100 100 100 100 100 100 100 100 100 100 100 100 100 100 100 100 100 100 100 100 100 100 100 100 100 100 100 100 100 100 100 100 100 100 100 100

GFSMA_prec_cloud_072.txt.gz
Cloud_Cover
100 89 100 100 100 100 100 38 96 76 99 88 57 100 100 96 99 100 100 100 100 100 100 100 100 100 100 100 100 100 100 100 100 56 90 79 33 100 31 72 100 100 100
100 100 100 100 100 100 100 94 100 92 98 69 79 82 98 100 100 100 100 100 100 100 100 100 100 100 100 100 100 100 100 100 100 100 97 59 95 79 12 96 100 100 100
100 100 100 100 100 100 100 100 75 98 72 6 62 90 99 100 100 100 100 99 100 98 100 100 100 100 100 100 100 100 100 100 100 100 52 86 49 100 85 100 100 100 100
100 100 100 100 100 100 100 100 100 65 67 66 82 74 100 100 100 100 62 12 95 100 100 100 100 100 100 100 100 100 100 100 100 100 100 100 99 100 100 100 100 100 100
100 100 100 100 100 100 100 100 100 95 100 91 100 79 96 100 100 99 98 100 100 100 100 100 100 100 100 100 100 100 100 100 100 100 100 100 100 100 100 98 100 100 100
100 100 100 100 100 100 100 100 100 100 96 73 93 75 91 100 100 95 35 92 100 100 100 100 100 100 100 100 100 100 100 100 99 100 99 100 100 100 100 100 100 100 100
100 100 100 100 100 100 100 100 100 100 100 70 63 92 90 100 100 100 96 96 95 96 100 100 100 100 100 100 100 100 100 100 100 100 100 100 100 100 100 98 72 100 100
100 100 100 100 100 100 100 100 100 100 88 100 100 100 84 85 88 100 100 100 100 100 100 100 100 100 100 100 100 100 100 89 100 100 100 100 100 100 98 100 79 100 100
100 100 100 100 100 100 100 100 100 100 100 100 100 70 96 100 100 100 100 100 100 100 100 100 100 100 100 100 100 100 89 100 100 100 89 100 100 100 100 97 100 100 100
100 100 100 100 100 100 100 100 100 100 100 100 97 85 100 99 100 100 100 100 100 100 100 100 100 100 99 100 100 100 100 100 100 97 100 99 100 92 100 98 100 100 100
100 100 100 100 100 100 100 100 100 100 100 100 100 85 100 99 100 100 100 100 100 100 100 100 100 100 100 100 100 100 100 100 99 97 100 100 93 78 92 100 100 100 100
100 100 100 100 100 100 100 100 100 100 100 100 100 100 100 100 100 100 100 100 100 100 100 100 100 100 100 100 100 100 98 100 100 100 100 100 100 100 100 100 100 100 100
100 100 100 100 100 100 100 100 100 100 100 100 100 100 100 100 100 100 100 100 100 100 100 100 100 100 100 100 100 100 100 100 100 100 100 100 100 100 100 100 100 100 62
100 100 100 100 100 100 100 100 100 100 100 100 100 100 100 100 100 100 100 100 100 100 100 100 100 100 100 100 93 100 100 100 100 100 100 100 100 100 100 92 94 100 65
100 100 100 100 100 100 100 100 100 100 100 100 100 100 100 100 100 100 100 100 100 100 100 100 100 100 100 100 100 100 100 100 100 100 100 100 100 100 97 89 46 56 100
100 100 100 100 100 100 100 100 100 100 100 100 100 100 100 100 100 100 100 100 100 100 100 100 100 100 100 100 100 100 100 100 100 100 100 100 100 85 50 5 13 64 99
100 100 100 94 100 86 100 100 100 100 100 100 100 100 100 100 100 100 100 100 100 100 100 100 100 100 100 100 94 100 95 88 82 100 83 36 32 5 7 22 72 80 96
100 100 100 71 26 68 100 100 100 100 100 100 100 100 100 100 100 100 100 100 100 100 100 100 67 50 85 100 100 100 59 8 5 69 7 66 92 97 83 97 100 100 100
0 21 45 89 100 60 48 26 47 94 100 28 27 35 19 55 63 93 100 98 64 72 100 100 96 100 100 100 100 94 12 55 67 48 60 54 64 76 96 85 71 99 96
1 0 18 40 76 98 100 67 16 0 1 23 81 97 99 86 84 99 97 54 10 87 99 100 100 93 90 62 87 32 4 28 15 5 18 71 57 89 100 74 67 96 71
100 100 97 68 53 91 100 94 52 34 0 1 0 0 0 1 2 9 61 24 10 5 16 9 16 16 21 50 100 100 97 99 85 21 56 100 77 100 100 100 100 100 100
100 100 100 100 100 100 100 91 95 64 59 63 15 5 2 5 5 5 5 57 71 49 64 69 5 8 5 10 89 99 100 100 100 100 11 86 100 100 100 100 100 100 100
100 100 100 100 100 100 100 100 100 100 100 98 70 86 97 92 53 18 40 95 92 100 96 99 96 91 90 100 100 100 100 100 100 100 100 100 100 100 100 100 100 100 100
100 100 100 100 100 100 100 100 100 100 100 100 100 100 100 100 100 100 100 100 99 100 100 80 100 100 100 100 100 100 100 100 100 100 100 100 100 100 100 100 100 100 100
100 100 100 100 100 100 100 100 100 100 100 100 100 100 100 100 100 100 100 100 100 100 100 100 100 100 100 100 100 100 100 100 100 100 100 100 100 100 100 100 100 100 100
100 100 100 100 100 100 100 100 100 100 100 100 100 100 100 100 100 100 100 100 100 100 100 100 100 100 100 100 100 100 100 100 100 100 100 100 100 100 100 100 100 100 100

GFSMA_prec_cloud_078.txt.gz
Cloud_Cover
100 100 100 100 100 100 100 100 100 100 97 80 60 34 95 58 16 100 100 54 77 100 92 100 100 100 100 100 100 100 100 100 100 100 100 100 100 100 100 62 30 100 85
100 100 100 100 100 100 100 100 83 92 99 88 65 85 98 100 100 99 100 73 100 99 100 100 100 100 100 100 100 100 100 100 100 100 100 100 100 100 100 100 100 100 100
100 100 100 100 100 100 100 100 90 100 99 100 58 94 98 100 100 98 84 100 100 100 93 100 100 100 100 100 100 100 100 100 100 100 100 100 100 100 100 100 100 91 100
100 100 100 100 100 100 100 100 100 100 97 100 100 90 94 88 100 100 100 99 98 100 100 100 100 100 100 100 100 100 100 100 100 100 100 100 100 100 100 100 100 100 100
100 83 100 100 100 100 100 100 100 99 100 99 100 100 88 89 92 100 100 79 80 100 76 96 100 100 100 100 100 100 100 100 100 100 100 100 100 100 100 100 100 100 100
100 100 100 100 100 100 100 100 100 100 100 90 100 96 98 88 89 85 100 100 100 100 100 43 37 94 89 97 100 100 100 100 100 100 100 100 100 100 100 100 100 92 100
100 100 100 100 100 100 100 100 100 100 100 100 100 100 100 100 99 100 100 86 100 94 89 100 61 8 20 100 100 100 100 100 100 100 100 100 100 100 100 100 100 100 100
82 100 100 100 100 100 100 100 100 100 100 100 95 100 100 100 100 95 98 87 97 91 100 100 99 100 99 99 100 100 100 100 100 100 100 100 100 100 100 100 100 100 100
96 100 100 100 100 100 100 100 100 100 100 100 100 100 100 85 100 100 100 100 92 86 100 100 79 88 100 64 100 100 100 100 100 100 100 100 100 100 100 100 100 100 100
100 100 100 100 100 100 100 100 100 100 100 100 100 100 100 90 96 100 100 100 99 98 97 99 98 100 100 100 100 100 100 100 100 100 100 100 100 100 100 100 92 100 100
100 100 100 100 100 100 100 100 100 100 100 100 100 100 100 100 100 99 99 100 100 100 100 100 100 97 100 100 100 100 100 100 100 100 100 100 100 100 100 100 100 100 100
100 100 100 100 100 100 100 100 100 100 100 100 100 100 100 100 100 100 100 100 100 100 100 100 100 100 100 100 100 100 100 100 99 100 100 100 100 100 100 53 80 70 100
100 100 100 100 100 100 100 100 100 100 100 100 100 100 100 100 100 100 100 100 100 100 100 100 100 100 100 100 100 100 100 100 100 100 100 100 100 99 100 100 84 93 71
100 100 100 100 100 100 100 100 100 100 100 100 100 100 100 100 100 100 100 100 100 100 100 100 100 100 100 100 100 100 100 100 100 100 100 100 100 100 100 87 100 88 6
100 100 100 100 100 100 100 100 100 100 100 100 100 100 100 100 100 100 100 100 100 100 97 100 99 100 100 100 100 100 100 100 100 100 100 100 100 100 100 93 88 59 67
100 100 100 100 100 100 100 100 100 100 100 100 100 100 100 100 100 100 100 100 100 100 100 100 100 100 96 100 100 100 100 100 100 100 100 100 100 100 100 100 20 70 44
100 100 100 100 100 100 100 100 100 100 100 100 100 100 100 100 100 100 100 100 100 100 100 100 100 100 78 76 100 100 100 100 100 100 100 100 100 100 88 15 22 74 11
100 100 100 93 90 100 100 100 100 100 100 100 100 100 100 100 100 100 100 100 100 100 100 100 100 100 100 100 100 100 100 100 100 100 100 100 100 94 100 100 92 69 69
100 100 100 100 100 100 100 100 100 100 100 100 100 94 100 100 100 100 100 100 100 100 100 100 100 100 100 100 100 100 100 100 99 100 100 100 88 43 13 5 5 5 99
100 100 100 100 100 100 100 100 100 100 81 100 100 75 91 66 76 74 98 77 68 84 54 99 24 40 36 14 37 27 6 6 7 35 5 5 5 5 5 5 5 5 7
98 100 100 100 100 100 100 100 100 100 100 100 100 100 100 98 93 57 72 70 70 94 62 39 58 7 5 5 5 10 30 34 75 36 5 6 69 48 94 100 94 100 100
100 100 100 100 100 100 100 100 100 100 100 100 100 100 100 100 100 100 100 100 100 98 100 98 100 100 100 100 100 100 100 100 97 100 100 100 99 100 100 100 100 100 100
100 100 100 100 100 100 100 100 100 100 100 100 100 100 100 100 100 100 100 100 100 100 100 100 100 100 100 100 100 100 100 100 100 100 100 100 100 100 100 100 100 100 100
100 100 100 100 100 100 100 100 100 100 100 100 100 100 100 100 100 100 100 100 100 100 100 100 100 100 100 100 100 100 100 100 100 100 100 100 100 100 100 100 100 100 100
100 100 100 100 100 100 100 100 100 100 100 100 100 100 100 100 100 100 100 100 100 100 100 100 100 100 100 100 100 100 100 100 100 100 100 100 100 100 100 100 100 100 100
100 100 100 99 96 82 100 100 100 100 100 100 100 100 100 100 89 100 100 100 100 100 100 100 100 100 100 100 100 100 100 100 100 100 100 100 100 100 100 100 100 100 100

GFSMA_prec_cloud_084.txt.gz
Cloud_Cover
30 100 100 100 100 100 100 100 100 100 100 96 100 32 34 98 73 74 75 98 98 100 91 100 70 98 80 90 100 100 100 100 100 100 100 100 100 100 100 100 100 100 100
25 100 100 100 100 100 100 100 100 100 100 100 100 100 42 88 72 82 61 70 100 100 52 94 100 100 91 38 100 100 100 100 100 100 100 100 100 100 100 100 100 100 100
90 100 100 100 100 100 100 100 100 100 100 100 100 100 96 72 100 45 94 100 100 94 89 100 92 96 9 52 100 100 100 100 100 100 100 100 100 100 100 100 100 100 100
88 100 100 100 100 100 100 100 100 100 100 100 100 100 100 99 100 10 100 100 100 100 100 100 100 100 49 100 100 100 100 64 100 100 100 100 100 100 100 100 100 100 100
12 94 100 100 100 100 100 100 100 100 100 100 100 100 100 97 97 98 85 99 100 100 100 100 74 100 100 100 90 31 32 92 100 100 100 100 100 100 100 100 100 100 100
11 23 100 100 100 100 100 100 100 100 100 100 100 100 100 100 77 100 100 100 99 100 100 100 100 100 92 85 20 100 100 81 100 100 100 100 100 100 100 100 100 100 100
9 33 62 57 100 100 100 100 100 100 100 100 100 100 100 100 100 100 100 100 100 100 98 100 100 100 52 69 16 5 60 100 99 70 96 100 100 100 100 100 100 100 100
85 54 65 96 100 100 100 100 100 100 100 100 100 100 100 100 100 100 100 100 98 69 100 100 100 100 100 100 100 39 53 44 98 100 100 100 100 100 100 100 100 100 100
100 37 99 100 100 97 100 100 100 100 100 100 100 100 100 100 100 99 100 100 100 66 100 100 100 100 99 97 96 98 96 100 92 100 100 100 100 100 100 100 100 100 100
45 35 98 100 82 100 100 100 100 100 100 100 100 100 100 99 99 100 100 100 90 100 100 100 100 100 100 100 94 65 40 91 100 100 100 100 100 100 100 100 100 100 100
50 59 92 99 100 100 100 100 100 100 100 100 100 100 100 100 100 98 91 98 100 100 100 100 100 100 99 100 100 98 76 100 99 98 100 100 100 100 100 100 100 100 100
100 100 92 100 100 100 100 100 100 100 100 100 100 100 100 100 100 100 100 100 100 100 100 100 100 93 100 98 100 100 100 100 100 100 99 100 100 100 100 100 100 100 100
100 100 100 100 100 100 100 100 100 100 100 100 100 100 100 100 100 100 100 100 95 76 93 100 100 100 96 98 100 100 100 100 100 100 100 100 100 100 100 100 100 100 100
100 100 100 100 100 100 100 100 100 100 100 100 100 100 100 100 100 100 100 100 100 100 100 100 100 100 100 100 100 100 100 100 100 97 100 97 100 100 100 100 100 100 100
100 100 100 100 100 100 100 100 100 100 100 100 100 100 100 100 100 100 100 100 100 100 100 100 100 100 100 100 100 98 100 100 99 79 99 83 99 90 79 95 100 100 100
100 100 100 100 100 100 100 100 100 100 100 100 100 100 100 100 100 100 94 100 100 100 100 100 100 100 95 100 100 100 100 100 100 96 83 63 95 93 100 100 100 100 100
100 100 100 100 100 100 100 100 100 100 100 100 100 100 100 100 100 100 100 100 100 100 100 100 100 100 100 100 100 99 100 100 100 97 100 100 94 99 100 100 100 100 100
100 100 100 100 100 100 100 100 100 100 100 100 100 100 100 100 100 100 100 100 100 100 100 100 100 100 95 100 100 100 93 100 100 100 100 99 76 100 100 100 100 100 100
100 100 100 100 100 100 100 100 100 100 100 100 100 100 100 100 100 100 100 100 100 100 100 100 100 100 87 59 47 56 40 6 62 91 100 99 60 100 100 64 14 8 11
100 100 100 100 100 100 100 100 100 100 100 100 100 100 100 100 100 100 100 100 76 100 92 100 76 7 24 37 100 48 14 88 25 47 73 100 100 100 100 99 98 100 100
100 100 100 100 100 100 100 100 100 100 100 100 100 100 100 100 100 100 100 100 100 100 100 100 100 99 100 100 100 100 100 100 100 100 100 100 100 100 100 100 100 100 100
100 100 100 100 100 100 100 100 100 100 100 100 100 100 100 100 100 100 100 100 100 100 100 100 100 100 100 100 100 100 100 100 100 100 100 100 100 100 100 100 100 100 100
100 100 100 100 100 100 100 100 100 100 100 100 100 100 100 100 100 100 100 100 100 100 100 100 100 100 100 100 100 100 100 100 100 100 100 100 100 100 100 100 100 100 100
100 100 100 100 100 100 100 100 100 100 100 100 100 100 100 100 100 100 100 100 100 100 100 100 100 100 100 100 100 100 100 100 100 100 100 100 100 100 100 100 100 100 100
100 100 100 100 100 100 100 100 100 100 100 100 100 100 100 100 100 100 100 100 100 100 100 100 100 100 100 100 51 52 53 52 100 97 73 98 92 100 100 100 100 100 100
100 100 100 100 100 100 100 100 90 100 100 100 100 100 100 100 100 100 99 100 100 100 100 100 100 100 100 98 100 100 96 94 76 94 100 100 100 100 100 100 100 100 93

GFSMA_prec_cloud_087.txt.gz
Cloud_Cover
39 34 20 100 100 100 100 100 100 100 100 100 100 100 100 92 77 4 55 96 85 94 36 100 99 100 100 100 100 100 72 97 100 100 100 100 100 100 100 100 100 100 100
4 17 21 75 100 100 100 100 100 100 100 100 100 100 74 100 83 49 63 45 25 88 19 94 100 75 100 29 100 100 98 100 100 100 100 100 100 100 100 100 100 100 100
0 27 37 29 100 100 100 100 100 100 100 100 100 100 93 100 67 54 57 6 26 100 93 100 94 100 100 48 10 100 100 100 100 100 81 100 100 100 100 100 100 100 100
2 100 44 100 100 100 100 100 100 100 100 100 100 100 100 100 86 76 18 5 74 91 100 100 93 100 100 98 100 100 100 100 66 94 83 100 100 77 100 100 100 100 100
12 96 53 100 100 100 100 100 100 100 100 100 100 100 100 100 100 99 96 30 100 100 80 100 100 85 76 100 100 100 100 66 87 86 7 92 100 100 100 100 100 100 100
66 44 56 82 100 100 100 100 100 100 100 100 100 100 100 100 100 99 86 82 99 100 100 100 100 86 71 100 80 89 42 15 7 55 25 98 100 100 100 100 100 100 100
27 55 93 100 99 100 100 100 100 100 100 100 100 100 100 100 100 100 100 90 72 98 100 77 100 100 100 100 100 89 17 100 68 5 19 100 100 100 100 100 100 100 100
30 48 91 100 94 74 100 100 100 100 100 100 100 100 100 100 100 100 100 100 100 100 100 82 86 100 100 100 98 100 100 100 100 97 99 95 100 100 100 100 100 100 100
18 50 90 100 89 85 100 100 100 100 100 100 100 100 100 100 100 100 100 100 100 100 100 98 100 87 98 100 100 100 100 100 96 100 100 100 100 100 100 100 100 100 100
30 69 93 91 92 96 95 100 99 100 100 100 100 100 100 100 100 100 100 100 100 100 100 95 89 100 100 100 100 100 100 100 100 100 99 93 100 100 100 100 100 100 100
50 59 79 100 100 100 86 98 100 100 100 100 100 100 100 100 100 100 100 100 100 95 100 100 100 100 100 100 100 100 100 100 100 100 100 100 100 100 100 100 100 100 100
91 61 80 89 81 100 100 98 100 100 100 100 100 100 100 100 100 100 100 100 100 99 100 100 100 100 100 100 100 100 100 100 100 100 100 100 100 100 100 100 100 100 100
100 100 95 100 100 100 100 100 100 100 100 100 100 100 100 100 100 100 100 100 100 100 70 99 100 83 100 100 100 100 99 72 100 100 100 100 100 100 91 100 100 100 100
96 100 74 100 100 100 100 100 100 100 100 100 100 100 100 100 100 100 100 100 100 100 100 100 100 97 100 100 100 100 100 100 100 100 100 100 100 100 100 100 100 100 100
100 97 100 100 100 100 100 100 100 100 100 100 100 100 100 100 100 100 100 100 100 95 88 100 100 100 100 100 100 100 100 100 100 100 100 100 100 100 100 100 100 100 100
100 100 100 100 100 100 100 100 100 100 100 100 100 100 100 100 100 100 100 100 100 100 100 100 100 100 96 100 100 100 100 100 100 100 100 99 100 100 100 100 100 100 100
96 100 98 100 100 100 100 100 100 100 100 100 100 100 100 100 100 100 100 100 97 100 100 100 100 100 100 100 100 100 100 100 100 100 100 100 100 100 100 100 100 98 100
100 100 100 100 100 100 100 100 100 100 100 100 100 100 100 100 100 100 100 100 100 100 100 100 100 100 100 100 100 100 100 100 98 100 100 100 100 100 95 79 95 100 99
100 100 100 100 100 100 100 100 100 100 100 100 100 100 100 100 100 100 100 100 100 100 100 100 100 99 99 100 100 100 14 77 99 100 100 100 94 99 99 74 98 96 100
100 100 100 100 100 100 100 100 100 100 100 100 100 100 100 100 100 100 100 100 100 100 98 93 100 93 96 90 62 48 45 100 100 100 100 99 100 99 88 94 76 99 100
100 100 100 100 100 100 100 100 100 100 100 100 100 100 100 100 100 100 100 100 100 99 100 100 81 75 89 100 100 100 100 100 100 100 100 100 100 100 100 100 98 100 100
100 100 100 100 100 100 100 100 100 100 100 100 100 100 100 100 100 100 100 100 100 100 100 100 100 100 100 100 100 100 100 94 97 99 100 100 100 100 100 100 100 100 100
100 100 100 100 100 100 100 100 100 100 100 100 100 100 100 100 100 100 100 100 100 100 100 100 100 100 100 100 100 100 100 100 100 100 100 100 100 100 100 100 100 100 100
100 100 100 100 100 100 100 100 100 100 100 100 100 100 100 100 100 100 100 100 100 100 100 100 100 100 100 100 100 100 100 100 100 100 100 100 100 100 100 100 100 100 100
100 100 100 100 100 100 100 100 100 100 100 100 100 100 100 100 100 100 100 100 100 100 100 100 100 100 100 100 75 41 80 90 100 100 95 99 100 100 100 79 100 91 100
100 100 100 100 100 100 100 100 100 100 100 100 100 100 100 100 100 100 100 100 100 100 100 100 100 98 98 91 90 77 77 96 98 68 80 97 100 89 99 100 100 100 100

GFSMA_prec_cloud_090.txt.gz
Cloud_Cover
100 100 100 100 100 72 100 100 100 100 100 100 100 100 100 100 100 100 56 84 6 100 100 100 91 100 100 100 100 100 84 100 100 100 100 100 100 100 100 100 100 100 100
97 100 96 100 99 100 100 100 100 100 100 100 100 100 100 100 100 100 8 8 5 100 81 100 100 100 100 100 100 100 100 95 100 100 100 100 100 100 100 100 100 100 100
45 42 61 100 100 100 100 100 100 100 100 100 100 100 100 100 100 100 100 88 74 100 100 100 95 98 100 100 100 100 100 100 100 100 100 100 100 100 100 100 100 100 100
26 36 36 20 71 99 100 100 100 100 100 100 100 100 100 100 93 100 97 100 87 18 84 100 99 98 100 100 100 100 100 100 100 100 81 99 100 36 73 12 10 86 89
35 53 67 53 50 100 100 100 100 100 100 100 100 100 100 100 100 95 96 100 100 82 59 99 100 97 100 100 100 100 100 100 100 100 100 100 91 16 62 100 100 100 100
15 39 68 80 81 99 100 100 100 100 100 100 100 100 100 100 100 99 81 90 100 49 96 70 99 99 90 99 98 100 100 100 100 82 90 100 91 58 99 100 100 100 100
4 73 54 86 100 100 100 100 100 100 100 100 100 100 100 100 100 100 100 97 100 100 100 90 100 100 53 100 100 96 100 90 68 92 77 100 100 88 48 100 100 100 100
16 24 23 87 100 100 100 100 100 100 100 100 100 100 100 100 100 100 100 100 100 100 100 74 100 100 50 92 98 100 100 100 100 100 100 61 100 100 100 100 100 100 100
22 34 35 87 100 100 100 100 100 100 100 100 100 100 100 100 100 100 100 100 100 100 100 100 100 100 81 97 100 100 100 100 100 100 100 98 98 98 100 100 100 100 100
45 76 92 95 73 100 100 100 100 100 100 100 100 100 100 100 100 100 100 100 100 100 100 100 100 100 100 100 99 100 100 100 100 100 100 100 100 100 100 100 93 99 100
42 72 100 100 100 97 100 100 100 60 100 100 100 100 100 100 100 100 100 100 100 100 100 100 100 100 100 100 100 100 100 100 100 100 100 100 100 100 100 100 100 100 100
69 98 100 100 100 100 100 100 100 91 82 100 100 100 100 100 100 100 100 100 100 100 100 100 100 100 100 100 100 99 100 100 100 98 100 100 100 100 100 99 100 100 100
100 100 98 100 100 96 100 100 100 100 100 100 100 100 100 100 100 100 100 100 100 100 100 100 100 100 76 100 100 100 100 100 100 100 95 100 100 100 98 94 95 100 72
71 100 100 100 100 100 100 100 100 100 100 100 100 100 100 100 100 100 100 100 100 100 100 100 100 100 98 100 97 100 91 100 100 99 100 100 100 100 100 100 100 100 100
100 86 70 100 100 100 100 100 100 100 100 100 100 100 100 100 100 100 100 100 100 100 100 100 100 100 100 100 100 100 100 100 100 100 100 100 96 99 89 100 100 100 100
100 100 100 98 100 98 100 100 100 100 100 100 100 100 100 100 100 100 100 100 100 100 100 100 100 100 100 100 100 100 100 100 100 100 100 100 100 100 100 100 100 100 100
83 96 100 100 100 100 100 100 100 100 100 100 100 100 100 100 100 100 100 100 100 100 100 100 100 100 100 100 100 100 100 100 100 100 100 100 100 100 100 96 98 100 100
100 100 100 100 100 100 100 100 100 100 100 100 100 100 100 100 100 100 100 100 100 100 100 100 100 100 100 100 100 100 100 98 85 100 100 93 98 100 88 68 99 93 100
100 100 100 100 100 100 100 100 100 100 100 100 100 100 100 100 100 100 100 100 100 100 100 100 100 100 100 100 100 100 90 82 100 82 58 33 37 90 100 100 61 53 41
100 100 100 100 100 100 100 100 100 100 100 100 100 100 100 100 100 100 100 100 100 100 100 100 100 100 94 100 92 100 99 98 99 69 100 100 100 100 100 100 100 100 100
100 100 100 100 100 100 100 100 100 100 100 100 100 100 100 100 100 100 100 100 100 100 100 100 100 100 100 99 100 100 100 100 100 100 100 100 100 100 100 100 100 100 100
100 100 100 100 100 100 100 100 100 100 100 100 100 100 100 100 100 100 100 100 100 99 100 100 100 100 100 100 100 100 100 100 100 100 100 100 100 100 100 100 100 100 100
100 100 100 100 100 100 100 100 100 100 100 100 100 100 100 100 100 100 100 100 100 100 100 100 100 100 100 100 100 100 100 100 100 100 100 100 100 100 100 100 100 100 100
100 100 100 100 100 100 100 100 100 100 100 100 100 100 100 100 100 100 100 100 100 100 100 100 100 100 100 100 100 100 100 100 100 100 100 100 100 100 100 100 100 100 99
100 100 100 100 100 100 100 100 100 100 100 100 100 100 100 100 100 100 100 100 100 100 100 100 100 100 100 100 100 82 44 100 100 100 82 100 98 97 100 100 100 100 100
100 100 100 100 100 100 100 100 100 100 100 100 100 100 100 100 100 100 100 100 100 100 100 100 77 50 28 8 7 10 64 64 98 80 97 100 98 98 100 95 99 99 88

GFSMA_prec_cloud_093.txt.gz
Cloud_Cover
100 100 100 100 90 99 78 82 69 100 100 100 100 100 100 100 100 100 100 85 22 68 5 95 96 100 100 100 100 100 100 78 20 92 98 100 100 100 100 100 98 100 100
100 100 100 100 100 100 47 40 62 100 100 100 100 100 100 100 100 100 100 100 95 16 48 24 75 100 100 100 100 100 100 100 98 99 100 97 100 100 100 100 97 100 100
100 100 100 100 100 100 99 40 43 100 100 100 100 100 100 100 100 100 100 100 100 87 5 87 100 92 100 100 100 100 100 100 100 100 100 80 100 100 79 78 100 26 5
100 100 100 100 100 100 100 85 63 100 100 100 100 100 100 100 100 100 100 100 92 87 70 67 93 100 97 100 100 100 100 100 100 100 100 83 51 100 98 91 5 5 5
100 58 99 100 100 100 100 100 67 100 100 100 100 100 100 100 100 100 100 100 53 67 96 74 87 100 100 100 100 100 100 100 100 100 100 100 84 91 94 5 66 96 67
100 81 100 100 100 100 100 100 100 100 100 100 100 100 100 100 100 100 100 100 78 91 97 81 100 100 100 100 100 100 100 100 100 100 100 100 100 100 78 29 32 6 95
100 100 100 100 100 100 100 100 100 100 100 100 100 100 100 100 100 100 100 100 100 98 100 100 96 100 100 100 100 100 100 100 100 100 100 100 100 100 100 100 47 60 36
92 99 100 100 100 100 100 100 100 100 100 100 100 100 100 100 100 100 100 100 100 100 100 91 100 100 100 99 100 97 96 100 100 100 100 100 100 100 100 74 90 85 100
65 90 74 100 100 100 100 100 100 100 100 100 100 100 100 100 100 100 100 100 100 100 100 100 100 100 98 100 100 100 79 73 100 100 100 90 93 84 50 22 53 100 99
63 48 88 90 100 100 100 100 100 100 100 100 100 100 100 100 100 100 100 100 100 100 100 100 100 100 100 100 100 100 100 92 100 100 100 100 76 98 96 75 100 57 100
86 100 100 100 100 100 100 100 100 100 100 100 100 100 100 100 100 100 100 100 100 100 100 100 100 100 100 100 100 100 100 100 100 100 100 100 100 100 100 94 100 100 100
100 100 100 89 86 100 100 100 100 100 100 100 100 100 100 100 100 100 100 100 100 100 100 100 100 100 100 100 100 100 100 100 100 100 100 100 100 100 100 100 100 100 100
100 100 100 100 100 100 99 100 100 100 100 100 86 100 100 100 100 100 100 100 100 100 100 100 100 100 100 100 100 100 100 100 100 100 100 97 100 100 100 100 100 100 100
94 94 100 100 100 100 100 100 100 100 100 96 100 100 100 100 100 100 100 100 100 100 100 100 100 100 100 100 100 100 100 100 100 100 100 100 100 100 100 100 100 58 79
100 100 100 100 100 100 100 100 100 100 100 100 100 100 100 100 100 100 100 100 100 100 100 100 100 100 100 100 100 100 98 82 100 98 100 100 100 100 100 100 100 74 97
78 100 100 97 100 100 100 100 100 100 100 100 100 100 100 100 100 100 100 100 100 100 100 100 100 100 100 100 100 100 100 100 100 100 100 100 100 100 100 100 100 92 100
100 99 100 81 100 93 100 98 100 100 100 100 100 100 100 100 100 100 100 100 100 100 100 100 100 100 100 100 100 100 99 100 98 100 87 90 77 96 100 100 100 100 100
35 92 100 100 100 100 100 100 100 100 100 100 100 100 100 100 100 100 100 100 100 100 100 100 100 100 100 100 100 100 100 100 100 100 100 98 99 100 100 100 98 98 76
58 98 100 100 100 100 100 100 100 100 100 100 100 100 100 100 100 100 100 100 100 100 100 100 100 100 100 100 100 100 100 100 100 100 100 100 100 97 80 66 79 71 98
100 100 100 100 100 100 100 100 100 100 100 100 100 100 100 100 100 100 100 100 100 100 100 100 100 100 100 100 100 100 100 100 100 100 78 93 99 100 100 100 100 100 100
100 100 100 100 100 100 100 100 100 100 100 100 100 100 100 100 100 100 100 100 100 100 100 100 100 100 100 100 100 100 100 100 100 100 100 100 100 100 100 100 100 100 100
100 100 100 100 100 100 100 100 100 100 100 100 100 100 100 100 100 100 100 100 100 100 100 100 100 100 100 100 100 100 100 100 100 100 100 100 100 100 100 100 100 100 100
100 100 100 100 100 100 100 100 100 100 100 100 100 100 100 100 100 100 100 100 100 100 100 100 100 100 100 100 100 100 100 100 100 100 100 100 100 100 100 100 100 100 100
100 100 100 100 100 100 100 100 100 100 100 100 100 100 100 100 100 100 100 100 100 100 100 100 100 100 100 100 100 100 100 100 100 100 100 100 100 100 100 100 96 78 97
100 100 100 100 100 100 100 100 100 100 100 100 100 100 100 100 100 100 100 100 100 100 100 100 100 100 100 100 100 100 100 100 100 100 100 100 100 92 87 77 78 74 97
100 100 100 100 100 100 100 100 100 100 100 100 100 100 100 100 100 100 100 100 100 100 100 100 100 100 100 100 100 100 85 100 99 87 69 56 96 99 96 98 81 100 96

GFSMA_prec_cloud_096.txt.gz
Cloud_Cover
100 100 100 83 48 46 75 100 99 82 34 60 90 100 100 100 100 100 100 100 100 100 100 100 100 50 35 100 100 100 100 97 6 0 5 59 100 100 100 100 100 100 100
100 100 100 100 100 64 94 100 100 100 74 59 100 100 100 100 100 100 100 100 100 100 100 100 70 24 66 88 99 100 100 100 100 93 100 100 100 100 100 100 100 98 83
100 100 100 100 100 100 100 76 100 100 100 100 98 100 100 100 100 100 100 100 100 100 100 21 92 86 69 85 100 100 100 100 100 100 100 100 100 100 100 100 72 99 99
100 100 100 100 100 100 100 87 100 100 99 56 100 100 100 100 100 100 100 100 100 100 100 75 50 98 99 100 100 100 100 100 100 100 100 100 100 100 100 100 98 9 7
100 100 100 100 100 100 100 100 100 100 100 76 100 100 100 100 100 100 100 100 100 100 96 99 98 99 100 100 100 100 100 100 100 100 100 100 100 100 100 100 100 100 100
100 100 100 100 100 100 100 96 95 100 100 100 100 100 100 100 100 100 100 100 100 100 100 100 100 100 100 100 100 100 100 100 100 100 100 100 100 100 100 100 100 100 99
100 100 100 100 100 100 100 100 100 100 100 100 100 100 100 100 100 100 100 100 100 100 98 100 99 83 100 100 100 100 100 100 100 100 100 100 100 100 100 100 100 100 5
100 100 100 100 100 100 100 100 100 100 100 100 100 100 100 100 100 100 100 100 100 100 100 99 96 85 59 64 100 100 100 100 100 100 100 100 100 100 100 100 85 85 95
100 100 100 100 100 100 100 100 100 100 100 100 100 100 100 100 100 100 100 100 100 100 100 100 92 99 90 83 100 100 100 100 100 100 100 100 100 100 100 100 100 100 100
100 100 100 100 100 85 100 100 100 100 100 100 100 100 100 100 100 100 100 100 100 100 100 100 99 100 100 100 100 95 100 100 100 100 100 100 100 100 100 100 100 100 100
100 100 100 100 100 100 100 100 100 100 100 100 100 100 100 100 100 100 100 100 100 100 100 100 100 100 100 100 100 100 100 100 100 100 100 100 100 100 100 100 100 100 100
100 100 100 100 100 100 100 93 100 100 100 100 100 100 100 100 100 100 100 100 100 100 100 100 100 100 100 100 100 100 100 100 100 100 100 100 100 100 100 100 100 100 100
100 100 100 100 100 100 100 90 91 100 100 100 100 100 100 100 100 100 100 100 100 100 100 100 100 100 100 100 100 100 100 100 100 100 100 100 100 100 100 100 100 100 92
100 100 100 100 100 100 82 100 100 100 100 100 100 100 100 100 100 100 100 100 100 100 100 100 100 100 100 100 100 100 100 100 100 100 100 100 100 100 100 100 100 100 88
100 100 100 100 100 49 100 100 96 100 100 100 100 100 100 100 100 100 100 100 100 100 100 100 100 100 100 100 100 100 100 100 100 100 100 100 100 100 74 100 100 100 100
100 100 100 100 100 100 100 100 100 100 100 100 100 100 100 100 100 100 100 100 100 100 100 100 100 100 100 100 100 100 100 100 100 100 100 100 100 100 57 100 100 92 94
100 100 100 100 100 100 100 100 100 100 100 100 100 100 100 100 100 100 100 100 100 100 100 100 100 100 100 100 100 100 100 100 100 100 100 100 100 100 100 100 100 96 100
66 96 100 100 100 100 100 100 100 100 100 100 100 100 100 100 100 100 100 100 100 100 100 100 100 100 100 100 100 100 100 100 100 100 100 100 100 100 100 100 93 84 100
55 66 83 100 100 100 96 100 100 100 100 100 100 100 100 100 100 100 100 100 100 100 100 100 100 100 100 100 100 100 100 100 100 100 100 100 100 100 100 100 100 100 100
100 100 100 100 100 100 100 100 100 100 100 100 100 100 100 100 100 100 100 100 100 100 100 100 100 100 100 100 100 100 100 100 100 100 100 100 100 100 100 100 100 93 97
100 100 100 100 100 100 100 100 100 100 100 100 100 100 100 100 100 100 100 100 100 100 100 100 100 100 100 100 100 100 100 100 100 100 100 100 100 100 99 100 100 100 100
100 100 100 100 100 100 100 100 100 100 100 100 100 100 100 100 100 100 100 100 100 100 100 100 100 100 100 100 100 100 100 100 100 100 100 100 100 100 100 100 100 100 100
100 100 100 100 100 100 100 100 100 100 100 100 100 100 100 100 100 100 100 100 100 100 100 100 100 100 100 100 100 100 100 100 100 100 100 100 100 100 100 100 100 100 100
100 100 100 100 100 100 100 100 100 100 100 100 100 100 100 100 100 100 100 100 100 100 100 100 100 100 100 100 100 100 100 100 100 100 100 100 100 100 100 100 100 100 100
100 100 100 100 100 100 100 100 100 100 100 100 100 100 100 100 100 100 100 100 100 100 100 100 100 100 100 100 100 100 100 100 100 100 100 100 100 100 100 77 28 8 81
100 100 100 100 100 100 100 100 100 100 100 100 100 100 100 100 100 100 100 100 100 100 100 100 100 100 100 100 100 100 100 100 100 100 100 100 98 92 90 98 44 7 20

GFSMA_prec_cloud_099.txt.gz
Cloud_Cover
100 82 93 89 58 61 70 76 95 77 59 46 65 55 5 22 100 100 100 100 100 100 100 100 99 99 34 98 25 22 93 100 67 5 5 5 0 5 19 100 100 100 100
100 100 100 100 74 90 95 94 97 98 77 74 96 95 71 69 100 100 100 100 100 100 100 100 100 87 54 95 95 99 99 100 100 87 27 98 64 56 100 100 100 100 100
100 100 100 100 100 98 100 100 100 100 98 98 96 100 100 57 100 100 100 100 100 100 100 100 100 100 92 36 92 97 100 100 100 100 100 100 100 100 100 100 100 100 100
100 100 100 100 100 50 100 100 100 100 100 74 85 100 94 77 100 100 100 100 100 100 100 100 100 100 99 88 100 100 100 100 100 100 100 100 100 100 100 100 100 100 100
100 100 100 100 100 96 100 100 100 99 100 100 100 100 99 100 100 100 100 100 100 100 100 100 100 100 96 100 99 100 100 100 100 98 84 100 100 100 100 100 100 100 100
100 100 100 100 100 100 100 100 100 100 100 100 100 100 100 100 100 100 100 100 100 100 100 100 100 100 100 100 100 100 100 100 98 73 99 99 85 100 100 100 100 100 100
100 100 100 100 100 100 100 100 100 100 100 100 100 100 100 100 100 100 100 100 100 100 100 100 100 100 100 100 94 100 100 100 100 98 100 100 100 100 100 100 100 100 100
100 100 100 100 100 100 100 100 100 100 100 100 100 100 100 100 100 100 100 100 100 100 100 100 100 100 100 100 100 100 100 100 100 100 100 100 98 100 100 100 100 100 100
100 100 100 100 100 100 100 100 100 100 100 100 96 100 100 100 100 100 100 100 100 100 100 100 100 100 100 100 86 100 100 100 100 100 100 100 100 100 100 100 100 100 100
100 100 100 100 100 100 100 100 90 100 100 100 100 95 100 100 100 100 100 100 100 100 100 100 100 100 100 100 100 98 100 100 100 100 100 100 100 100 100 100 100 100 100
100 100 100 100 100 100 100 99 100 100 100 100 100 100 100 100 100 100 100 100 100 100 100 100 100 100 100 100 98 100 100 100 100 100 100 100 100 100 100 100 100 100 100
100 100 100 100 100 100 100 95 76 100 100 100 100 100 100 100 100 100 100 100 100 100 100 100 100 100 100 100 100 100 100 100 100 100 100 100 100 100 100 100 100 100 100
100 100 100 100 100 100 100 100 99 100 100 100 100 100 100 100 100 100 100 100 100 100 100 100 100 100 100 100 100 100 100 100 100 100 100 100 100 100 100 100 100 100 100
100 100 100 100 100 100 100 100 95 100 100 98 100 100 100 100 100 100 100 100 100 100 100 100 100 100 100 100 100 100 100 100 100 100 100 100 100 100 100 100 100 100 100
100 100 100 100 100 100 98 100 100 100 100 100 100 100 100 100 100 100 100 100 100 100 100 100 100 100 100 100 100 100 100 100 100 100 100 100 100 100 100 100 100 100 100
100 100 100 100 100 100 100 100 100 100 100 100 100 100 100 100 100 100 100 100 100 100 100 100 100 100 100 100 100 100 100 100 100 100 100 100 100 100 100 100 100 100 99
100 100 100 100 100 100 100 100 100 100 100 100 100 100 100 94 90 100 100 100 100 100 100 100 100 100 100 100 100 100 100 100 100 100 100 100 100 100 100 99 100 100 100
100 100 100 100 100 100 100 100 100 100 100 100 100 100 100 100 100 100 100 100 100 100 100 100 100 100 100 100 100 100 100 100 100 100 100 100 100 100 100 100 100 100 100
100 100 100 100 100 100 100 100 100 100 94 93 100 100 100 100 100 100 100 100 100 100 100 100 100 100 100 100 100 100 100 100 100 100 100 100 100 100 100 100 100 100 100
100 100 100 100 100 100 100 100 98 100 100 100 100 100 100 100 100 100 100 100 100 100 100 100 100 100 100 100 100 100 100 100 100 100 100 100 100 100 100 100 100 100 100
100 100 100 100 100 100 100 100 100 100 100 100 100 100 100 100 100 100 100 100 100 100 100 100 100 100 100 100 100 100 100 100 100 100 100 100 100 100 100 100 100 100 100
100 100 100 100 100 100 100 100 100 100 100 100 100 100 100 100 100 100 100 100 100 100 100 100 100 100 100 100 100 100 100 100 100 100 100 100 100 100 100 100 100 100 100
100 100 100 100 100 100 100 100 100 100 100 100 100 100 100 100 100 100 100 100 100 100 100 100 100 100 100 100 100 100 100 100 100 100 100 100 100 100 100 100 100 100 100
100 100 100 100 100 100 100 100 100 100 100 100 100 100 100 100 100 100 100 100 100 100 100 100 100 100 100 100 100 100 100 100 100 100 100 100 100 100 100 100 100 100 100
100 100 100 100 100 100 100 100 100 100 100 100 100 100 100 100 100 100 100 100 100 100 100 100 100 100 100 100 100 100 100 100 100 100 100 100 100 100 100 100 100 100 100
100 100 100 100 100 100 100 100 100 100 100 100 100 100 100 100 100 100 100 100 100 100 100 100 100 100 100 100 100 100 100 100 100 100 100 100 100 100 100 100 100 100 100

GFSMA_prec_cloud_102.txt.gz
Cloud_Cover
54 5 8 50 92 100 100 94 69 100 74 75 98 65 100 73 74 39 100 100 100 100 100 100 100 100 100 100 99 94 85 100 64 97 100 5 5 5 4 7 80 100 100
100 100 100 91 12 100 100 100 89 92 84 100 100 100 94 95 92 40 77 100 100 100 100 100 100 100 100 100 95 82 100 100 100 100 48 5 10 5 5 36 100 100 67
90 42 100 100 99 100 100 100 97 79 64 76 98 95 66 87 70 61 12 100 100 100 100 100 100 100 100 100 97 55 95 100 100 100 100 97 53 7 16 100 100 88 81
100 100 100 92 100 99 100 100 100 88 99 78 99 93 67 97 84 87 16 100 100 100 100 100 100 100 100 100 98 35 79 100 100 100 100 100 82 16 100 100 77 64 80
99 100 100 100 100 100 100 100 100 100 100 85 99 98 70 7 100 98 80 100 100 100 100 100 100 100 100 100 100 97 69 100 99 99 100 100 98 100 100 100 100 100 100
85 100 100 100 100 100 100 100 100 100 100 100 95 99 84 100 98 94 100 100 100 100 100 100 100 100 100 100 82 100 100 100 97 100 69 53 99 100 100 100 94 94 100
100 100 100 100 100 100 100 100 100 100 100 100 99 100 100 81 79 100 100 100 100 100 100 100 100 100 100 100 100 100 100 100 100 100 72 84 100 100 100 100 100 97 97
100 100 100 94 100 100 100 100 100 100 100 100 100 100 100 100 100 100 100 100 100 100 100 100 100 100 100 100 100 100 100 100 100 100 100 100 100 100 100 100 100 98 97
100 100 100 92 100 100 100 100 100 100 100 100 84 76 100 96 100 100 100 100 100 100 100 100 100 100 100 100 100 100 100 100 100 100 100 100 100 100 100 100 100 100 100
100 98 95 100 100 100 100 100 100 100 100 100 100 98 96 67 100 100 100 100 100 100 100 100 100 100 100 100 100 100 100 100 100 100 98 100 100 100 100 100 100 100 100
100 100 100 100 100 94 98 100 100 100 90 99 100 95 99 96 100 100 100 100 100 100 100 100 100 99 100 100 100 100 100 100 100 100 100 100 100 100 100 100 100 100 100
100 100 96 100 100 100 100 100 100 100 98 95 100 100 100 100 88 100 100 100 100 100 100 100 100 100 100 100 100 100 100 100 100 100 100 100 100 100 100 100 100 100 100
100 100 100 100 100 100 100 100 100 100 100 91 100 100 99 100 100 100 100 100 100 100 100 100 100 100 100 100 100 100 100 100 100 100 100 100 100 100 100 100 100 100 100
100 100 100 100 100 100 100 100 100 100 100 100 89 100 100 100 100 96 100 100 100 100 100 100 100 100 100 100 100 100 100 100 100 100 100 100 100 100 100 100 100 100 100
100 100 100 100 100 100 100 100 100 100 100 100 93 100 97 100 100 100 100 100 100 100 100 100 100 100 100 100 100 100 100 100 100 100 100 100 100 100 100 100 100 100 100
78 98 100 100 100 100 100 100 100 100 100 100 100 100 96 100 92 100 100 100 100 100 100 100 100 100 100 100 100 100 100 100 100 100 100 100 100 100 100 100 100 100 100
92 100 100 100 100 100 100 100 100 100 100 98 100 100 95 100 100 100 100 100 100 100 100 100 100 100 100 100 100 100 100 100 100 100 100 100 100 100 100 100 100 100 100
100 100 100 100 100 100 100 100 100 45 98 100 100 100 100 100 100 100 100 100 100 100 100 100 100 100 100 100 100 100 100 100 100 100 100 100 100 100 100 100 100 100 100
100 100 100 100 100 100 100 66 88 100 100 100 100 100 100 100 100 100 100 100 100 100 100 100 100 100 100 100 100 100 100 100 100 100 100 100 100 100 100 100 100 100 100
100 100 100 100 100 100 100 100 100 100 100 91 87 81 89 94 100 100 100 100 100 100 100 100 100 100 100 100 100 100 100 100 100 100 100 100 100 100 100 100 100 100 100
100 100 100 100 100 100 100 100 100 100 100 100 100 100 100 100 100 100 100 100 100 100 100 100 100 100 100 100 100 100 100 100 100 100 100 100 100 100 100 100 100 100 100
100 100 100 100 100 100 100 100 100 100 100 100 100 100 100 100 100 100 100 100 100 100 100 100 100 100 100 100 100 100 100 100 100 100 100 100 100 100 100 100 100 100 100
100 100 100 100 100 100 100 100 100 100 100 100 100 100 100 100 100 100 100 100 100 100 100 100 100 100 100 100 100 100 100 100 100 100 100 100 100 100 100 100 100 100 100
100 100 100 100 100 100 100 100 100 100 100 100 100 100 100 100 100 100 100 100 100 100 100 100 100 100 100 100 100 100 100 100 100 100 100 100 100 100 100 100 100 100 100
100 100 100 100 100 100 100 100 100 100 100 100 100 100 100 100 100 100 100 100 100 100 100 100 100 100 100 100 100 100 100 100 100 100 100 100 100 100 100 100 100 100 100
100 100 100 100 100 100 100 100 100 100 100 100 100 100 100 100 100 100 100 100 100 100 100 100 100 100 100 100 100 100 100 100 100 100 100 100 100 100 100 100 100 100 100

GFSMA_prec_cloud_105.txt.gz
Cloud_Cover
3 0 5 48 100 100 91 50 52 70 88 77 98 76 31 47 100 94 100 87 85 100 100 100 100 100 100 100 100 100 100 100 6 96 100 100 98 7 5 5 5 4 99
44 5 6 67 100 100 100 74 45 94 10 22 43 98 46 86 100 100 45 100 100 100 100 100 100 100 100 100 100 100 100 95 31 51 100 100 100 95 20 65 5 98 59
100 99 100 100 28 2 53 22 7 21 68 88 39 56 56 100 100 99 77 97 72 100 92 100 100 100 100 100 100 100 100 42 20 76 76 100 100 95 9 31 35 100 11
100 100 100 100 100 3 4 9 42 10 94 93 100 100 44 80 100 97 87 100 96 100 94 100 100 100 100 100 100 100 100 98 45 100 100 100 98 93 64 26 100 97 4
100 100 100 100 100 5 14 80 68 73 86 68 96 99 76 99 100 92 99 96 97 73 100 100 100 100 100 100 100 100 100 5 67 100 99 100 98 97 45 100 100 46 60
100 91 96 100 100 91 91 75 98 72 100 96 100 99 100 99 99 30 51 100 86 87 91 100 100 100 100 100 100 100 100 100 99 100 100 100 100 94 100 100 100 96 100
100 73 95 100 100 95 100 81 99 100 78 100 100 76 100 67 28 86 99 100 70 11 100 100 100 100 100 100 100 100 100 92 100 94 100 100 100 100 100 100 100 100 100
100 100 100 100 99 93 97 33 100 100 100 96 100 100 100 100 100 86 80 88 76 100 100 100 100 100 100 100 100 100 100 100 100 100 100 100 97 100 100 100 100 100 100
4 90 89 100 100 98 100 18 100 97 100 58 100 100 100 100 100 75 98 93 100 100 100 100 100 100 100 100 100 100 100 100 100 100 100 100 98 95 100 100 100 100 100
15 98 55 100 100 100 100 41 74 96 100 80 99 100 100 80 50 100 100 100 100 100 100 100 100 100 100 100 100 100 100 100 100 100 100 100 95 100 100 100 100 100 100
12 100 100 100 100 100 99 70 100 100 88 87 97 100 96 39 70 99 99 100 100 100 100 100 100 100 100 100 100 100 100 100 100 100 100 100 100 100 100 100 100 100 100
1 96 100 100 96 100 67 99 100 86 90 17 34 100 62 95 87 100 98 100 100 100 100 100 100 100 100 100 100 100 100 100 100 100 100 100 100 100 100 100 100 91 100
76 55 100 100 100 100 81 100 100 100 100 33 51 100 100 100 56 99 82 100 100 100 100 100 100 100 100 100 100 100 100 100 100 100 100 100 100 100 100 100 100 100 100
67 70 100 100 100 100 100 100 100 100 100 100 100 100 100 31 31 100 100 100 100 100 100 100 100 100 100 100 100 100 100 100 100 100 100 100 100 100 100 100 100 100 100
72 97 100 100 100 100 98 84 100 100 100 100 86 100 100 98 99 36 100 98 100 100 100 100 100 100 100 100 100 100 100 100 100 100 100 100 100 100 100 100 100 100 100
81 89 97 93 100 100 100 100 100 100 100 100 100 100 100 100 98 60 69 100 100 100 100 100 100 100 100 100 100 100 100 100 100 100 100 100 100 100 100 100 100 100 100
96 100 100 100 100 100 100 100 100 100 100 100 100 100 100 97 100 97 79 100 100 100 100 100 100 100 100 100 100 100 100 100 100 100 100 97 100 100 100 100 100 100 100
100 100 21 99 100 100 98 100 100 100 100 100 100 85 100 100 100 99 98 99 100 100 100 100 100 100 100 100 100 100 100 100 100 100 100 100 100 100 100 100 100 100 100
82 100 100 100 100 100 100 100 100 100 100 100 100 66 90 100 85 99 100 100 100 99 100 100 100 100 100 100 100 100 100 100 100 100 100 100 100 100 100 100 100 100 100
100 100 100 100 100 100 100 100 100 100 100 100 96 100 100 78 72 99 97 100 100 100 100 100 100 100 100 100 100 100 100 100 100 100 100 100 100 100 100 100 100 100 100
100 100 100 100 100 100 100 100 100 100 100 100 100 100 100 100 100 100 100 100 100 100 100 100 100 100 100 100 100 100 100 100 100 100 100 100 100 100 100 100 100 100 100
100 100 100 100 100 100 100 100 97 100 100 100 100 100 100 100 100 86 97 100 100 100 100 100 100 100 100 100 100 100 100 100 100 100 100 100 100 100 100 100 100 100 100
100 100 100 100 100 100 100 100 100 100 100 100 100 100 100 100 100 100 100 100 100 100 100 100 100 100 100 100 100 100 100 100 100 100 100 100 100 100 100 100 100 100 100
100 100 100 100 100 100 100 100 100 100 100 100 100 100 100 100 100 100 100 100 100 100 100 100 100 100 100 100 100 100 100 100 100 100 100 100 100 100 100 100 100 100 100
100 100 100 100 100 100 100 100 100 100 100 100 100 100 100 100 100 100 100 100 100 100 100 100 100 100 100 100 100 100 100 100 100 100 100 100 100 100 100 100 100 100 100
100 100 100 100 100 100 100 100 100 100 100 100 100 100 100 100 100 100 100 100 100 100 100 100 100 100 100 100 100 100 100 100 100 100 100 100 100 100 100 100 100 100 100

GFSMA_prec_cloud_111.txt.gz
Cloud_Cover
100 100 100 98 100 67 4 5 5 48 83 72 100 4 0 5 0 5 0 1 26 80 33 100 100 100 100 100 100 100 100 100 100 100 100 100 60 94 94 100 100 100 79
100 98 100 100 43 5 0 4 96 57 5 89 50 92 2 5 0 0 10 2 44 100 100 100 100 100 100 100 100 100 100 100 100 100 100 100 100 100 17 100 100 80 100
100 100 87 9 8 5 39 2 0 3 5 12 100 64 3 0 0 0 2 6 5 90 100 100 100 100 100 100 100 100 100 100 100 100 100 100 100 100 98 45 100 100 100
89 100 26 5 0 4 4 5 14 5 5 34 51 4 5 0 0 0 2 5 32 5 67 100 100 100 100 100 100 100 100 100 100 100 100 100 100 100 100 87 100 100 100
22 78 5 0 0 28 9 0 0 0 17 81 90 84 100 68 4 6 0 21 10 6 19 100 100 100 100 100 100 100 100 100 100 100 100 100 93 100 100 94 82 100 76
4 4 67 54 28 44 53 14 5 5 22 100 100 100 99 93 100 33 12 6 37 65 31 73 100 100 100 100 100 100 100 100 100 100 100 93 100 87 100 99 100 100 100
0 2 7 59 67 13 5 56 32 68 98 83 95 100 100 100 100 99 99 57 100 100 91 50 67 100 100 100 100 100 100 100 100 100 100 100 94 26 100 100 100 100 100
67 60 54 8 5 4 7 13 82 93 100 100 100 100 100 100 100 100 100 100 100 97 25 12 75 100 100 100 100 100 100 100 100 100 100 100 100 97 95 100 100 100 100
4 2 4 0 7 1 20 67 90 100 100 100 100 100 100 100 100 100 100 47 100 100 32 40 59 85 100 100 100 100 100 100 100 100 100 100 100 100 100 100 100 100 100
0 0 3 4 0 0 11 8 34 100 100 100 100 100 100 100 100 100 100 98 100 100 49 94 63 66 84 100 100 100 100 100 100 100 100 100 100 100 100 100 100 100 100
0 0 7 35 66 5 4 89 72 100 100 100 100 100 100 100 100 100 100 98 94 68 100 95 100 100 81 51 100 100 100 100 100 100 100 100 22 100 100 100 100 100 100
26 0 0 0 0 30 2 33 100 100 100 80 100 100 100 100 100 100 100 44 74 99 100 100 100 100 91 55 88 100 100 100 100 100 100 100 100 100 100 100 100 100 100
100 85 14 0 0 17 78 100 100 100 100 100 74 79 100 99 100 100 28 71 27 67 100 100 100 95 71 71 100 100 100 100 100 100 100 100 98 88 100 100 100 100 100
100 100 83 2 0 13 98 100 100 100 100 100 24 98 100 100 100 100 5 9 72 99 100 100 100 77 58 94 100 100 100 100 100 100 100 100 100 100 100 100 100 100 100
100 100 100 38 0 100 97 99 100 100 100 74 31 100 100 100 100 61 1 5 5 100 100 100 87 100 100 100 100 100 100 100 100 100 100 100 100 100 100 100 100 100 100
100 100 100 70 6 100 88 93 100 100 100 100 100 100 100 100 100 99 48 86 80 13 22 39 95 100 100 100 100 100 100 100 100 100 100 100 100 100 100 100 100 100 100
100 100 100 100 100 100 100 100 100 61 43 69 87 100 100 87 77 99 100 99 92 37 71 38 46 100 100 100 100 100 100 100 100 100 100 100 100 100 100 100 100 100 100
100 100 100 100 100 100 100 100 100 53 44 100 100 100 100 99 100 100 100 100 100 90 73 100 56 100 100 100 100 100 100 100 100 100 100 100 100 100 100 100 100 100 100
100 100 100 100 100 100 100 100 100 100 100 78 100 100 100 100 100 100 100 100 100 48 100 100 93 99 100 100 100 100 100 100 100 100 100 100 100 100 100 100 100 100 100
100 100 100 100 100 100 100 100 100 100 100 100 100 100 100 98 94 100 100 100 97 85 100 100 93 100 100 100 100 100 100 100 100 100 100 100 100 100 100 100 100 100 100
100 100 100 100 100 100 100 100 100 100 100 100 100 100 100 100 100 100 100 100 87 75 100 100 100 100 100 100 100 100 100 100 100 100 100 100 100 100 100 100 100 100 100
100 100 100 100 100 100 100 100 100 100 100 100 100 100 100 100 100 100 100 100 96 100 100 100 100 100 100 100 100 100 100 100 100 100 100 100 100 100 100 100 100 100 100
100 100 100 100 100 100 100 100 100 100 100 100 100 100 100 100 100 100 100 100 100 100 100 100 100 100 80 100 100 100 93 100 100 100 100 100 100 100 100 100 100 100 100
100 100 100 100 100 100 100 100 100 100 100 100 100 100 100 100 100 100 100 100 100 100 100 100 100 100 100 100 95 100 100 100 100 100 100 100 100 100 100 100 100 100 100
100 100 100 100 100 100 100 100 100 100 100 100 100 100 100 100 100 100 100 100 100 100 100 100 100 100 100 100 100 100 100 100 100 100 100 100 100 100 100 100 100 100 100
100 100 100 100 100 100 100 100 100 100 100 100 100 100 100 100 100 100 100 100 100 100 100 100 100 100 100 100 100 100 100 100 100 100 100 100 100 100 100 100 100 100 100

GFSMA_prec_cloud_114.txt.gz
Cloud_Cover
46 73 91 98 73 23 40 46 54 88 50 38 70 100 23 61 8 38 18 0 0 10 4 5 98 100 100 100 100 100 100 100 100 100 100 100 100 100 95 87 66 100 100
70 100 100 100 100 100 100 96 38 41 40 21 24 14 4 3 5 5 13 3 0 3 4 5 8 100 100 100 100 100 100 100 100 100 92 100 100 100 100 100 100 100 100
100 100 100 100 100 100 100 87 19 22 31 22 3 2 2 5 5 5 5 5 8 0 4 5 59 85 100 100 100 100 100 100 100 100 100 100 100 100 100 100 100 100 63
100 100 100 100 100 100 100 100 75 54 48 36 57 40 27 53 29 86 92 10 23 57 0 5 5 59 100 100 100 100 100 100 100 100 100 100 100 100 100 100 100 100 90
68 19 89 100 100 100 100 100 100 94 52 42 27 28 42 73 83 100 100 71 100 81 16 52 5 54 100 100 100 100 100 100 100 100 100 100 100 60 100 100 100 100 100
0 18 14 41 54 100 100 100 100 100 91 97 68 100 100 100 100 100 100 100 74 90 54 0 19 20 52 100 100 100 100 100 100 100 100 100 100 96 100 100 99 100 100
5 5 0 21 15 7 5 63 100 100 100 100 100 100 100 100 100 100 100 100 100 90 97 94 21 22 26 97 100 100 100 100 100 100 100 100 100 100 100 100 100 76 99
10 12 6 7 13 28 4 63 98 86 100 100 100 100 100 100 100 100 100 100 98 100 100 100 55 50 43 78 100 100 100 100 100 100 100 100 100 100 100 100 96 100 100
5 3 3 15 80 31 88 45 11 19 44 92 98 100 100 100 100 100 100 83 100 100 100 100 59 79 80 82 100 100 99 100 100 100 100 100 100 100 100 76 100 100 100
100 51 3 5 4 2 12 43 38 5 28 85 100 100 100 100 100 100 100 100 100 100 82 95 85 98 100 100 100 100 100 100 100 100 100 100 100 100 100 100 68 100 100
30 5 5 14 0 2 0 34 88 58 2 16 96 100 100 100 100 100 100 100 100 98 42 76 48 22 94 100 91 100 100 100 100 100 100 100 100 100 41 72 100 100 100
100 100 100 97 52 11 4 0 52 51 2 0 1 90 100 100 100 100 100 100 100 100 100 83 27 55 49 100 99 100 100 100 100 100 100 100 100 100 100 94 100 100 100
100 100 100 100 100 90 35 1 68 70 54 27 2 11 77 100 100 100 100 100 83 74 100 100 100 80 54 100 100 100 100 100 100 100 100 100 100 100 100 100 100 100 100
100 100 100 100 100 100 100 18 25 48 23 54 9 100 100 100 100 100 100 100 100 100 98 100 100 89 84 100 100 100 86 100 100 100 100 100 100 100 100 99 100 100 71
100 100 100 100 100 100 100 65 54 33 44 100 100 100 99 99 100 100 100 100 100 100 100 100 100 90 100 100 89 100 100 100 100 100 100 100 100 100 100 100 100 92 100
100 100 100 100 100 100 100 86 8 3 74 100 100 100 100 100 96 100 100 100 100 100 100 99 25 88 91 100 98 40 100 100 100 100 100 100 100 100 100 100 100 100 100
100 100 100 100 100 100 100 95 90 27 100 100 100 100 100 100 100 100 100 100 100 100 100 56 62 16 62 100 100 100 97 100 100 100 100 100 100 100 100 100 100 100 100
100 100 100 100 100 100 100 100 100 100 100 100 100 97 99 78 100 100 100 100 100 100 100 96 94 99 98 100 100 100 100 100 100 100 100 100 100 100 100 100 100 100 100
100 100 100 100 100 100 100 100 100 100 100 100 100 100 94 62 100 100 100 100 100 100 100 100 100 100 100 100 100 100 100 100 100 100 100 100 100 100 100 100 100 100 100
100 100 100 100 100 100 100 100 100 100 100 100 100 100 100 100 100 100 100 100 100 100 100 96 100 99 100 100 100 100 100 100 100 100 100 100 100 100 100 100 100 100 100
100 100 100 100 100 100 100 100 100 100 100 98 100 100 100 100 100 100 100 100 100 100 100 100 99 83 100 100 100 100 100 100 100 100 100 100 100 100 100 100 100 100 100
83 100 100 100 100 100 100 100 100 100 100 100 100 100 100 100 100 100 100 100 100 100 100 100 95 100 100 92 100 100 100 100 100 100 100 100 100 100 100 100 100 100 100
87 98 100 100 100 100 100 100 100 100 100 100 100 100 100 100 100 100 100 100 100 100 100 100 92 100 100 100 98 100 100 100 100 100 100 100 100 100 100 100 100 100 100
100 100 100 100 100 100 100 100 100 100 100 100 100 100 100 100 100 100 100 100 100 100 100 100 100 100 100 100 100 97 97 100 100 100 100 100 100 100 100 100 100 100 100
100 100 100 100 100 100 100 100 100 100 100 100 100 100 100 100 100 100 100 100 100 100 100 100 100 100 100 100 100 100 100 100 100 100 100 100 100 100 100 100 100 100 100
100 100 100 100 100 100 100 100 100 100 100 100 100 100 100 100 100 100 100 100 100 100 100 100 100 100 100 100 100 100 100 100 100 100 100 100 100 100 100 100 100 100 100

GFSMA_prec_cloud_117.txt.gz
Cloud_Cover
100 100 100 100 100 88 69 100 100 100 100 100 100 51 32 29 24 25 26 0 5 8 5 1 0 19 100 100 100 100 100 100 100 100 100 100 100 100 100 100 59 39 92
99 100 100 100 100 89 85 100 100 100 100 100 100 74 48 22 14 10 17 0 5 10 5 5 0 3 100 100 100 100 100 100 100 100 100 100 100 98 100 100 100 100 89
100 100 22 57 68 100 100 100 100 100 100 100 100 93 100 62 83 10 8 12 12 94 6 5 4 0 44 100 100 100 100 100 100 100 100 100 100 100 100 100 100 100 100
100 100 100 100 100 64 100 100 100 100 100 100 100 100 100 100 100 89 77 100 100 100 95 100 96 2 5 89 100 100 100 100 100 100 100 100 100 100 100 100 100 100 100
100 100 100 100 100 100 100 100 100 100 100 100 100 100 100 100 100 100 100 100 100 100 100 100 100 46 2 89 100 100 100 100 100 100 100 100 100 100 100 100 100 100 100
15 86 100 92 100 100 100 100 100 100 100 100 100 100 100 100 100 100 100 100 100 100 98 100 97 99 14 25 100 100 100 100 100 100 100 100 100 100 100 100 100 100 83
0 0 0 0 3 45 100 100 100 100 100 100 100 100 100 100 100 100 100 100 100 100 100 100 100 100 89 14 20 100 100 100 100 100 100 100 100 100 100 100 100 100 100
5 0 0 0 0 0 1 85 100 100 100 100 95 100 100 100 100 100 100 100 100 100 100 100 100 94 100 63 12 62 100 100 100 100 100 100 100 100 100 97 100 100 100
8 2 0 0 6 0 0 0 98 100 100 71 79 100 100 97 64 100 99 100 100 100 100 100 100 100 100 100 6 14 94 100 100 100 100 100 100 100 100 100 100 100 100
5 14 51 69 56 34 15 5 0 64 100 100 100 53 19 88 99 98 98 100 100 100 100 100 100 88 96 100 94 34 36 100 100 100 100 100 100 100 100 100 100 100 100
20 54 100 100 100 100 100 72 9 1 87 100 100 97 72 24 38 96 94 100 100 100 100 100 99 86 100 59 100 100 100 100 100 100 100 100 100 100 100 100 100 100 100
100 90 100 100 100 100 100 100 99 63 24 94 92 12 7 19 32 26 82 100 100 100 100 100 100 100 93 84 88 100 96 38 100 100 100 98 100 100 100 100 100 100 100
100 100 100 100 100 100 100 100 100 100 100 100 99 51 0 0 0 0 48 100 100 96 100 100 100 100 95 70 77 46 100 100 100 100 100 100 100 100 100 100 100 100 100
100 100 100 100 100 100 100 100 100 100 81 100 100 100 9 5 1 0 0 34 100 100 98 99 100 100 95 48 75 31 100 100 100 100 100 100 100 100 100 100 100 100 100
100 100 100 100 100 100 100 100 100 100 100 97 100 100 91 10 6 7 2 14 36 100 100 100 100 96 100 100 77 63 96 100 100 100 100 100 100 100 100 100 100 100 100
100 100 100 100 100 99 100 100 100 100 100 88 100 100 100 100 98 57 73 62 100 100 100 100 100 100 100 100 100 100 100 100 100 100 100 100 100 100 100 100 100 100 100
100 100 100 100 100 100 100 100 100 100 100 54 96 100 100 22 7 100 100 100 100 100 100 100 100 100 100 100 97 100 100 100 100 100 100 100 100 100 100 100 100 100 100
100 100 100 100 100 100 100 100 100 100 100 100 64 98 64 51 100 100 100 100 100 100 100 100 100 100 100 100 100 100 100 100 100 100 100 100 100 100 100 100 100 100 100
100 100 100 100 100 100 100 100 100 100 100 100 100 100 100 100 100 100 100 100 100 100 100 100 100 100 100 100 100 100 100 100 100 100 100 100 100 100 100 100 100 100 100
96 100 100 100 100 100 100 100 100 100 100 100 100 100 100 100 100 100 100 100 100 100 100 100 100 100 100 100 100 100 100 100 100 100 100 100 100 100 100 100 100 100 100
94 100 100 100 100 100 100 100 100 100 100 100 97 100 100 100 100 100 100 100 100 100 100 100 100 100 100 100 100 100 100 100 100 100 100 100 100 100 100 100 100 100 100
43 53 66 99 100 100 100 100 100 100 100 100 100 100 100 100 100 100 100 100 98 100 100 100 100 99 100 100 100 100 100 100 100 100 100 100 100 100 100 100 100 100 100
78 91 74 95 100 100 100 100 100 100 100 100 100 100 100 100 100 100 100 100 100 100 100 100 100 100 100 100 100 100 100 100 100 100 100 100 100 100 100 100 100 100 100
91 99 97 89 92 98 100 100 100 100 100 100 100 100 100 100 100 100 100 100 100 100 100 100 100 100 100 100 100 100 100 100 100 100 100 100 100 100 100 100 100 100 100
86 94 98 98 97 100 100 100 100 100 100 100 100 100 100 100 100 100 100 100 100 100 100 100 100 100 100 100 100 100 100 100 100 100 100 100 100 100 100 100 100 100 100
77 98 99 100 100 100 99 100 100 100 100 100 100 100 100 100 100 100 100 100 100 100 100 100 100 100 100 100 100 100 100 100 100 100 100 100 100 100 100 100 100 100 100

GFSMA_prec_cloud_120.txt.gz
Cloud_Cover
100 100 100 100 100 100 100 100 99 100 100 97 98 36 41 58 48 100 100 57 2 2 2 5 4 5 7 28 100 100 100 100 100 100 100 100 100 100 100 100 100 100 100
100 100 100 100 100 100 100 100 100 100 100 100 100 99 44 39 93 100 100 100 31 5 5 5 5 4 5 5 98 100 100 100 100 100 100 100 100 100 100 100 100 100 100
100 100 100 100 100 100 100 100 100 100 100 100 100 100 100 100 100 100 100 100 100 100 100 100 100 97 3 5 52 100 100 100 100 100 100 100 100 100 100 100 100 100 100
100 100 100 100 100 97 86 99 100 100 100 100 100 100 100 100 100 99 100 100 100 100 100 100 100 100 100 5 5 100 100 100 100 100 100 100 100 100 100 100 100 100 100
93 100 94 93 100 100 100 100 100 100 100 100 100 100 100 100 100 100 100 100 100 100 100 100 84 83 100 73 69 32 100 100 100 100 100 100 100 100 100 98 100 100 100
53 19 5 17 76 53 90 100 100 100 100 100 100 100 100 100 100 100 100 100 100 100 100 100 100 100 100 100 100 72 100 100 100 100 100 100 100 100 100 99 99 100 100
5 28 51 5 5 14 5 91 100 100 100 100 100 100 100 100 100 100 100 100 100 100 100 100 100 100 100 100 96 66 92 100 100 100 100 100 100 100 100 100 100 97 100
5 5 49 39 22 32 4 0 29 100 100 100 100 100 100 100 100 100 100 100 100 100 100 89 98 100 100 100 81 96 100 100 100 100 100 100 100 100 100 100 100 100 100
99 76 16 78 93 98 90 29 12 36 100 100 100 100 100 100 100 100 100 100 100 100 81 75 93 100 100 100 100 83 41 98 100 100 100 100 100 100 100 100 100 100 100
95 99 100 100 100 100 100 100 84 14 26 89 100 100 85 77 100 100 100 100 100 99 96 100 99 24 100 100 97 25 32 52 100 62 100 100 100 100 100 100 100 100 100
54 100 95 100 100 100 100 100 100 100 78 24 90 100 100 100 74 98 87 75 100 100 100 100 100 100 100 98 100 100 59 72 75 94 100 100 100 100 100 100 100 100 100
100 100 100 100 100 100 100 100 100 100 100 100 64 100 100 100 100 98 92 58 5 29 30 9 100 100 99 100 100 99 94 98 96 56 100 100 100 100 100 100 100 100 100
100 100 100 100 100 100 100 100 100 100 100 100 100 80 70 100 100 31 3 0 0 0 14 0 18 100 100 100 100 100 62 14 100 71 100 100 100 100 100 100 100 100 100
100 100 100 100 100 100 100 100 100 100 100 100 100 87 92 76 100 100 17 1 0 1 81 3 23 100 100 100 100 100 82 72 100 100 100 100 100 94 100 100 100 100 100
100 100 100 100 100 100 100 100 100 100 100 100 100 100 85 66 97 100 100 6 5 5 3 0 25 45 74 86 100 100 54 100 94 82 100 100 100 100 99 77 100 100 100
100 100 100 100 100 100 100 100 100 100 100 100 100 100 99 100 100 100 100 86 13 93 39 5 2 19 48 91 100 100 77 100 100 100 100 100 100 100 99 71 95 100 100
100 100 100 100 100 100 100 100 100 100 100 100 100 100 100 91 100 100 100 100 100 93 62 18 7 48 92 100 100 100 100 100 100 100 100 100 100 100 100 100 100 100 100
100 100 100 100 100 100 100 100 100 100 100 100 100 100 100 70 100 100 100 100 100 94 56 83 100 100 100 100 100 100 100 100 100 100 100 100 100 100 100 100 100 100 100
100 100 100 100 100 100 100 100 100 100 100 100 100 100 100 100 100 100 100 100 61 100 100 100 100 100 100 100 100 100 100 100 100 100 100 100 100 100 100 100 100 100 100
100 100 100 100 100 100 100 100 100 100 100 100 100 100 100 100 100 100 95 67 84 100 100 100 100 100 100 100 100 100 100 100 100 100 100 100 100 100 100 100 100 100 100
100 100 100 100 100 100 100 100 99 100 100 100 100 100 100 100 100 100 100 100 100 100 100 100 100 100 100 100 100 100 100 100 100 100 100 100 100 100 100 100 100 100 100
98 100 100 100 100 100 100 100 100 96 100 100 100 100 100 100 100 86 100 100 100 100 100 100 100 100 100 100 100 100 100 100 100 100 100 100 100 100 100 100 100 100 100
98 100 100 100 100 100 100 100 100 98 100 100 100 100 100 100 100 100 100 100 100 100 100 100 100 100 100 100 100 100 100 100 100 100 100 100 100 100 100 100 100 100 100
98 100 100 100 100 100 100 98 96 99 98 91 96 100 100 100 100 100 100 100 100 100 100 100 100 100 100 100 100 100 100 100 100 100 100 100 100 100 100 100 100 100 100
100 95 100 99 98 97 100 100 98 100 100 84 97 100 100 100 100 100 100 100 100 100 100 100 100 100 100 100 100 100 100 100 100 100 100 100 100 100 100 100 100 100 100
100 99 100 100 100 100 100 100 100 100 97 100 100 99 100 100 100 100 100 100 100 100 100 100 100 100 100 100 100 100 100 100 100 100 100 100 100 100 100 100 100 100 98

GFSMA_prec_cloud_123.txt.gz
Cloud_Cover
100 100 100 100 100 100 100 100 53 80 100 100 100 94 80 95 5 5 48 5 100 95 5 5 7 98 100 36 5 5 93 81 100 100 100 100 100 100 100 100 100 100 100
100 100 100 100 100 100 100 64 100 100 100 100 100 100 96 37 51 8 8 59 100 100 98 61 37 48 100 100 100 61 47 68 100 100 99 100 100 100 100 100 100 100 100
98 84 68 100 100 93 100 100 100 100 100 100 100 100 100 88 100 100 83 79 89 100 100 100 100 100 100 100 100 100 80 100 100 100 100 94 78 100 100 100 100 100 100
100 100 100 100 100 100 100 85 96 100 100 100 100 100 100 100 100 100 100 100 100 86 100 100 90 85 100 100 100 100 100 100 100 100 100 95 99 92 100 100 100 100 100
2 4 22 63 100 100 100 100 99 100 100 100 100 100 100 100 100 100 100 100 100 100 100 96 98 88 98 100 100 100 99 100 98 100 100 100 100 31 96 95 100 100 100
0 0 4 5 34 20 100 100 100 100 100 100 100 100 100 100 100 100 99 100 100 100 100 100 99 98 100 100 60 98 100 56 96 94 100 100 100 87 54 87 100 98 100
2 5 5 5 5 62 95 5 95 100 100 100 99 100 100 100 100 100 100 100 100 100 100 100 100 100 100 46 100 92 100 100 80 18 57 100 100 100 100 65 100 100 100
50 28 50 61 84 51 63 32 4 6 99 95 100 100 100 100 100 100 100 100 100 100 100 100 100 99 80 48 40 99 100 100 100 100 100 91 100 100 100 83 100 100 100
72 83 100 100 100 100 100 100 87 34 25 100 100 70 100 100 100 100 100 100 100 100 100 100 100 100 96 54 92 69 96 87 100 100 100 92 86 100 100 100 100 100 100
97 100 100 100 100 100 100 100 100 100 100 50 81 95 77 100 100 100 100 100 100 100 100 100 100 100 100 100 100 100 99 97 100 100 100 100 100 98 100 100 100 100 100
100 100 100 100 100 100 100 100 100 100 100 100 78 93 100 82 100 100 100 100 80 94 100 100 100 100 100 100 100 100 100 100 99 100 97 91 96 100 93 100 100 100 100
100 100 100 100 100 100 100 100 100 100 100 100 100 96 100 100 100 72 95 87 100 91 46 97 100 100 100 100 94 83 100 100 98 36 21 82 100 100 100 100 100 100 100
100 100 100 100 100 100 100 100 100 100 100 100 100 100 100 100 95 14 6 37 92 71 2 80 5 1 32 37 19 18 21 38 100 100 36 100 100 100 100 100 100 100 100
100 100 100 100 100 100 100 100 100 100 100 100 100 100 100 99 7 37 48 100 63 13 26 1 0 0 0 30 4 29 51 78 76 89 100 100 98 100 100 100 100 100 100
100 100 100 100 100 100 100 100 100 100 100 100 100 100 100 100 100 56 88 29 100 100 99 30 0 0 0 0 32 58 32 26 100 48 31 100 99 72 100 100 100 100 100
100 100 100 100 100 100 100 100 100 100 100 100 100 100 100 100 100 62 99 77 40 80 100 38 50 4 2 1 50 91 44 56 100 100 78 33 100 100 100 100 100 100 100
100 100 100 100 100 100 100 100 100 100 100 100 100 100 100 100 100 100 100 96 100 100 100 100 21 49 5 5 60 99 100 100 99 100 100 100 100 100 100 100 100 100 99
100 100 100 100 100 100 100 100 100 100 100 100 100 100 100 100 100 100 100 100 100 100 100 100 100 100 21 20 28 100 100 100 100 100 100 100 100 100 100 100 100 100 100
100 100 100 100 100 100 100 100 100 100 100 100 100 100 100 100 100 100 100 100 100 100 100 100 100 100 46 68 100 100 100 100 100 100 100 100 100 100 100 100 100 100 100
100 100 100 100 100 100 100 100 100 100 100 100 100 100 100 100 100 100 100 100 100 100 100 100 100 100 100 100 100 100 100 100 100 100 100 99 100 100 100 100 100 100 100
100 100 100 100 100 100 100 100 100 100 100 100 100 100 100 100 100 100 100 100 100 100 100 99 100 100 100 100 100 100 100 100 100 100 100 100 100 100 100 100 100 100 100
94 94 100 100 100 100 98 100 100 100 100 100 100 100 100 100 100 100 100 100 100 100 100 100 100 100 100 100 100 100 100 100 100 100 100 100 100 100 100 100 100 100 100
99 98 94 96 96 76 97 100 98 100 100 100 100 100 100 100 100 100 100 100 100 100 100 100 100 100 100 100 100 100 100 100 100 100 100 100 100 100 100 100 100 100 100
92 99 96 100 97 90 95 100 90 84 84 100 100 100 100 100 98 99 100 100 100 100 100 100 100 100 100 100 100 100 100 100 100 100 100 100 100 100 100 100 100 100 100
100 100 100 98 99 90 98 95 47 66 90 100 100 100 100 100 100 88 99 100 100 100 100 100 100 100 100 100 100 100 100 100 100 100 100 100 100 100 100 100 100 100 100
82 100 100 100 100 100 100 92 7 5 89 80 97 93 100 100 100 100 100 100 100 100 100 100 100 100 100 100 100 100 100 100 100 100 100 100 100 100 100 100 100 100 100

GFSMA_prec_cloud_126.txt.gz
Cloud_Cover
80 61 90 100 100 91 90 99 84 100 100 100 100 100 100 100 100 99 60 100 99 78 100 100 100 14 94 93 26 4 2 6 97 100 96 84 100 100 100 100 100 100 100
100 99 47 67 95 82 98 100 100 39 99 100 100 100 100 100 100 100 80 97 100 100 63 100 96 79 90 100 100 21 5 89 6 98 100 99 100 100 100 100 100 100 100
100 100 87 93 75 100 61 53 100 100 100 100 100 100 100 100 100 100 75 97 100 51 8 96 100 100 100 52 100 100 100 5 13 76 100 100 98 100 100 100 100 83 100
100 100 100 100 100 95 100 97 100 100 100 100 100 100 100 100 67 42 56 78 93 98 94 100 100 98 98 5 72 51 100 97 79 19 100 100 100 100 100 100 100 100 100
100 100 98 100 100 100 100 99 100 100 100 100 99 100 100 100 100 99 77 97 90 100 100 100 100 100 80 53 62 41 74 70 100 91 20 100 100 100 100 100 100 100 100
3 0 0 1 4 11 36 50 100 100 100 100 100 87 100 100 100 100 100 100 100 100 100 100 100 100 81 88 79 19 5 68 89 100 97 100 100 100 100 100 98 98 100
36 19 5 2 0 0 10 52 62 83 96 71 100 100 100 100 100 100 100 100 100 100 100 100 100 100 99 95 98 96 67 5 5 77 92 100 100 100 100 100 98 100 70
49 62 100 96 100 69 45 29 20 94 35 96 77 100 100 100 100 100 100 100 100 100 100 100 100 100 100 92 86 36 9 5 50 5 8 100 65 100 100 100 100 89 100
100 100 100 100 100 100 100 100 100 86 43 8 82 100 92 100 100 100 100 100 100 100 100 100 100 100 100 100 100 100 100 40 9 5 67 32 82 100 100 68 100 100 85
79 93 100 100 100 100 100 100 100 100 100 94 6 60 97 24 43 100 100 100 100 100 100 100 100 100 100 100 100 100 100 100 94 82 14 100 68 100 100 100 100 100 100
79 100 100 100 100 100 100 100 100 100 100 100 100 73 94 100 67 100 100 100 100 100 100 100 100 100 100 100 100 100 100 100 100 100 100 100 100 100 100 100 100 100 100
99 96 100 100 100 100 100 100 100 100 100 100 100 100 100 100 14 90 100 100 100 90 100 100 100 100 100 100 100 100 100 100 100 98 100 100 100 100 100 100 100 100 100
98 100 100 100 100 100 100 100 100 100 100 100 100 100 100 100 96 99 96 58 81 14 26 79 100 99 91 99 92 70 96 3 80 100 100 100 100 100 61 92 69 100 84
100 100 100 100 100 100 100 100 100 100 100 100 100 100 100 100 100 100 44 43 95 99 32 95 14 94 49 99 99 96 44 18 5 13 15 70 2 17 100 5 42 21 63
100 100 100 100 100 100 100 100 100 100 100 100 100 100 100 100 100 100 100 76 41 77 100 100 100 100 100 37 2 3 9 16 70 35 19 1 5 1 4 5 16 84 39
100 100 100 100 100 100 100 100 100 100 100 100 100 100 100 100 100 100 100 100 65 51 76 31 5 46 98 100 99 14 38 28 100 100 99 62 33 10 22 31 41 90 96
100 100 100 100 100 100 100 100 100 100 100 100 100 100 100 100 100 100 100 100 98 40 48 52 98 76 51 43 100 52 26 99 26 100 100 100 96 56 34 23 37 59 100
100 100 100 100 100 100 100 100 100 100 100 100 100 100 100 100 100 100 100 100 100 100 100 37 5 28 18 6 4 99 90 82 33 27 100 100 100 100 65 36 18 82 100
100 100 100 100 100 100 100 100 100 100 100 100 100 100 100 100 100 100 100 100 100 100 100 100 100 100 70 100 99 79 60 75 100 71 100 100 100 100 100 88 45 42 100
100 96 100 100 100 100 100 100 100 100 100 100 100 100 100 100 100 100 100 100 100 100 98 100 100 100 65 40 84 79 100 100 100 100 100 100 100 100 100 100 90 92 100
87 100 88 100 98 100 100 100 100 100 100 100 100 100 100 100 100 100 100 100 100 100 100 100 100 100 100 93 99 99 90 82 100 100 100 100 100 100 100 100 100 100 100
84 97 100 100 62 8 85 99 100 100 100 100 100 100 100 100 100 100 100 100 100 100 100 100 100 100 100 98 100 100 100 100 100 100 100 100 100 100 100 100 100 100 100
78 99 92 99 88 31 58 74 97 100 100 100 100 100 100 100 100 100 100 100 100 100 100 100 100 100 100 100 100 100 100 100 100 100 100 100 100 100 100 100 100 100 100
100 100 100 100 96 41 52 70 92 81 88 95 100 100 100 100 100 100 100 100 100 100 100 100 100 100 100 100 100 100 100 100 100 100 100 100 100 100 100 100 100 100 100
100 100 100 99 100 84 61 21 70 19 62 73 87 87 92 90 100 98 98 90 100 100 82 100 99 100 100 100 100 100 100 100 100 100 100 100 100 100 100 100 100 100 100
100 99 87 88 100 95 84 74 81 99 99 61 92 100 100 100 100 100 99 100 99 98 92 78 76 84 92 99 100 100 100 100 100 100 100 100 100 100 100 100 100 100 100

GFSMA_prec_cloud_132.txt.gz
Cloud_Cover
100 100 100 100 100 100 100 100 79 44 45 44 99 86 22 38 38 64 11 34 56 70 100 100 6 61 20 10 42 41 5 96 5 5 5 100 100 19 98 68 98 91 100
66 100 100 100 100 100 100 99 100 100 100 100 100 88 48 100 62 84 90 36 100 81 100 100 33 7 5 12 88 5 5 5 2 5 8 90 94 85 13 98 92 99 100
100 100 100 97 24 100 100 100 74 85 100 100 100 100 100 100 100 100 100 100 100 100 49 96 100 40 5 93 81 54 100 16 5 5 5 5 99 80 100 55 79 27 100
100 100 100 100 100 99 14 60 100 58 58 96 83 100 100 100 100 100 100 100 100 100 100 100 100 100 100 100 100 100 100 75 5 48 5 63 27 65 98 89 54 90 44
100 100 100 100 35 3 43 88 50 42 31 2 20 100 96 100 100 100 100 100 100 100 100 100 100 100 100 100 100 100 100 28 9 45 85 10 47 14 5 95 27 100 85
100 100 100 100 92 27 4 0 0 0 1 0 0 4 5 100 100 100 100 100 100 100 100 100 100 100 100 100 100 100 40 100 8 5 6 20 5 5 9 52 93 26 100
100 100 100 100 100 100 97 17 3 0 0 0 0 0 1 69 100 100 100 100 100 100 100 100 100 100 100 100 100 100 100 100 95 81 63 5 5 5 7 53 100 100 100
99 100 93 80 99 94 91 100 100 100 23 0 34 0 0 4 100 100 100 100 100 100 100 100 100 100 100 100 100 100 100 100 98 97 100 43 5 5 5 5 48 42 96
2 96 90 100 100 100 100 100 100 100 100 100 78 99 42 4 12 100 100 100 100 100 100 100 100 100 100 100 100 100 100 100 98 90 100 92 92 5 5 5 6 58 96
34 24 12 100 100 100 100 100 100 100 100 100 100 86 72 99 100 60 60 71 100 100 100 100 100 100 100 100 100 100 100 100 100 82 100 100 100 41 5 5 5 20 81
36 85 53 100 100 100 100 100 100 100 100 100 100 100 100 100 93 99 64 2 72 100 100 100 100 100 100 100 100 100 100 100 100 100 100 100 75 100 100 35 53 21 82
93 79 27 75 100 100 100 100 100 100 100 100 100 100 100 100 100 100 100 95 94 85 100 100 100 100 100 100 100 100 100 100 100 100 100 100 100 100 100 100 100 47 99
100 100 100 100 100 100 100 100 100 100 100 100 100 100 100 100 100 100 100 100 100 83 100 100 100 100 100 100 100 100 100 100 100 100 100 78 100 92 100 100 100 100 100
100 100 100 100 100 100 100 100 100 100 100 100 100 100 100 100 100 100 100 100 100 100 95 100 98 100 100 100 100 100 100 100 100 100 100 100 100 100 100 100 100 100 100
100 100 100 100 100 100 100 100 100 100 100 100 100 100 100 100 100 100 100 100 100 100 100 100 100 100 100 100 100 100 100 100 100 100 100 100 100 100 100 100 100 100 100
93 88 68 100 100 100 100 100 100 100 100 100 100 100 100 100 100 100 100 100 100 100 100 100 99 100 100 100 100 100 100 100 100 100 100 100 100 100 82 100 100 100 100
99 97 98 100 100 100 100 100 100 100 100 100 100 100 100 100 100 100 100 100 100 100 100 100 100 100 100 100 100 100 100 100 100 100 100 100 81 88 100 100 100 100 100
96 100 100 100 100 100 100 100 100 100 100 100 100 100 100 100 100 100 100 100 100 100 100 100 100 100 100 97 100 100 96 74 100 100 100 100 100 98 100 100 100 100 100
100 100 100 100 100 100 100 100 100 100 100 100 100 100 100 100 100 100 100 100 100 100 100 100 100 100 100 99 100 100 100 84 82 84 67 100 100 100 100 100 100 100 100
99 100 100 100 100 100 100 100 100 100 100 100 100 100 99 100 100 100 100 100 100 100 100 100 100 100 100 100 100 100 100 100 100 100 29 79 100 100 100 100 100 100 100
98 100 100 100 100 100 100 100 100 100 100 66 100 98 100 100 100 100 100 100 100 100 100 100 100 100 100 100 100 100 100 100 100 100 100 100 96 100 100 100 100 100 100
100 100 100 100 100 100 100 100 100 100 100 100 43 38 17 96 99 96 100 100 100 100 100 100 100 100 100 100 100 100 100 100 100 99 51 59 100 100 94 99 35 100 100
100 100 100 100 100 100 100 100 100 100 100 100 100 52 53 55 5 5 47 91 94 100 100 100 100 100 100 100 100 100 100 100 100 98 100 100 100 54 86 98 100 95 100
100 100 99 100 100 100 100 100 100 100 100 100 100 100 98 36 66 8 35 7 26 96 100 100 100 100 100 100 100 100 100 100 95 71 100 88 98 93 80 96 97 100 100
100 100 99 100 100 100 100 100 100 100 100 100 100 100 93 84 97 60 5 55 5 68 14 97 86 85 100 100 100 100 100 100 100 98 98 100 100 100 87 100 100 100 100
100 100 100 100 100 100 100 100 100 100 100 100 100 100 98 100 100 100 24 78 79 56 48 5 5 5 5 88 100 100 100 100 100 100 100 100 100 100 83 97 51 87 100

GFSMA_prec_cloud_135.txt.gz
Cloud_Cover
100 100 100 100 100 100 100 100 100 100 100 100 100 100 100 99 100 100 100 100 100 100 100 100 79 7 94 31 5 5 6 21 5 6 6 4 37 100 73 100 100 92 76
50 70 100 100 100 100 100 100 100 100 100 100 100 100 100 100 100 100 100 100 100 100 100 100 100 100 58 100 36 5 57 5 5 5 5 5 5 61 98 100 100 94 100
69 98 79 100 100 56 5 51 100 100 49 57 100 100 100 100 100 100 100 100 100 100 100 100 100 100 100 100 100 100 100 31 5 27 5 5 5 25 83 73 78 95 98
84 93 96 100 100 76 7 5 5 5 8 42 17 19 94 100 100 100 100 100 100 100 100 100 100 100 100 100 100 100 100 100 100 85 5 8 10 5 86 56 5 25 14
5 42 59 100 100 100 78 15 16 5 2 1 4 7 53 43 100 100 100 100 100 100 100 100 100 100 100 100 100 100 100 100 100 100 26 39 50 5 99 47 11 5 91
0 13 70 16 93 94 81 52 81 5 5 2 0 7 14 71 50 100 100 100 100 100 100 100 100 100 100 100 100 100 100 100 100 100 99 17 5 6 12 40 36 5 5
0 0 31 98 24 82 96 8 36 28 33 5 16 0 7 6 100 100 100 100 100 100 100 100 100 100 100 100 100 100 100 100 100 100 100 38 5 5 5 5 41 38 5
0 0 0 18 46 100 98 94 100 100 82 64 65 47 11 2 73 100 100 42 100 100 100 100 100 100 100 100 100 100 100 100 100 100 100 99 5 9 8 24 38 42 62
0 0 0 2 74 100 99 100 100 100 100 100 100 81 47 40 19 2 98 100 100 100 100 90 100 100 100 100 100 100 100 100 100 100 100 100 100 100 79 45 12 65 68
0 4 3 17 100 100 100 100 100 100 100 100 100 100 100 100 98 50 0 94 56 100 100 81 100 100 100 100 100 100 100 100 100 100 100 99 100 100 100 100 87 46 28
91 21 38 87 100 100 100 100 100 100 100 100 100 100 100 100 100 100 35 0 5 85 100 100 100 100 100 100 100 100 100 100 100 100 100 100 100 100 100 100 100 74 46
100 100 100 100 100 100 100 100 100 100 100 100 100 100 100 100 100 100 100 100 98 2 64 100 95 100 100 100 100 100 100 100 100 100 100 100 100 100 100 100 100 100 58
100 100 100 100 100 100 100 100 100 100 100 100 100 100 100 100 100 100 100 100 100 100 61 100 50 38 99 100 100 100 100 100 100 100 100 100 100 100 100 100 100 100 76
100 100 100 100 100 100 100 100 100 100 100 100 100 100 100 100 100 100 100 100 100 100 100 100 73 53 84 99 100 100 100 100 100 100 100 100 100 100 100 100 100 96 100
82 57 96 96 100 100 100 99 100 100 100 100 100 100 100 100 100 100 100 100 100 100 100 100 100 100 100 23 100 100 100 100 100 100 100 100 100 100 100 100 100 96 100
97 95 100 95 85 98 100 100 100 100 100 100 100 100 100 100 100 100 100 100 100 100 100 100 100 95 100 99 100 99 100 100 100 100 100 100 100 100 100 100 100 100 100
50 27 54 49 52 64 98 100 100 100 100 100 100 100 100 100 100 100 100 100 100 100 100 100 100 100 100 100 57 94 57 100 100 100 100 100 100 100 100 100 100 100 100
17 5 69 72 5 100 100 100 100 100 100 100 100 100 100 100 100 100 100 100 100 100 100 100 100 100 100 100 100 95 100 100 100 100 100 100 100 100 100 100 100 100 100
5 5 21 88 100 93 95 100 100 100 100 100 100 100 100 100 100 100 100 98 95 100 100 100 100 100 100 100 85 98 97 97 100 100 100 100 100 100 100 100 100 100 100
9 44 56 100 100 93 100 100 100 100 100 100 100 100 100 100 100 100 100 100 79 100 100 100 100 100 100 99 96 98 77 100 100 100 100 100 100 100 100 100 100 100 100
5 66 97 100 100 100 100 100 100 100 100 100 100 100 100 100 100 100 100 100 100 98 100 100 100 100 100 100 100 100 100 58 11 77 100 100 100 100 100 100 100 100 100
20 88 100 100 100 100 100 100 100 100 100 100 100 100 100 100 100 99 100 98 100 100 100 100 100 100 100 100 100 100 99 100 97 45 100 100 100 100 100 100 100 100 100
26 100 100 100 100 100 100 100 97 91 100 100 100 100 100 100 100 100 71 58 86 99 100 100 100 100 100 100 100 100 100 100 74 80 62 100 53 90 100 100 100 100 100
98 100 100 100 100 100 100 100 100 100 100 99 100 100 100 100 100 100 74 92 5 77 100 100 99 100 100 100 100 100 100 89 87 98 85 100 100 62 100 100 100 100 100
100 100 100 100 100 100 100 100 100 100 100 100 100 100 100 100 100 82 93 100 95 87 28 86 88 91 79 100 100 96 100 99 99 99 100 100 100 100 100 100 100 100 100
100 100 100 100 100 100 100 100 93 100 100 100 100 100 100 100 100 100 100 100 96 54 5 22 5 5 5 23 72 48 98 100 100 100 100 100 100 100 100 100 100 100 6

GFSMA_prec_cloud_138.txt.gz
Cloud_Cover
45 57 90 51 34 86 100 100 100 96 100 100 100 100 100 100 100 100 100 100 100 100 100 100 100 100 100 100 100 100 78 43 2 5 5 5 5 5 19 100 100 100 70
51 42 22 36 78 37 66 100 100 100 51 32 52 100 100 100 100 100 100 100 100 100 100 100 100 100 100 100 100 100 100 98 68 5 51 5 6 56 99 20 100 56 91
99 100 100 59 15 6 72 18 58 84 95 80 40 100 100 100 100 100 100 100 100 100 100 100 100 100 100 100 100 100 100 100 100 100 55 19 99 69 100 22 23 25 38
0 5 42 74 83 0 5 17 53 5 5 4 5 78 49 81 100 100 100 100 100 100 100 100 100 100 100 100 100 100 100 100 100 100 100 92 88 67 99 98 32 70 84
0 0 0 3 5 2 0 32 38 4 5 21 2 0 3 10 100 67 82 100 100 100 100 100 100 100 100 100 100 100 100 100 100 100 100 100 54 33 98 96 85 58 41
5 5 5 0 0 0 13 18 2 0 0 0 0 5 5 2 81 22 16 91 100 100 100 100 100 100 100 100 100 100 100 100 100 100 100 100 100 18 8 86 80 76 65
31 18 4 0 0 0 0 0 4 0 0 1 18 0 1 2 2 5 32 60 49 100 100 100 100 100 100 100 100 100 100 100 100 100 100 100 100 100 78 46 50 5 20
91 5 5 5 2 7 44 54 17 43 16 10 14 46 34 4 1 2 3 6 18 16 100 100 100 100 100 100 100 100 100 100 100 100 100 100 100 100 100 54 23 5 24
73 6 3 4 42 99 100 100 100 92 97 97 48 90 78 55 38 1 5 3 3 5 86 100 100 100 100 100 100 100 100 100 100 100 100 100 100 100 100 100 43 9 18
14 11 6 9 83 100 100 100 100 100 100 100 74 100 98 79 96 7 5 5 3 2 0 18 98 100 100 100 100 100 100 100 100 100 100 100 100 100 100 100 100 82 8
36 36 79 100 100 100 100 100 100 100 100 100 100 100 100 75 99 98 89 5 5 5 3 5 6 100 100 100 100 100 100 100 100 100 100 100 100 100 100 100 100 100 100
89 84 100 100 100 100 100 100 100 100 100 100 100 100 100 100 100 100 92 38 97 50 70 6 6 36 72 100 100 100 100 100 100 100 100 100 100 100 100 100 100 100 100
39 76 95 93 100 100 100 100 100 100 100 100 100 100 100 100 100 100 100 100 98 92 76 91 14 6 98 98 95 100 100 100 100 100 100 100 100 100 100 100 100 100 100
28 7 8 51 99 100 100 100 100 100 100 100 100 100 100 100 100 100 100 100 100 100 100 100 61 98 96 96 56 43 65 100 100 100 100 100 100 100 100 100 100 100 100
68 8 18 41 91 100 100 100 100 100 100 100 100 100 100 100 100 100 100 100 100 100 100 100 99 67 61 100 100 45 6 100 100 100 100 100 100 100 100 100 100 100 100
7 5 5 13 68 66 85 83 60 83 100 78 99 100 100 100 100 100 100 100 100 100 100 100 100 100 100 100 100 98 46 13 97 100 100 100 100 100 100 100 100 100 100
5 5 5 5 38 97 93 8 29 24 86 94 98 100 100 100 100 100 100 100 100 100 100 100 100 100 100 95 100 80 86 94 100 100 98 100 100 100 100 100 100 100 100
5 4 3 5 33 56 44 50 6 5 82 97 100 100 100 100 100 100 100 100 100 100 100 100 100 100 100 100 95 70 100 100 100 99 100 100 100 100 100 100 100 100 100
4 3 4 5 26 53 80 81 87 98 100 100 100 100 100 100 100 100 100 91 98 100 100 100 100 85 100 97 100 100 100 100 100 100 100 100 100 100 100 100 100 100 100
1 5 5 5 54 97 100 100 96 86 100 100 100 100 100 100 100 100 98 100 100 100 100 100 100 99 100 93 97 97 100 98 100 95 100 100 100 100 100 100 100 100 100
4 5 5 28 100 100 100 100 72 100 100 100 100 100 100 100 100 100 100 100 100 98 99 92 92 100 100 100 100 97 99 78 70 36 91 95 98 100 100 100 100 100 100
5 5 5 50 99 100 100 100 100 100 100 100 100 100 100 100 100 100 100 100 100 100 100 100 100 100 100 100 100 100 100 100 100 77 14 5 68 100 96 100 100 100 100
5 5 66 82 100 100 100 100 100 100 100 100 100 100 100 100 100 100 100 100 100 100 100 100 100 99 100 100 100 100 100 90 72 100 13 26 14 5 25 98 96 100 100
47 33 57 100 100 100 100 100 100 100 100 100 100 100 100 100 100 100 100 100 97 87 98 99 100 100 100 100 100 100 100 100 100 100 92 89 97 99 20 58 100 100 100
50 60 100 100 100 100 100 100 100 100 100 100 100 100 100 100 100 47 48 96 61 96 97 96 100 100 97 100 100 100 97 92 72 100 97 100 100 100 10 78 100 80 20
44 5 100 100 100 100 100 100 100 100 98 74 99 100 100 100 100 100 100 100 100 100 91 100 97 24 15 35 50 16 98 100 100 50 72 100 100 100 100 43 34 100 77

GFSMA_prec_cloud_141.txt.gz
Cloud_Cover
100 100 100 75 37 62 52 35 27 32 25 24 17 86 100 100 100 100 100 100 100 100 100 100 100 100 100 100 100 100 100 100 85 97 78 100 83 13 5 5 35 42 53
100 100 99 65 97 74 13 10 7 2 6 4 4 5 96 59 100 100 100 100 100 100 100 100 100 100 100 100 100 100 100 100 100 100 94 100 100 96 7 75 99 50 35
28 99 100 14 63 100 100 68 100 76 4 2 3 0 4 54 100 100 100 100 100 100 100 100 100 100 100 100 100 100 100 100 100 100 100 100 100 92 64 10 100 55 33
5 5 5 5 48 60 5 5 5 4 5 11 4 0 0 4 5 100 100 52 100 100 100 100 100 100 100 100 100 100 100 100 100 100 100 100 100 100 100 19 100 100 94
2 5 5 4 0 4 5 9 0 2 4 6 0 0 0 4 5 5 57 92 98 100 100 100 100 100 100 100 100 100 100 100 100 100 100 100 100 100 99 100 54 100 100
5 5 5 1 2 5 5 5 49 1 0 3 0 1 2 1 4 3 8 25 80 27 89 100 100 100 100 100 100 100 100 100 100 100 100 100 100 100 100 100 84 100 92
5 5 5 5 24 100 48 100 5 5 0 0 8 0 0 0 0 11 59 88 100 100 100 100 95 100 100 100 100 100 100 100 100 100 100 100 73 100 100 100 100 30 100
5 5 10 76 65 55 5 5 34 49 57 6 21 43 20 2 0 0 0 26 82 95 92 100 100 100 100 100 100 100 100 100 100 100 100 100 100 100 100 100 100 100 100
5 5 5 5 5 4 24 80 77 72 67 44 24 94 58 30 4 0 22 9 50 46 24 25 100 100 100 100 100 100 100 100 100 100 100 100 100 100 100 100 100 100 100
5 5 5 5 14 56 97 100 100 100 100 100 89 100 100 100 85 17 5 33 25 100 96 5 5 12 73 74 100 100 100 100 100 100 100 100 100 100 100 100 100 100 100
5 5 5 5 73 100 100 100 100 100 100 100 100 100 100 100 100 99 86 7 22 70 98 100 67 4 96 67 80 100 100 100 100 100 100 100 100 100 100 100 100 100 100
5 5 5 6 96 100 100 100 100 100 100 100 100 100 100 100 100 100 100 100 100 90 37 100 94 16 80 98 96 100 100 100 100 100 100 100 100 100 100 100 100 100 100
5 5 6 5 44 90 93 100 100 100 100 100 100 100 100 100 100 100 100 100 100 100 93 100 100 92 65 100 96 100 100 100 100 100 100 100 100 100 100 100 100 100 100
11 5 5 5 53 47 20 63 100 100 100 100 98 100 100 100 100 100 100 100 100 100 100 100 98 64 75 92 18 12 78 96 100 100 100 100 100 100 100 100 100 100 100
48 100 41 98 86 98 52 6 99 100 24 78 85 72 88 100 100 100 100 100 100 100 100 100 100 99 96 16 65 99 76 96 100 100 100 100 100 100 100 100 100 100 100
81 100 100 98 85 28 38 6 20 100 15 56 54 45 61 69 97 100 100 100 100 100 100 100 100 100 92 100 56 98 100 100 100 100 100 100 100 100 100 100 100 100 100
100 100 100 91 21 5 5 5 5 64 11 5 66 38 62 75 97 100 100 100 100 100 100 100 100 100 100 100 100 99 100 100 100 100 100 100 100 100 100 100 100 100 100
100 100 26 5 5 5 5 5 7 5 77 97 99 95 98 100 100 100 100 100 100 100 100 100 100 100 100 100 100 100 90 100 100 100 100 100 100 100 100 100 100 100 100
24 5 5 5 18 7 5 5 7 78 94 100 100 100 100 100 100 100 100 100 100 100 100 100 100 100 99 100 100 100 100 100 100 100 100 100 100 100 100 100 100 100 100
48 7 5 68 94 5 7 60 97 98 100 100 96 100 100 100 100 100 100 100 100 100 100 100 100 100 76 42 52 98 100 100 100 100 100 100 100 100 74 100 100 100 100
5 5 13 97 100 78 58 92 100 100 100 100 100 100 100 100 100 100 100 100 100 100 100 100 100 100 100 95 100 96 97 45 100 100 100 100 100 100 100 100 100 100 100
5 5 62 98 99 96 89 98 100 100 100 59 100 100 100 100 100 100 100 100 100 100 100 100 100 100 100 100 100 100 100 88 78 6 70 100 100 98 55 97 100 100 100
5 5 5 9 89 96 88 100 100 100 100 96 99 100 100 100 100 100 100 100 100 100 100 100 100 100 100 100 100 100 100 100 100 73 9 27 76 100 100 79 100 100 100
49 44 11 5 86 99 91 100 100 100 100 100 100 100 100 100 100 100 100 100 100 100 100 100 100 100 100 100 96 100 100 100 100 100 100 95 7 32 20 7 5 100 100
8 75 73 5 5 100 99 100 100 100 100 100 100 100 100 100 100 100 100 100 100 100 100 100 100 100 99 100 100 100 100 100 100 100 96 100 76 13 96 59 5 6 100
73 7 6 38 93 99 100 99 100 100 100 100 100 98 100 100 100 100 100 100 100 100 100 100 100 94 100 89 97 53 100 100 100 100 91 94 21 83 9 86 100 14 49

GFSMA_prec_cloud_144.txt.gz
Cloud_Cover
100 100 100 100 100 100 88 62 62 99 74 6 4 5 6 6 15 60 78 95 100 40 100 100 100 100 100 100 100 100 100 100 100 100 100 100 100 100 98 100 100 100 99
22 100 100 21 86 89 7 89 99 100 99 96 78 82 5 5 5 17 45 59 43 16 92 100 100 100 100 100 100 100 100 100 100 100 100 100 100 100 100 100 97 100 100
4 4 5 5 5 94 14 12 9 100 5 8 16 6 5 3 0 2 19 33 100 100 98 99 100 100 84 100 100 100 100 100 100 100 100 100 100 100 100 100 100 100 100
5 3 5 0 0 5 5 5 4 5 4 6 5 3 5 5 2 0 0 14 42 100 98 60 100 100 100 100 100 100 100 100 100 100 100 100 100 100 100 100 100 100 100
5 5 1 5 5 4 5 5 5 1 0 1 5 22 5 5 4 1 0 6 100 100 100 100 100 100 82 100 68 100 100 100 100 100 100 100 100 100 100 100 100 100 100
5 5 5 6 5 5 5 5 5 4 5 5 22 5 79 13 1 12 4 8 78 99 94 90 92 100 100 25 100 100 100 100 100 100 100 100 100 100 100 100 100 100 100
7 55 38 5 5 5 5 5 0 0 0 0 1 0 0 0 0 0 34 23 8 92 100 100 100 100 100 100 100 89 100 100 100 100 100 100 100 100 100 100 94 100 100
85 9 5 5 5 5 5 5 2 14 43 10 20 72 10 1 0 5 3 80 100 100 100 100 97 98 100 100 100 100 100 100 100 100 100 100 100 100 100 100 100 100 100
44 5 5 5 2 3 1 46 87 96 82 100 67 93 96 52 7 0 12 19 92 100 100 100 100 100 94 100 100 100 100 100 100 100 100 100 100 100 100 100 100 100 100
11 13 5 5 5 5 5 22 83 92 100 100 92 100 100 100 99 23 0 25 67 71 100 100 100 100 100 100 100 100 100 100 100 100 100 100 100 100 100 100 100 100 100
22 5 6 31 5 5 5 12 23 82 99 100 100 100 100 100 100 100 100 75 6 6 19 83 98 80 47 98 95 99 100 100 100 100 100 100 100 100 100 100 100 100 100
47 80 100 64 5 5 5 5 11 85 100 100 100 100 100 100 100 100 100 100 100 94 53 66 46 26 83 98 90 100 100 95 100 100 100 100 100 100 100 100 100 100 100
100 100 62 6 24 31 5 29 97 87 100 100 100 100 100 100 100 100 100 100 100 99 99 100 14 66 54 32 100 97 22 100 95 100 100 100 100 100 100 100 100 100 100
88 14 5 6 99 76 23 37 100 100 100 100 64 89 100 100 100 100 100 100 100 100 100 100 98 96 100 95 95 27 5 25 39 100 100 100 100 100 100 100 100 100 100
5 5 31 5 9 68 6 70 100 100 83 20 35 52 100 100 100 99 100 100 100 100 100 100 100 100 100 81 20 42 98 100 100 99 100 100 100 100 100 100 100 100 100
98 16 5 29 65 27 19 28 92 68 5 6 24 59 100 99 99 98 100 100 100 100 100 100 100 100 100 92 45 72 98 100 100 100 100 100 100 100 100 100 100 100 100
7 5 52 96 94 45 5 5 5 5 5 5 100 98 54 93 100 72 100 100 100 100 100 100 100 100 100 100 99 97 100 100 100 100 100 100 100 100 100 100 100 100 100
5 52 100 70 5 5 15 5 5 5 5 89 100 99 28 93 85 100 100 100 100 100 100 100 100 100 100 100 100 100 100 100 100 100 100 100 100 100 100 100 100 100 100
100 100 21 62 18 5 0 0 5 5 82 98 24 73 94 96 100 100 100 100 100 100 100 100 100 100 100 100 100 100 100 100 100 100 100 100 100 100 100 100 100 95 100
100 69 66 100 38 5 4 5 5 6 95 94 93 66 86 100 100 100 100 100 100 100 100 100 100 100 100 100 100 100 100 100 100 100 100 100 100 100 100 100 100 100 100
98 100 100 100 100 82 38 5 5 53 100 100 76 64 75 99 100 100 100 100 100 100 100 100 100 100 100 100 100 100 100 100 100 100 100 100 100 62 100 100 100 98 99
100 100 85 98 99 97 76 19 5 46 100 100 99 75 39 100 100 100 100 100 100 100 100 100 100 100 100 100 100 100 100 100 98 77 32 90 99 100 100 100 100 58 95
100 100 97 61 5 40 78 76 5 91 98 93 94 39 84 100 100 100 100 100 100 100 100 100 100 100 100 100 100 100 100 97 98 46 100 98 8 5 5 84 99 92 100
100 100 55 18 5 55 89 94 7 100 60 48 30 86 98 100 100 100 100 100 100 100 100 100 100 100 100 100 100 100 100 100 100 49 35 98 29 15 28 6 5 56 100
100 100 60 6 5 58 88 24 12 61 100 100 100 100 100 100 100 100 100 100 100 100 100 100 100 100 100 100 100 100 100 100 100 98 75 98 98 78 6 5 5 5 10
100 34 5 48 23 82 83 7 5 76 100 100 100 100 100 100 100 100 100 100 100 100 100 100 100 100 100 100 100 100 100 100 100 100 100 89 56 22 79 100 55 6 37